<?xml version="1.0" encoding="UTF-8" standalone="no" ?>
<gpx xmlns="http://www.topografix.com/GPX/1/1" xmlns:xsi="http://www.w3.org/2001/XMLSchema-instance" xsi:schemaLocation="http://www.topografix.com/GPX/1/1 http://www.topografix.com/GPX/1/1/gpx.xsd" version="1.1" creator="VisuGPX - https://www.visugpx.com">
  <metadata>
    <name>V-15-06-28-crozet-gingins</name>
    <desc><![CDATA[parcours vallonné au pieds du Jura]]></desc>
  </metadata>
  <trk>
    <name><![CDATA[28-06-2015 12:02:51]]></name>
    <trkseg>
      <trkpt lat="46.28998" lon="6.02422">
        <ele>553.24</ele>
        <time>2015-06-28T07:41:20Z</time>
      </trkpt>
      <trkpt lat="46.28998" lon="6.02425">
        <ele>553.25</ele>
        <time>2015-06-28T07:41:28Z</time>
      </trkpt>
      <trkpt lat="46.28999" lon="6.02428">
        <ele>553.2</ele>
        <time>2015-06-28T07:41:29Z</time>
      </trkpt>
      <trkpt lat="46.29" lon="6.02431">
        <ele>553.05</ele>
        <time>2015-06-28T07:41:30Z</time>
      </trkpt>
      <trkpt lat="46.29002" lon="6.02434">
        <ele>553.11</ele>
        <time>2015-06-28T07:41:31Z</time>
      </trkpt>
      <trkpt lat="46.29005" lon="6.02437">
        <ele>553.14</ele>
        <time>2015-06-28T07:41:32Z</time>
      </trkpt>
      <trkpt lat="46.29009" lon="6.02439">
        <ele>553.08</ele>
        <time>2015-06-28T07:41:33Z</time>
      </trkpt>
      <trkpt lat="46.29012" lon="6.02442">
        <ele>552.96</ele>
        <time>2015-06-28T07:41:34Z</time>
      </trkpt>
      <trkpt lat="46.29016" lon="6.02445">
        <ele>552.83</ele>
        <time>2015-06-28T07:41:35Z</time>
      </trkpt>
      <trkpt lat="46.29019" lon="6.02449">
        <ele>552.84</ele>
        <time>2015-06-28T07:41:36Z</time>
      </trkpt>
      <trkpt lat="46.29023" lon="6.02452">
        <ele>552.8</ele>
        <time>2015-06-28T07:41:37Z</time>
      </trkpt>
      <trkpt lat="46.29027" lon="6.02455">
        <ele>552.65</ele>
        <time>2015-06-28T07:41:38Z</time>
      </trkpt>
      <trkpt lat="46.29031" lon="6.02459">
        <ele>552.58</ele>
        <time>2015-06-28T07:41:39Z</time>
      </trkpt>
      <trkpt lat="46.29117" lon="6.02535">
        <ele>554.39</ele>
        <time>2015-06-28T07:41:58Z</time>
      </trkpt>
      <trkpt lat="46.29199" lon="6.02603">
        <ele>556.8</ele>
        <time>2015-06-28T07:42:15Z</time>
      </trkpt>
      <trkpt lat="46.29252" lon="6.02683">
        <ele>556.31</ele>
        <time>2015-06-28T07:42:28Z</time>
      </trkpt>
      <trkpt lat="46.29267" lon="6.02719">
        <ele>555.95</ele>
        <time>2015-06-28T07:42:32Z</time>
      </trkpt>
      <trkpt lat="46.29272" lon="6.02727">
        <ele>555.8</ele>
        <time>2015-06-28T07:42:33Z</time>
      </trkpt>
      <trkpt lat="46.29279" lon="6.02733">
        <ele>555.49</ele>
        <time>2015-06-28T07:42:34Z</time>
      </trkpt>
      <trkpt lat="46.29287" lon="6.02739">
        <ele>555.34</ele>
        <time>2015-06-28T07:42:35Z</time>
      </trkpt>
      <trkpt lat="46.29295" lon="6.02742">
        <ele>554.93</ele>
        <time>2015-06-28T07:42:36Z</time>
      </trkpt>
      <trkpt lat="46.29304" lon="6.02744">
        <ele>554.2</ele>
        <time>2015-06-28T07:42:37Z</time>
      </trkpt>
      <trkpt lat="46.2934" lon="6.02759">
        <ele>551.71</ele>
        <time>2015-06-28T07:42:41Z</time>
      </trkpt>
      <trkpt lat="46.29349" lon="6.02766">
        <ele>551.08</ele>
        <time>2015-06-28T07:42:42Z</time>
      </trkpt>
      <trkpt lat="46.29356" lon="6.02775">
        <ele>550.88</ele>
        <time>2015-06-28T07:42:43Z</time>
      </trkpt>
      <trkpt lat="46.29362" lon="6.02784">
        <ele>550.45</ele>
        <time>2015-06-28T07:42:44Z</time>
      </trkpt>
      <trkpt lat="46.29368" lon="6.02793">
        <ele>549.97</ele>
        <time>2015-06-28T07:42:45Z</time>
      </trkpt>
      <trkpt lat="46.29374" lon="6.02802">
        <ele>549.97</ele>
        <time>2015-06-28T07:42:46Z</time>
      </trkpt>
      <trkpt lat="46.29398" lon="6.02842">
        <ele>550.72</ele>
        <time>2015-06-28T07:42:51Z</time>
      </trkpt>
      <trkpt lat="46.29403" lon="6.02848">
        <ele>550.89</ele>
        <time>2015-06-28T07:42:52Z</time>
      </trkpt>
      <trkpt lat="46.29409" lon="6.02852">
        <ele>551.04</ele>
        <time>2015-06-28T07:42:53Z</time>
      </trkpt>
      <trkpt lat="46.29415" lon="6.02856">
        <ele>551.24</ele>
        <time>2015-06-28T07:42:54Z</time>
      </trkpt>
      <trkpt lat="46.29422" lon="6.02859">
        <ele>551.5</ele>
        <time>2015-06-28T07:42:55Z</time>
      </trkpt>
      <trkpt lat="46.29428" lon="6.02861">
        <ele>551.74</ele>
        <time>2015-06-28T07:42:56Z</time>
      </trkpt>
      <trkpt lat="46.29435" lon="6.02863">
        <ele>551.86</ele>
        <time>2015-06-28T07:42:57Z</time>
      </trkpt>
      <trkpt lat="46.29492" lon="6.02875">
        <ele>551.79</ele>
        <time>2015-06-28T07:43:06Z</time>
      </trkpt>
      <trkpt lat="46.29499" lon="6.02873">
        <ele>551.91</ele>
        <time>2015-06-28T07:43:07Z</time>
      </trkpt>
      <trkpt lat="46.29592" lon="6.02841">
        <ele>551.16</ele>
        <time>2015-06-28T07:43:21Z</time>
      </trkpt>
      <trkpt lat="46.29623" lon="6.02833">
        <ele>549.82</ele>
        <time>2015-06-28T07:43:25Z</time>
      </trkpt>
      <trkpt lat="46.29631" lon="6.0283">
        <ele>549.51</ele>
        <time>2015-06-28T07:43:26Z</time>
      </trkpt>
      <trkpt lat="46.29639" lon="6.0283">
        <ele>549.2</ele>
        <time>2015-06-28T07:43:27Z</time>
      </trkpt>
      <trkpt lat="46.29647" lon="6.02832">
        <ele>548.94</ele>
        <time>2015-06-28T07:43:28Z</time>
      </trkpt>
      <trkpt lat="46.29655" lon="6.02835">
        <ele>548.62</ele>
        <time>2015-06-28T07:43:29Z</time>
      </trkpt>
      <trkpt lat="46.29662" lon="6.02839">
        <ele>548.27</ele>
        <time>2015-06-28T07:43:30Z</time>
      </trkpt>
      <trkpt lat="46.29671" lon="6.02851">
        <ele>547.83</ele>
        <time>2015-06-28T07:43:32Z</time>
      </trkpt>
      <trkpt lat="46.29671" lon="6.02861">
        <ele>547.73</ele>
        <time>2015-06-28T07:43:33Z</time>
      </trkpt>
      <trkpt lat="46.29669" lon="6.02874">
        <ele>547.7</ele>
        <time>2015-06-28T07:43:34Z</time>
      </trkpt>
      <trkpt lat="46.29665" lon="6.02884">
        <ele>547.66</ele>
        <time>2015-06-28T07:43:35Z</time>
      </trkpt>
      <trkpt lat="46.29659" lon="6.02892">
        <ele>547.64</ele>
        <time>2015-06-28T07:43:36Z</time>
      </trkpt>
      <trkpt lat="46.29654" lon="6.029">
        <ele>547.64</ele>
        <time>2015-06-28T07:43:37Z</time>
      </trkpt>
      <trkpt lat="46.2965" lon="6.02906">
        <ele>547.59</ele>
        <time>2015-06-28T07:43:38Z</time>
      </trkpt>
      <trkpt lat="46.29618" lon="6.02949">
        <ele>549.82</ele>
        <time>2015-06-28T07:43:48Z</time>
      </trkpt>
      <trkpt lat="46.2959" lon="6.02978">
        <ele>552.2</ele>
        <time>2015-06-28T07:43:56Z</time>
      </trkpt>
      <trkpt lat="46.29545" lon="6.03011">
        <ele>554.64</ele>
        <time>2015-06-28T07:44:06Z</time>
      </trkpt>
      <trkpt lat="46.29544" lon="6.03016">
        <ele>554.8</ele>
        <time>2015-06-28T07:44:07Z</time>
      </trkpt>
      <trkpt lat="46.29564" lon="6.03053">
        <ele>557.78</ele>
        <time>2015-06-28T07:44:16Z</time>
      </trkpt>
      <trkpt lat="46.29581" lon="6.03063">
        <ele>558.32</ele>
        <time>2015-06-28T07:44:20Z</time>
      </trkpt>
      <trkpt lat="46.29598" lon="6.03076">
        <ele>559.54</ele>
        <time>2015-06-28T07:44:24Z</time>
      </trkpt>
      <trkpt lat="46.29602" lon="6.03081">
        <ele>559.6</ele>
        <time>2015-06-28T07:44:25Z</time>
      </trkpt>
      <trkpt lat="46.29611" lon="6.03096">
        <ele>559.65</ele>
        <time>2015-06-28T07:44:28Z</time>
      </trkpt>
      <trkpt lat="46.29615" lon="6.03101">
        <ele>559.63</ele>
        <time>2015-06-28T07:44:29Z</time>
      </trkpt>
      <trkpt lat="46.29626" lon="6.03119">
        <ele>559.38</ele>
        <time>2015-06-28T07:44:32Z</time>
      </trkpt>
      <trkpt lat="46.29629" lon="6.03125">
        <ele>559.26</ele>
        <time>2015-06-28T07:44:33Z</time>
      </trkpt>
      <trkpt lat="46.29632" lon="6.03131">
        <ele>559.06</ele>
        <time>2015-06-28T07:44:34Z</time>
      </trkpt>
      <trkpt lat="46.29636" lon="6.03136">
        <ele>559.06</ele>
        <time>2015-06-28T07:44:35Z</time>
      </trkpt>
      <trkpt lat="46.2964" lon="6.03141">
        <ele>558.96</ele>
        <time>2015-06-28T07:44:36Z</time>
      </trkpt>
      <trkpt lat="46.29648" lon="6.03154">
        <ele>558.53</ele>
        <time>2015-06-28T07:44:38Z</time>
      </trkpt>
      <trkpt lat="46.29668" lon="6.03194">
        <ele>557.64</ele>
        <time>2015-06-28T07:44:44Z</time>
      </trkpt>
      <trkpt lat="46.29671" lon="6.03201">
        <ele>557.62</ele>
        <time>2015-06-28T07:44:45Z</time>
      </trkpt>
      <trkpt lat="46.29673" lon="6.03216">
        <ele>558.19</ele>
        <time>2015-06-28T07:44:47Z</time>
      </trkpt>
      <trkpt lat="46.29673" lon="6.03223">
        <ele>558.49</ele>
        <time>2015-06-28T07:44:48Z</time>
      </trkpt>
      <trkpt lat="46.29673" lon="6.0323">
        <ele>558.64</ele>
        <time>2015-06-28T07:44:49Z</time>
      </trkpt>
      <trkpt lat="46.29671" lon="6.03236">
        <ele>558.82</ele>
        <time>2015-06-28T07:44:50Z</time>
      </trkpt>
      <trkpt lat="46.29669" lon="6.03243">
        <ele>558.99</ele>
        <time>2015-06-28T07:44:51Z</time>
      </trkpt>
      <trkpt lat="46.29667" lon="6.03249">
        <ele>558.99</ele>
        <time>2015-06-28T07:44:52Z</time>
      </trkpt>
      <trkpt lat="46.2966" lon="6.03268">
        <ele>559.24</ele>
        <time>2015-06-28T07:44:55Z</time>
      </trkpt>
      <trkpt lat="46.29658" lon="6.03276">
        <ele>559.39</ele>
        <time>2015-06-28T07:44:56Z</time>
      </trkpt>
      <trkpt lat="46.29658" lon="6.03283">
        <ele>559.59</ele>
        <time>2015-06-28T07:44:57Z</time>
      </trkpt>
      <trkpt lat="46.29668" lon="6.03401">
        <ele>558.58</ele>
        <time>2015-06-28T07:45:11Z</time>
      </trkpt>
      <trkpt lat="46.29682" lon="6.035">
        <ele>555.14</ele>
        <time>2015-06-28T07:45:19Z</time>
      </trkpt>
      <trkpt lat="46.29686" lon="6.03513">
        <ele>554.53</ele>
        <time>2015-06-28T07:45:20Z</time>
      </trkpt>
      <trkpt lat="46.29692" lon="6.03526">
        <ele>553.69</ele>
        <time>2015-06-28T07:45:21Z</time>
      </trkpt>
      <trkpt lat="46.29698" lon="6.03538">
        <ele>552.74</ele>
        <time>2015-06-28T07:45:22Z</time>
      </trkpt>
      <trkpt lat="46.29705" lon="6.0355">
        <ele>551.86</ele>
        <time>2015-06-28T07:45:23Z</time>
      </trkpt>
      <trkpt lat="46.29713" lon="6.03562">
        <ele>551.02</ele>
        <time>2015-06-28T07:45:24Z</time>
      </trkpt>
      <trkpt lat="46.29735" lon="6.036">
        <ele>549.44</ele>
        <time>2015-06-28T07:45:27Z</time>
      </trkpt>
      <trkpt lat="46.2974" lon="6.03615">
        <ele>548.71</ele>
        <time>2015-06-28T07:45:28Z</time>
      </trkpt>
      <trkpt lat="46.29744" lon="6.03629">
        <ele>547.85</ele>
        <time>2015-06-28T07:45:29Z</time>
      </trkpt>
      <trkpt lat="46.29746" lon="6.03644">
        <ele>546.93</ele>
        <time>2015-06-28T07:45:30Z</time>
      </trkpt>
      <trkpt lat="46.29748" lon="6.03659">
        <ele>546.35</ele>
        <time>2015-06-28T07:45:31Z</time>
      </trkpt>
      <trkpt lat="46.29749" lon="6.03673">
        <ele>546.06</ele>
        <time>2015-06-28T07:45:32Z</time>
      </trkpt>
      <trkpt lat="46.2975" lon="6.03687">
        <ele>545.86</ele>
        <time>2015-06-28T07:45:33Z</time>
      </trkpt>
      <trkpt lat="46.29753" lon="6.037">
        <ele>545.74</ele>
        <time>2015-06-28T07:45:34Z</time>
      </trkpt>
      <trkpt lat="46.29756" lon="6.03713">
        <ele>545.74</ele>
        <time>2015-06-28T07:45:35Z</time>
      </trkpt>
      <trkpt lat="46.2976" lon="6.03725">
        <ele>545.75</ele>
        <time>2015-06-28T07:45:36Z</time>
      </trkpt>
      <trkpt lat="46.2982" lon="6.0386">
        <ele>546.18</ele>
        <time>2015-06-28T07:45:50Z</time>
      </trkpt>
      <trkpt lat="46.29843" lon="6.03913">
        <ele>546.28</ele>
        <time>2015-06-28T07:45:56Z</time>
      </trkpt>
      <trkpt lat="46.29845" lon="6.03922">
        <ele>546.44</ele>
        <time>2015-06-28T07:45:57Z</time>
      </trkpt>
      <trkpt lat="46.29861" lon="6.04026">
        <ele>547.22</ele>
        <time>2015-06-28T07:46:08Z</time>
      </trkpt>
      <trkpt lat="46.2987" lon="6.04052">
        <ele>547.51</ele>
        <time>2015-06-28T07:46:11Z</time>
      </trkpt>
      <trkpt lat="46.29886" lon="6.04083">
        <ele>547.89</ele>
        <time>2015-06-28T07:46:15Z</time>
      </trkpt>
      <trkpt lat="46.2989" lon="6.0409">
        <ele>547.87</ele>
        <time>2015-06-28T07:46:16Z</time>
      </trkpt>
      <trkpt lat="46.29895" lon="6.04096">
        <ele>547.92</ele>
        <time>2015-06-28T07:46:17Z</time>
      </trkpt>
      <trkpt lat="46.29901" lon="6.04102">
        <ele>547.94</ele>
        <time>2015-06-28T07:46:18Z</time>
      </trkpt>
      <trkpt lat="46.29906" lon="6.04107">
        <ele>547.85</ele>
        <time>2015-06-28T07:46:19Z</time>
      </trkpt>
      <trkpt lat="46.29959" lon="6.04134">
        <ele>546.89</ele>
        <time>2015-06-28T07:46:27Z</time>
      </trkpt>
      <trkpt lat="46.29966" lon="6.04134">
        <ele>546.68</ele>
        <time>2015-06-28T07:46:28Z</time>
      </trkpt>
      <trkpt lat="46.29974" lon="6.04133">
        <ele>546.59</ele>
        <time>2015-06-28T07:46:29Z</time>
      </trkpt>
      <trkpt lat="46.29981" lon="6.04129">
        <ele>546.48</ele>
        <time>2015-06-28T07:46:30Z</time>
      </trkpt>
      <trkpt lat="46.29987" lon="6.04124">
        <ele>546.45</ele>
        <time>2015-06-28T07:46:31Z</time>
      </trkpt>
      <trkpt lat="46.29994" lon="6.04117">
        <ele>546.44</ele>
        <time>2015-06-28T07:46:32Z</time>
      </trkpt>
      <trkpt lat="46.3" lon="6.0411">
        <ele>546.34</ele>
        <time>2015-06-28T07:46:33Z</time>
      </trkpt>
      <trkpt lat="46.30038" lon="6.0407">
        <ele>545.8</ele>
        <time>2015-06-28T07:46:39Z</time>
      </trkpt>
      <trkpt lat="46.30064" lon="6.0405">
        <ele>545.47</ele>
        <time>2015-06-28T07:46:43Z</time>
      </trkpt>
      <trkpt lat="46.30071" lon="6.04047">
        <ele>545.46</ele>
        <time>2015-06-28T07:46:44Z</time>
      </trkpt>
      <trkpt lat="46.30078" lon="6.04046">
        <ele>545.34</ele>
        <time>2015-06-28T07:46:45Z</time>
      </trkpt>
      <trkpt lat="46.30084" lon="6.04048">
        <ele>545.27</ele>
        <time>2015-06-28T07:46:46Z</time>
      </trkpt>
      <trkpt lat="46.30091" lon="6.04051">
        <ele>545.47</ele>
        <time>2015-06-28T07:46:47Z</time>
      </trkpt>
      <trkpt lat="46.30097" lon="6.04056">
        <ele>545.57</ele>
        <time>2015-06-28T07:46:48Z</time>
      </trkpt>
      <trkpt lat="46.30102" lon="6.04063">
        <ele>545.68</ele>
        <time>2015-06-28T07:46:49Z</time>
      </trkpt>
      <trkpt lat="46.30107" lon="6.0407">
        <ele>545.62</ele>
        <time>2015-06-28T07:46:50Z</time>
      </trkpt>
      <trkpt lat="46.30112" lon="6.04078">
        <ele>545.58</ele>
        <time>2015-06-28T07:46:51Z</time>
      </trkpt>
      <trkpt lat="46.30127" lon="6.04102">
        <ele>545.54</ele>
        <time>2015-06-28T07:46:54Z</time>
      </trkpt>
      <trkpt lat="46.30141" lon="6.04127">
        <ele>545.43</ele>
        <time>2015-06-28T07:46:57Z</time>
      </trkpt>
      <trkpt lat="46.30146" lon="6.04135">
        <ele>545.52</ele>
        <time>2015-06-28T07:46:58Z</time>
      </trkpt>
      <trkpt lat="46.30214" lon="6.04217">
        <ele>547.28</ele>
        <time>2015-06-28T07:47:11Z</time>
      </trkpt>
      <trkpt lat="46.30286" lon="6.04281">
        <ele>548.84</ele>
        <time>2015-06-28T07:47:25Z</time>
      </trkpt>
      <trkpt lat="46.30382" lon="6.04314">
        <ele>549.85</ele>
        <time>2015-06-28T07:47:41Z</time>
      </trkpt>
      <trkpt lat="46.3051" lon="6.04374">
        <ele>549.87</ele>
        <time>2015-06-28T07:48:01Z</time>
      </trkpt>
      <trkpt lat="46.30517" lon="6.04377">
        <ele>549.94</ele>
        <time>2015-06-28T07:48:02Z</time>
      </trkpt>
      <trkpt lat="46.30641" lon="6.04435">
        <ele>549.36</ele>
        <time>2015-06-28T07:48:21Z</time>
      </trkpt>
      <trkpt lat="46.30721" lon="6.04466">
        <ele>547.15</ele>
        <time>2015-06-28T07:48:32Z</time>
      </trkpt>
      <trkpt lat="46.30729" lon="6.04466">
        <ele>547.15</ele>
        <time>2015-06-28T07:48:33Z</time>
      </trkpt>
      <trkpt lat="46.30798" lon="6.04458">
        <ele>545.9</ele>
        <time>2015-06-28T07:48:42Z</time>
      </trkpt>
      <trkpt lat="46.30806" lon="6.0446">
        <ele>545.79</ele>
        <time>2015-06-28T07:48:43Z</time>
      </trkpt>
      <trkpt lat="46.30814" lon="6.04463">
        <ele>545.56</ele>
        <time>2015-06-28T07:48:44Z</time>
      </trkpt>
      <trkpt lat="46.30821" lon="6.04467">
        <ele>545.64</ele>
        <time>2015-06-28T07:48:45Z</time>
      </trkpt>
      <trkpt lat="46.30828" lon="6.04472">
        <ele>545.67</ele>
        <time>2015-06-28T07:48:46Z</time>
      </trkpt>
      <trkpt lat="46.30834" lon="6.04477">
        <ele>545.64</ele>
        <time>2015-06-28T07:48:47Z</time>
      </trkpt>
      <trkpt lat="46.3084" lon="6.04484">
        <ele>545.73</ele>
        <time>2015-06-28T07:48:48Z</time>
      </trkpt>
      <trkpt lat="46.30845" lon="6.04491">
        <ele>545.82</ele>
        <time>2015-06-28T07:48:49Z</time>
      </trkpt>
      <trkpt lat="46.3085" lon="6.04498">
        <ele>545.87</ele>
        <time>2015-06-28T07:48:50Z</time>
      </trkpt>
      <trkpt lat="46.30855" lon="6.04506">
        <ele>545.97</ele>
        <time>2015-06-28T07:48:51Z</time>
      </trkpt>
      <trkpt lat="46.30904" lon="6.04586">
        <ele>549.01</ele>
        <time>2015-06-28T07:49:04Z</time>
      </trkpt>
      <trkpt lat="46.30929" lon="6.04627">
        <ele>551.49</ele>
        <time>2015-06-28T07:49:12Z</time>
      </trkpt>
      <trkpt lat="46.30979" lon="6.04706">
        <ele>551.8</ele>
        <time>2015-06-28T07:49:26Z</time>
      </trkpt>
      <trkpt lat="46.30982" lon="6.04712">
        <ele>551.83</ele>
        <time>2015-06-28T07:49:27Z</time>
      </trkpt>
      <trkpt lat="46.31047" lon="6.04835">
        <ele>552.09</ele>
        <time>2015-06-28T07:49:46Z</time>
      </trkpt>
      <trkpt lat="46.31097" lon="6.04882">
        <ele>552.89</ele>
        <time>2015-06-28T07:49:58Z</time>
      </trkpt>
      <trkpt lat="46.31101" lon="6.04885">
        <ele>553.09</ele>
        <time>2015-06-28T07:49:59Z</time>
      </trkpt>
      <trkpt lat="46.31105" lon="6.0489">
        <ele>553.3</ele>
        <time>2015-06-28T07:50:00Z</time>
      </trkpt>
      <trkpt lat="46.31107" lon="6.04896">
        <ele>553.46</ele>
        <time>2015-06-28T07:50:01Z</time>
      </trkpt>
      <trkpt lat="46.31107" lon="6.04904">
        <ele>553.55</ele>
        <time>2015-06-28T07:50:02Z</time>
      </trkpt>
      <trkpt lat="46.31106" lon="6.04911">
        <ele>553.58</ele>
        <time>2015-06-28T07:50:03Z</time>
      </trkpt>
      <trkpt lat="46.31104" lon="6.04919">
        <ele>553.57</ele>
        <time>2015-06-28T07:50:04Z</time>
      </trkpt>
      <trkpt lat="46.31103" lon="6.04926">
        <ele>553.57</ele>
        <time>2015-06-28T07:50:05Z</time>
      </trkpt>
      <trkpt lat="46.31102" lon="6.04934">
        <ele>553.55</ele>
        <time>2015-06-28T07:50:06Z</time>
      </trkpt>
      <trkpt lat="46.31103" lon="6.04941">
        <ele>553.52</ele>
        <time>2015-06-28T07:50:07Z</time>
      </trkpt>
      <trkpt lat="46.31106" lon="6.04948">
        <ele>553.47</ele>
        <time>2015-06-28T07:50:08Z</time>
      </trkpt>
      <trkpt lat="46.31109" lon="6.04954">
        <ele>553.45</ele>
        <time>2015-06-28T07:50:09Z</time>
      </trkpt>
      <trkpt lat="46.31114" lon="6.04957">
        <ele>553.43</ele>
        <time>2015-06-28T07:50:10Z</time>
      </trkpt>
      <trkpt lat="46.31119" lon="6.0496">
        <ele>553.43</ele>
        <time>2015-06-28T07:50:11Z</time>
      </trkpt>
      <trkpt lat="46.31125" lon="6.04958">
        <ele>553.43</ele>
        <time>2015-06-28T07:50:12Z</time>
      </trkpt>
      <trkpt lat="46.31131" lon="6.04955">
        <ele>553.43</ele>
        <time>2015-06-28T07:50:13Z</time>
      </trkpt>
      <trkpt lat="46.31146" lon="6.0495">
        <ele>553.79</ele>
        <time>2015-06-28T07:50:16Z</time>
      </trkpt>
      <trkpt lat="46.31151" lon="6.04952">
        <ele>553.94</ele>
        <time>2015-06-28T07:50:17Z</time>
      </trkpt>
      <trkpt lat="46.31162" lon="6.04955">
        <ele>554.12</ele>
        <time>2015-06-28T07:50:19Z</time>
      </trkpt>
      <trkpt lat="46.31167" lon="6.04957">
        <ele>554.17</ele>
        <time>2015-06-28T07:50:20Z</time>
      </trkpt>
      <trkpt lat="46.31262" lon="6.0499">
        <ele>555.56</ele>
        <time>2015-06-28T07:50:38Z</time>
      </trkpt>
      <trkpt lat="46.31309" lon="6.05007">
        <ele>555.69</ele>
        <time>2015-06-28T07:50:46Z</time>
      </trkpt>
      <trkpt lat="46.31403" lon="6.05046">
        <ele>556.97</ele>
        <time>2015-06-28T07:51:02Z</time>
      </trkpt>
      <trkpt lat="46.31482" lon="6.05076">
        <ele>558.96</ele>
        <time>2015-06-28T07:51:18Z</time>
      </trkpt>
      <trkpt lat="46.3156" lon="6.05109">
        <ele>560.89</ele>
        <time>2015-06-28T07:51:34Z</time>
      </trkpt>
      <trkpt lat="46.31661" lon="6.0515">
        <ele>562.46</ele>
        <time>2015-06-28T07:51:54Z</time>
      </trkpt>
      <trkpt lat="46.31779" lon="6.05196">
        <ele>563.86</ele>
        <time>2015-06-28T07:52:16Z</time>
      </trkpt>
      <trkpt lat="46.31785" lon="6.05198">
        <ele>563.77</ele>
        <time>2015-06-28T07:52:17Z</time>
      </trkpt>
      <trkpt lat="46.31911" lon="6.05244">
        <ele>562.9</ele>
        <time>2015-06-28T07:52:38Z</time>
      </trkpt>
      <trkpt lat="46.31969" lon="6.05268">
        <ele>561.71</ele>
        <time>2015-06-28T07:52:47Z</time>
      </trkpt>
      <trkpt lat="46.31976" lon="6.05271">
        <ele>561.53</ele>
        <time>2015-06-28T07:52:48Z</time>
      </trkpt>
      <trkpt lat="46.32082" lon="6.05312">
        <ele>558.99</ele>
        <time>2015-06-28T07:53:02Z</time>
      </trkpt>
      <trkpt lat="46.32124" lon="6.05326">
        <ele>562.39</ele>
        <time>2015-06-28T07:53:10Z</time>
      </trkpt>
      <trkpt lat="46.32178" lon="6.05344">
        <ele>565.57</ele>
        <time>2015-06-28T07:53:23Z</time>
      </trkpt>
      <trkpt lat="46.32209" lon="6.05358">
        <ele>567.31</ele>
        <time>2015-06-28T07:53:31Z</time>
      </trkpt>
      <trkpt lat="46.32282" lon="6.05387">
        <ele>570.3</ele>
        <time>2015-06-28T07:53:49Z</time>
      </trkpt>
      <trkpt lat="46.3236" lon="6.05418">
        <ele>572.98</ele>
        <time>2015-06-28T07:54:08Z</time>
      </trkpt>
      <trkpt lat="46.32435" lon="6.05453">
        <ele>575.53</ele>
        <time>2015-06-28T07:54:26Z</time>
      </trkpt>
      <trkpt lat="46.32478" lon="6.05469">
        <ele>576.31</ele>
        <time>2015-06-28T07:54:36Z</time>
      </trkpt>
      <trkpt lat="46.32482" lon="6.05471">
        <ele>576.52</ele>
        <time>2015-06-28T07:54:37Z</time>
      </trkpt>
      <trkpt lat="46.32519" lon="6.05487">
        <ele>577.49</ele>
        <time>2015-06-28T07:54:46Z</time>
      </trkpt>
      <trkpt lat="46.32526" lon="6.05495">
        <ele>577.86</ele>
        <time>2015-06-28T07:54:48Z</time>
      </trkpt>
      <trkpt lat="46.3253" lon="6.05499">
        <ele>578.1</ele>
        <time>2015-06-28T07:54:49Z</time>
      </trkpt>
      <trkpt lat="46.32534" lon="6.05501">
        <ele>578.27</ele>
        <time>2015-06-28T07:54:50Z</time>
      </trkpt>
      <trkpt lat="46.32538" lon="6.05501">
        <ele>578.36</ele>
        <time>2015-06-28T07:54:51Z</time>
      </trkpt>
      <trkpt lat="46.32543" lon="6.055">
        <ele>578.5</ele>
        <time>2015-06-28T07:54:52Z</time>
      </trkpt>
      <trkpt lat="46.32552" lon="6.055">
        <ele>578.82</ele>
        <time>2015-06-28T07:54:54Z</time>
      </trkpt>
      <trkpt lat="46.32556" lon="6.05502">
        <ele>578.97</ele>
        <time>2015-06-28T07:54:55Z</time>
      </trkpt>
      <trkpt lat="46.3256" lon="6.05503">
        <ele>579.09</ele>
        <time>2015-06-28T07:54:56Z</time>
      </trkpt>
      <trkpt lat="46.32603" lon="6.05521">
        <ele>580.1</ele>
        <time>2015-06-28T07:55:06Z</time>
      </trkpt>
      <trkpt lat="46.32607" lon="6.05522">
        <ele>580.1</ele>
        <time>2015-06-28T07:55:07Z</time>
      </trkpt>
      <trkpt lat="46.32673" lon="6.05547">
        <ele>583.27</ele>
        <time>2015-06-28T07:55:23Z</time>
      </trkpt>
      <trkpt lat="46.32685" lon="6.05552">
        <ele>583.85</ele>
        <time>2015-06-28T07:55:26Z</time>
      </trkpt>
      <trkpt lat="46.32689" lon="6.05553">
        <ele>584.25</ele>
        <time>2015-06-28T07:55:27Z</time>
      </trkpt>
      <trkpt lat="46.32712" lon="6.0556">
        <ele>584.98</ele>
        <time>2015-06-28T07:55:33Z</time>
      </trkpt>
      <trkpt lat="46.32733" lon="6.05567">
        <ele>585.6</ele>
        <time>2015-06-28T07:55:38Z</time>
      </trkpt>
      <trkpt lat="46.32737" lon="6.05569">
        <ele>585.73</ele>
        <time>2015-06-28T07:55:39Z</time>
      </trkpt>
      <trkpt lat="46.32821" lon="6.05603">
        <ele>586.43</ele>
        <time>2015-06-28T07:55:57Z</time>
      </trkpt>
      <trkpt lat="46.32905" lon="6.05636">
        <ele>584.61</ele>
        <time>2015-06-28T07:56:11Z</time>
      </trkpt>
      <trkpt lat="46.3293" lon="6.05646">
        <ele>584.45</ele>
        <time>2015-06-28T07:56:15Z</time>
      </trkpt>
      <trkpt lat="46.32942" lon="6.05652">
        <ele>584.16</ele>
        <time>2015-06-28T07:56:17Z</time>
      </trkpt>
      <trkpt lat="46.32948" lon="6.05653">
        <ele>584.19</ele>
        <time>2015-06-28T07:56:18Z</time>
      </trkpt>
      <trkpt lat="46.32954" lon="6.05655">
        <ele>584.13</ele>
        <time>2015-06-28T07:56:19Z</time>
      </trkpt>
      <trkpt lat="46.33019" lon="6.0568">
        <ele>584.75</ele>
        <time>2015-06-28T07:56:31Z</time>
      </trkpt>
      <trkpt lat="46.33023" lon="6.05682">
        <ele>585.03</ele>
        <time>2015-06-28T07:56:32Z</time>
      </trkpt>
      <trkpt lat="46.33064" lon="6.05698">
        <ele>586.67</ele>
        <time>2015-06-28T07:56:41Z</time>
      </trkpt>
      <trkpt lat="46.33069" lon="6.057">
        <ele>586.92</ele>
        <time>2015-06-28T07:56:42Z</time>
      </trkpt>
      <trkpt lat="46.33119" lon="6.0572">
        <ele>589.97</ele>
        <time>2015-06-28T07:56:55Z</time>
      </trkpt>
      <trkpt lat="46.33151" lon="6.05733">
        <ele>592.98</ele>
        <time>2015-06-28T07:57:05Z</time>
      </trkpt>
      <trkpt lat="46.33184" lon="6.0575">
        <ele>595.25</ele>
        <time>2015-06-28T07:57:17Z</time>
      </trkpt>
      <trkpt lat="46.33213" lon="6.058">
        <ele>596.19</ele>
        <time>2015-06-28T07:57:30Z</time>
      </trkpt>
      <trkpt lat="46.33201" lon="6.05826">
        <ele>596.27</ele>
        <time>2015-06-28T07:57:35Z</time>
      </trkpt>
      <trkpt lat="46.3318" lon="6.0586">
        <ele>595.45</ele>
        <time>2015-06-28T07:57:42Z</time>
      </trkpt>
      <trkpt lat="46.33174" lon="6.05868">
        <ele>595.38</ele>
        <time>2015-06-28T07:57:44Z</time>
      </trkpt>
      <trkpt lat="46.33171" lon="6.05872">
        <ele>595.29</ele>
        <time>2015-06-28T07:57:45Z</time>
      </trkpt>
      <trkpt lat="46.33167" lon="6.05876">
        <ele>595.28</ele>
        <time>2015-06-28T07:57:46Z</time>
      </trkpt>
      <trkpt lat="46.33163" lon="6.05882">
        <ele>595.17</ele>
        <time>2015-06-28T07:57:47Z</time>
      </trkpt>
      <trkpt lat="46.33161" lon="6.05889">
        <ele>594.95</ele>
        <time>2015-06-28T07:57:48Z</time>
      </trkpt>
      <trkpt lat="46.33161" lon="6.05897">
        <ele>594.73</ele>
        <time>2015-06-28T07:57:49Z</time>
      </trkpt>
      <trkpt lat="46.33162" lon="6.05904">
        <ele>594.56</ele>
        <time>2015-06-28T07:57:50Z</time>
      </trkpt>
      <trkpt lat="46.33166" lon="6.0591">
        <ele>594.4</ele>
        <time>2015-06-28T07:57:51Z</time>
      </trkpt>
      <trkpt lat="46.33171" lon="6.05914">
        <ele>594.4</ele>
        <time>2015-06-28T07:57:52Z</time>
      </trkpt>
      <trkpt lat="46.33176" lon="6.05915">
        <ele>594.25</ele>
        <time>2015-06-28T07:57:53Z</time>
      </trkpt>
      <trkpt lat="46.33182" lon="6.05915">
        <ele>594.16</ele>
        <time>2015-06-28T07:57:54Z</time>
      </trkpt>
      <trkpt lat="46.33187" lon="6.05916">
        <ele>594.13</ele>
        <time>2015-06-28T07:57:55Z</time>
      </trkpt>
      <trkpt lat="46.33192" lon="6.05918">
        <ele>594.15</ele>
        <time>2015-06-28T07:57:56Z</time>
      </trkpt>
      <trkpt lat="46.33196" lon="6.05922">
        <ele>594.22</ele>
        <time>2015-06-28T07:57:57Z</time>
      </trkpt>
      <trkpt lat="46.33204" lon="6.05931">
        <ele>594.48</ele>
        <time>2015-06-28T07:57:59Z</time>
      </trkpt>
      <trkpt lat="46.33207" lon="6.05936">
        <ele>594.6</ele>
        <time>2015-06-28T07:58:00Z</time>
      </trkpt>
      <trkpt lat="46.33211" lon="6.0594">
        <ele>594.66</ele>
        <time>2015-06-28T07:58:01Z</time>
      </trkpt>
      <trkpt lat="46.33215" lon="6.05944">
        <ele>594.69</ele>
        <time>2015-06-28T07:58:02Z</time>
      </trkpt>
      <trkpt lat="46.3322" lon="6.05948">
        <ele>594.76</ele>
        <time>2015-06-28T07:58:03Z</time>
      </trkpt>
      <trkpt lat="46.33241" lon="6.05965">
        <ele>595.32</ele>
        <time>2015-06-28T07:58:08Z</time>
      </trkpt>
      <trkpt lat="46.33301" lon="6.05987">
        <ele>597.81</ele>
        <time>2015-06-28T07:58:23Z</time>
      </trkpt>
      <trkpt lat="46.33344" lon="6.05989">
        <ele>600.97</ele>
        <time>2015-06-28T07:58:37Z</time>
      </trkpt>
      <trkpt lat="46.33378" lon="6.05987">
        <ele>604.22</ele>
        <time>2015-06-28T07:58:49Z</time>
      </trkpt>
      <trkpt lat="46.33413" lon="6.06025">
        <ele>605.13</ele>
        <time>2015-06-28T07:59:01Z</time>
      </trkpt>
      <trkpt lat="46.33436" lon="6.06122">
        <ele>601.59</ele>
        <time>2015-06-28T07:59:11Z</time>
      </trkpt>
      <trkpt lat="46.33451" lon="6.06165">
        <ele>599.97</ele>
        <time>2015-06-28T07:59:15Z</time>
      </trkpt>
      <trkpt lat="46.33463" lon="6.06182">
        <ele>599.56</ele>
        <time>2015-06-28T07:59:17Z</time>
      </trkpt>
      <trkpt lat="46.33469" lon="6.0619">
        <ele>599.32</ele>
        <time>2015-06-28T07:59:18Z</time>
      </trkpt>
      <trkpt lat="46.3355" lon="6.06276">
        <ele>597.43</ele>
        <time>2015-06-28T07:59:31Z</time>
      </trkpt>
      <trkpt lat="46.33555" lon="6.06282">
        <ele>597.34</ele>
        <time>2015-06-28T07:59:32Z</time>
      </trkpt>
      <trkpt lat="46.33577" lon="6.06305">
        <ele>597.21</ele>
        <time>2015-06-28T07:59:36Z</time>
      </trkpt>
      <trkpt lat="46.33611" lon="6.06333">
        <ele>596.42</ele>
        <time>2015-06-28T07:59:42Z</time>
      </trkpt>
      <trkpt lat="46.33617" lon="6.06336">
        <ele>596.36</ele>
        <time>2015-06-28T07:59:43Z</time>
      </trkpt>
      <trkpt lat="46.33622" lon="6.06338">
        <ele>596.32</ele>
        <time>2015-06-28T07:59:44Z</time>
      </trkpt>
      <trkpt lat="46.33628" lon="6.0634">
        <ele>596.38</ele>
        <time>2015-06-28T07:59:45Z</time>
      </trkpt>
      <trkpt lat="46.33634" lon="6.06341">
        <ele>596.4</ele>
        <time>2015-06-28T07:59:46Z</time>
      </trkpt>
      <trkpt lat="46.3364" lon="6.06342">
        <ele>596.41</ele>
        <time>2015-06-28T07:59:47Z</time>
      </trkpt>
      <trkpt lat="46.33646" lon="6.06343">
        <ele>596.29</ele>
        <time>2015-06-28T07:59:48Z</time>
      </trkpt>
      <trkpt lat="46.33724" lon="6.06366">
        <ele>596.19</ele>
        <time>2015-06-28T08:00:01Z</time>
      </trkpt>
      <trkpt lat="46.33728" lon="6.06372">
        <ele>596.2</ele>
        <time>2015-06-28T08:00:02Z</time>
      </trkpt>
      <trkpt lat="46.33742" lon="6.06402">
        <ele>596.38</ele>
        <time>2015-06-28T08:00:06Z</time>
      </trkpt>
      <trkpt lat="46.33758" lon="6.06446">
        <ele>597.04</ele>
        <time>2015-06-28T08:00:12Z</time>
      </trkpt>
      <trkpt lat="46.33763" lon="6.06471">
        <ele>596.96</ele>
        <time>2015-06-28T08:00:15Z</time>
      </trkpt>
      <trkpt lat="46.33761" lon="6.06489">
        <ele>596.73</ele>
        <time>2015-06-28T08:00:17Z</time>
      </trkpt>
      <trkpt lat="46.33758" lon="6.06516">
        <ele>596.55</ele>
        <time>2015-06-28T08:00:20Z</time>
      </trkpt>
      <trkpt lat="46.33757" lon="6.06525">
        <ele>596.4</ele>
        <time>2015-06-28T08:00:21Z</time>
      </trkpt>
      <trkpt lat="46.33758" lon="6.06534">
        <ele>596.33</ele>
        <time>2015-06-28T08:00:22Z</time>
      </trkpt>
      <trkpt lat="46.3376" lon="6.06543">
        <ele>596.44</ele>
        <time>2015-06-28T08:00:23Z</time>
      </trkpt>
      <trkpt lat="46.33762" lon="6.06552">
        <ele>596.5</ele>
        <time>2015-06-28T08:00:24Z</time>
      </trkpt>
      <trkpt lat="46.33763" lon="6.06561">
        <ele>596.52</ele>
        <time>2015-06-28T08:00:25Z</time>
      </trkpt>
      <trkpt lat="46.33776" lon="6.06603">
        <ele>595.92</ele>
        <time>2015-06-28T08:00:30Z</time>
      </trkpt>
      <trkpt lat="46.33822" lon="6.06737">
        <ele>596.91</ele>
        <time>2015-06-28T08:00:47Z</time>
      </trkpt>
      <trkpt lat="46.33842" lon="6.06795">
        <ele>597.9</ele>
        <time>2015-06-28T08:00:55Z</time>
      </trkpt>
      <trkpt lat="46.33844" lon="6.06802">
        <ele>598.18</ele>
        <time>2015-06-28T08:00:56Z</time>
      </trkpt>
      <trkpt lat="46.33846" lon="6.06809">
        <ele>598.45</ele>
        <time>2015-06-28T08:00:57Z</time>
      </trkpt>
      <trkpt lat="46.33848" lon="6.06816">
        <ele>598.78</ele>
        <time>2015-06-28T08:00:58Z</time>
      </trkpt>
      <trkpt lat="46.3385" lon="6.06823">
        <ele>599.05</ele>
        <time>2015-06-28T08:00:59Z</time>
      </trkpt>
      <trkpt lat="46.3389" lon="6.06962">
        <ele>599.66</ele>
        <time>2015-06-28T08:01:18Z</time>
      </trkpt>
      <trkpt lat="46.33936" lon="6.07105">
        <ele>599.73</ele>
        <time>2015-06-28T08:01:37Z</time>
      </trkpt>
      <trkpt lat="46.33982" lon="6.07232">
        <ele>600.54</ele>
        <time>2015-06-28T08:01:55Z</time>
      </trkpt>
      <trkpt lat="46.34033" lon="6.07322">
        <ele>600.48</ele>
        <time>2015-06-28T08:02:10Z</time>
      </trkpt>
      <trkpt lat="46.34041" lon="6.07335">
        <ele>600.53</ele>
        <time>2015-06-28T08:02:12Z</time>
      </trkpt>
      <trkpt lat="46.34087" lon="6.07406">
        <ele>600.33</ele>
        <time>2015-06-28T08:02:24Z</time>
      </trkpt>
      <trkpt lat="46.34149" lon="6.07502">
        <ele>600.27</ele>
        <time>2015-06-28T08:02:41Z</time>
      </trkpt>
      <trkpt lat="46.34194" lon="6.07573">
        <ele>600.16</ele>
        <time>2015-06-28T08:02:53Z</time>
      </trkpt>
      <trkpt lat="46.34204" lon="6.07591">
        <ele>600.24</ele>
        <time>2015-06-28T08:02:56Z</time>
      </trkpt>
      <trkpt lat="46.34219" lon="6.0765">
        <ele>601.01</ele>
        <time>2015-06-28T08:03:04Z</time>
      </trkpt>
      <trkpt lat="46.3422" lon="6.07657">
        <ele>601.11</ele>
        <time>2015-06-28T08:03:05Z</time>
      </trkpt>
      <trkpt lat="46.34241" lon="6.07767">
        <ele>604</ele>
        <time>2015-06-28T08:03:22Z</time>
      </trkpt>
      <trkpt lat="46.34278" lon="6.07865">
        <ele>607</ele>
        <time>2015-06-28T08:03:41Z</time>
      </trkpt>
      <trkpt lat="46.34313" lon="6.07948">
        <ele>608.2</ele>
        <time>2015-06-28T08:03:57Z</time>
      </trkpt>
      <trkpt lat="46.34315" lon="6.07953">
        <ele>608.36</ele>
        <time>2015-06-28T08:03:58Z</time>
      </trkpt>
      <trkpt lat="46.34337" lon="6.08004">
        <ele>610.66</ele>
        <time>2015-06-28T08:04:08Z</time>
      </trkpt>
      <trkpt lat="46.34364" lon="6.08055">
        <ele>613.83</ele>
        <time>2015-06-28T08:04:20Z</time>
      </trkpt>
      <trkpt lat="46.34395" lon="6.08118">
        <ele>616.64</ele>
        <time>2015-06-28T08:04:36Z</time>
      </trkpt>
      <trkpt lat="46.34409" lon="6.08202">
        <ele>619.34</ele>
        <time>2015-06-28T08:04:52Z</time>
      </trkpt>
      <trkpt lat="46.34415" lon="6.08236">
        <ele>620.17</ele>
        <time>2015-06-28T08:04:58Z</time>
      </trkpt>
      <trkpt lat="46.34416" lon="6.08242">
        <ele>620.34</ele>
        <time>2015-06-28T08:04:59Z</time>
      </trkpt>
      <trkpt lat="46.34417" lon="6.08253">
        <ele>620.51</ele>
        <time>2015-06-28T08:05:01Z</time>
      </trkpt>
      <trkpt lat="46.34419" lon="6.08271">
        <ele>620.46</ele>
        <time>2015-06-28T08:05:04Z</time>
      </trkpt>
      <trkpt lat="46.34419" lon="6.08277">
        <ele>620.42</ele>
        <time>2015-06-28T08:05:05Z</time>
      </trkpt>
      <trkpt lat="46.34419" lon="6.08283">
        <ele>620.4</ele>
        <time>2015-06-28T08:05:06Z</time>
      </trkpt>
      <trkpt lat="46.34419" lon="6.08294">
        <ele>620.43</ele>
        <time>2015-06-28T08:05:08Z</time>
      </trkpt>
      <trkpt lat="46.34419" lon="6.08312">
        <ele>620.78</ele>
        <time>2015-06-28T08:05:11Z</time>
      </trkpt>
      <trkpt lat="46.34419" lon="6.08319">
        <ele>621.06</ele>
        <time>2015-06-28T08:05:12Z</time>
      </trkpt>
      <trkpt lat="46.34415" lon="6.08413">
        <ele>622.13</ele>
        <time>2015-06-28T08:05:26Z</time>
      </trkpt>
      <trkpt lat="46.34421" lon="6.08499">
        <ele>623.67</ele>
        <time>2015-06-28T08:05:39Z</time>
      </trkpt>
      <trkpt lat="46.34441" lon="6.08572">
        <ele>626.1</ele>
        <time>2015-06-28T08:05:51Z</time>
      </trkpt>
      <trkpt lat="46.34448" lon="6.08588">
        <ele>627.36</ele>
        <time>2015-06-28T08:05:54Z</time>
      </trkpt>
      <trkpt lat="46.34451" lon="6.08594">
        <ele>627.75</ele>
        <time>2015-06-28T08:05:55Z</time>
      </trkpt>
      <trkpt lat="46.34454" lon="6.08598">
        <ele>627.97</ele>
        <time>2015-06-28T08:05:56Z</time>
      </trkpt>
      <trkpt lat="46.34458" lon="6.08602">
        <ele>628.08</ele>
        <time>2015-06-28T08:05:57Z</time>
      </trkpt>
      <trkpt lat="46.34461" lon="6.08606">
        <ele>628.17</ele>
        <time>2015-06-28T08:05:58Z</time>
      </trkpt>
      <trkpt lat="46.34464" lon="6.0861">
        <ele>628.29</ele>
        <time>2015-06-28T08:05:59Z</time>
      </trkpt>
      <trkpt lat="46.34468" lon="6.08612">
        <ele>628.47</ele>
        <time>2015-06-28T08:06:00Z</time>
      </trkpt>
      <trkpt lat="46.34484" lon="6.08621">
        <ele>629.26</ele>
        <time>2015-06-28T08:06:04Z</time>
      </trkpt>
      <trkpt lat="46.34488" lon="6.08623">
        <ele>629.59</ele>
        <time>2015-06-28T08:06:05Z</time>
      </trkpt>
      <trkpt lat="46.34501" lon="6.08627">
        <ele>630.2</ele>
        <time>2015-06-28T08:06:08Z</time>
      </trkpt>
      <trkpt lat="46.34554" lon="6.08651">
        <ele>633.58</ele>
        <time>2015-06-28T08:06:22Z</time>
      </trkpt>
      <trkpt lat="46.34565" lon="6.08666">
        <ele>634.44</ele>
        <time>2015-06-28T08:06:26Z</time>
      </trkpt>
      <trkpt lat="46.34608" lon="6.08704">
        <ele>637.72</ele>
        <time>2015-06-28T08:06:40Z</time>
      </trkpt>
      <trkpt lat="46.34672" lon="6.08697">
        <ele>640.66</ele>
        <time>2015-06-28T08:06:58Z</time>
      </trkpt>
      <trkpt lat="46.34737" lon="6.08691">
        <ele>643.86</ele>
        <time>2015-06-28T08:07:16Z</time>
      </trkpt>
      <trkpt lat="46.34756" lon="6.08676">
        <ele>645.56</ele>
        <time>2015-06-28T08:07:22Z</time>
      </trkpt>
      <trkpt lat="46.34761" lon="6.08669">
        <ele>645.64</ele>
        <time>2015-06-28T08:07:24Z</time>
      </trkpt>
      <trkpt lat="46.34764" lon="6.08666">
        <ele>645.72</ele>
        <time>2015-06-28T08:07:25Z</time>
      </trkpt>
      <trkpt lat="46.34766" lon="6.08662">
        <ele>645.79</ele>
        <time>2015-06-28T08:07:26Z</time>
      </trkpt>
      <trkpt lat="46.34769" lon="6.08659">
        <ele>645.93</ele>
        <time>2015-06-28T08:07:27Z</time>
      </trkpt>
      <trkpt lat="46.34772" lon="6.08656">
        <ele>646.14</ele>
        <time>2015-06-28T08:07:28Z</time>
      </trkpt>
      <trkpt lat="46.34775" lon="6.08653">
        <ele>646.36</ele>
        <time>2015-06-28T08:07:29Z</time>
      </trkpt>
      <trkpt lat="46.34778" lon="6.08651">
        <ele>646.62</ele>
        <time>2015-06-28T08:07:30Z</time>
      </trkpt>
      <trkpt lat="46.34781" lon="6.08648">
        <ele>646.95</ele>
        <time>2015-06-28T08:07:31Z</time>
      </trkpt>
      <trkpt lat="46.34784" lon="6.08646">
        <ele>647.11</ele>
        <time>2015-06-28T08:07:32Z</time>
      </trkpt>
      <trkpt lat="46.34788" lon="6.08643">
        <ele>647.22</ele>
        <time>2015-06-28T08:07:33Z</time>
      </trkpt>
      <trkpt lat="46.34791" lon="6.08641">
        <ele>647.37</ele>
        <time>2015-06-28T08:07:34Z</time>
      </trkpt>
      <trkpt lat="46.34794" lon="6.08639">
        <ele>647.45</ele>
        <time>2015-06-28T08:07:35Z</time>
      </trkpt>
      <trkpt lat="46.34806" lon="6.08637">
        <ele>647.99</ele>
        <time>2015-06-28T08:07:40Z</time>
      </trkpt>
      <trkpt lat="46.34807" lon="6.08639">
        <ele>648.01</ele>
        <time>2015-06-28T08:07:41Z</time>
      </trkpt>
      <trkpt lat="46.3481" lon="6.08643">
        <ele>648.28</ele>
        <time>2015-06-28T08:07:53Z</time>
      </trkpt>
      <trkpt lat="46.3481" lon="6.08645">
        <ele>648.22</ele>
        <time>2015-06-28T08:08:25Z</time>
      </trkpt>
      <trkpt lat="46.34812" lon="6.08646">
        <ele>647.8</ele>
        <time>2015-06-28T08:08:32Z</time>
      </trkpt>
      <trkpt lat="46.34813" lon="6.08648">
        <ele>647.82</ele>
        <time>2015-06-28T08:08:33Z</time>
      </trkpt>
      <trkpt lat="46.34814" lon="6.08654">
        <ele>647.72</ele>
        <time>2015-06-28T08:08:35Z</time>
      </trkpt>
      <trkpt lat="46.34814" lon="6.08658">
        <ele>647.67</ele>
        <time>2015-06-28T08:08:36Z</time>
      </trkpt>
      <trkpt lat="46.34814" lon="6.08662">
        <ele>647.57</ele>
        <time>2015-06-28T08:08:37Z</time>
      </trkpt>
      <trkpt lat="46.34814" lon="6.08667">
        <ele>647.5</ele>
        <time>2015-06-28T08:08:38Z</time>
      </trkpt>
      <trkpt lat="46.34793" lon="6.0873">
        <ele>648.11</ele>
        <time>2015-06-28T08:08:51Z</time>
      </trkpt>
      <trkpt lat="46.34787" lon="6.08744">
        <ele>648.23</ele>
        <time>2015-06-28T08:08:54Z</time>
      </trkpt>
      <trkpt lat="46.34786" lon="6.08748">
        <ele>648.28</ele>
        <time>2015-06-28T08:08:55Z</time>
      </trkpt>
      <trkpt lat="46.34784" lon="6.08753">
        <ele>648.38</ele>
        <time>2015-06-28T08:08:56Z</time>
      </trkpt>
      <trkpt lat="46.34782" lon="6.08758">
        <ele>648.56</ele>
        <time>2015-06-28T08:08:57Z</time>
      </trkpt>
      <trkpt lat="46.3478" lon="6.08762">
        <ele>648.59</ele>
        <time>2015-06-28T08:08:58Z</time>
      </trkpt>
      <trkpt lat="46.34778" lon="6.08767">
        <ele>648.63</ele>
        <time>2015-06-28T08:08:59Z</time>
      </trkpt>
      <trkpt lat="46.34776" lon="6.08771">
        <ele>648.75</ele>
        <time>2015-06-28T08:09:00Z</time>
      </trkpt>
      <trkpt lat="46.34774" lon="6.08776">
        <ele>648.8</ele>
        <time>2015-06-28T08:09:01Z</time>
      </trkpt>
      <trkpt lat="46.34773" lon="6.08781">
        <ele>649.02</ele>
        <time>2015-06-28T08:09:02Z</time>
      </trkpt>
      <trkpt lat="46.34771" lon="6.08789">
        <ele>649.61</ele>
        <time>2015-06-28T08:09:04Z</time>
      </trkpt>
      <trkpt lat="46.34766" lon="6.08823">
        <ele>651.75</ele>
        <time>2015-06-28T08:09:12Z</time>
      </trkpt>
      <trkpt lat="46.34765" lon="6.08827">
        <ele>651.89</ele>
        <time>2015-06-28T08:09:13Z</time>
      </trkpt>
      <trkpt lat="46.34765" lon="6.0883">
        <ele>652.03</ele>
        <time>2015-06-28T08:09:14Z</time>
      </trkpt>
      <trkpt lat="46.34765" lon="6.08834">
        <ele>652.1</ele>
        <time>2015-06-28T08:09:15Z</time>
      </trkpt>
      <trkpt lat="46.34765" lon="6.08838">
        <ele>652.2</ele>
        <time>2015-06-28T08:09:16Z</time>
      </trkpt>
      <trkpt lat="46.34765" lon="6.08842">
        <ele>652.35</ele>
        <time>2015-06-28T08:09:17Z</time>
      </trkpt>
      <trkpt lat="46.34763" lon="6.08851">
        <ele>652.65</ele>
        <time>2015-06-28T08:09:19Z</time>
      </trkpt>
      <trkpt lat="46.34763" lon="6.08856">
        <ele>652.91</ele>
        <time>2015-06-28T08:09:20Z</time>
      </trkpt>
      <trkpt lat="46.34761" lon="6.08909">
        <ele>655.22</ele>
        <time>2015-06-28T08:09:30Z</time>
      </trkpt>
      <trkpt lat="46.34763" lon="6.08914">
        <ele>655.43</ele>
        <time>2015-06-28T08:09:31Z</time>
      </trkpt>
      <trkpt lat="46.34764" lon="6.08919">
        <ele>655.66</ele>
        <time>2015-06-28T08:09:32Z</time>
      </trkpt>
      <trkpt lat="46.34765" lon="6.08923">
        <ele>655.95</ele>
        <time>2015-06-28T08:09:33Z</time>
      </trkpt>
      <trkpt lat="46.34766" lon="6.08928">
        <ele>655.95</ele>
        <time>2015-06-28T08:09:34Z</time>
      </trkpt>
      <trkpt lat="46.34767" lon="6.08933">
        <ele>655.98</ele>
        <time>2015-06-28T08:09:35Z</time>
      </trkpt>
      <trkpt lat="46.34768" lon="6.08937">
        <ele>655.97</ele>
        <time>2015-06-28T08:09:36Z</time>
      </trkpt>
      <trkpt lat="46.34769" lon="6.08942">
        <ele>655.97</ele>
        <time>2015-06-28T08:09:37Z</time>
      </trkpt>
      <trkpt lat="46.34771" lon="6.08947">
        <ele>655.97</ele>
        <time>2015-06-28T08:09:38Z</time>
      </trkpt>
      <trkpt lat="46.34771" lon="6.08952">
        <ele>656.05</ele>
        <time>2015-06-28T08:09:39Z</time>
      </trkpt>
      <trkpt lat="46.34772" lon="6.08957">
        <ele>656.1</ele>
        <time>2015-06-28T08:09:40Z</time>
      </trkpt>
      <trkpt lat="46.34801" lon="6.09035">
        <ele>658.2</ele>
        <time>2015-06-28T08:09:57Z</time>
      </trkpt>
      <trkpt lat="46.34828" lon="6.09067">
        <ele>660.22</ele>
        <time>2015-06-28T08:10:08Z</time>
      </trkpt>
      <trkpt lat="46.3483" lon="6.09069">
        <ele>660.37</ele>
        <time>2015-06-28T08:10:09Z</time>
      </trkpt>
      <trkpt lat="46.34832" lon="6.09076">
        <ele>660.8</ele>
        <time>2015-06-28T08:10:11Z</time>
      </trkpt>
      <trkpt lat="46.34832" lon="6.0908">
        <ele>661.15</ele>
        <time>2015-06-28T08:10:12Z</time>
      </trkpt>
      <trkpt lat="46.34833" lon="6.09084">
        <ele>661.49</ele>
        <time>2015-06-28T08:10:13Z</time>
      </trkpt>
      <trkpt lat="46.34833" lon="6.09089">
        <ele>661.68</ele>
        <time>2015-06-28T08:10:14Z</time>
      </trkpt>
      <trkpt lat="46.34833" lon="6.09092">
        <ele>661.77</ele>
        <time>2015-06-28T08:10:15Z</time>
      </trkpt>
      <trkpt lat="46.34834" lon="6.09096">
        <ele>661.82</ele>
        <time>2015-06-28T08:10:16Z</time>
      </trkpt>
      <trkpt lat="46.34834" lon="6.091">
        <ele>661.84</ele>
        <time>2015-06-28T08:10:17Z</time>
      </trkpt>
      <trkpt lat="46.34835" lon="6.09103">
        <ele>661.85</ele>
        <time>2015-06-28T08:10:18Z</time>
      </trkpt>
      <trkpt lat="46.34835" lon="6.09106">
        <ele>661.85</ele>
        <time>2015-06-28T08:10:19Z</time>
      </trkpt>
      <trkpt lat="46.34836" lon="6.09109">
        <ele>661.85</ele>
        <time>2015-06-28T08:10:20Z</time>
      </trkpt>
      <trkpt lat="46.34836" lon="6.09113">
        <ele>661.91</ele>
        <time>2015-06-28T08:10:21Z</time>
      </trkpt>
      <trkpt lat="46.34837" lon="6.09116">
        <ele>661.93</ele>
        <time>2015-06-28T08:10:22Z</time>
      </trkpt>
      <trkpt lat="46.34837" lon="6.09122">
        <ele>662.01</ele>
        <time>2015-06-28T08:10:24Z</time>
      </trkpt>
      <trkpt lat="46.34838" lon="6.09126">
        <ele>662.04</ele>
        <time>2015-06-28T08:10:25Z</time>
      </trkpt>
      <trkpt lat="46.34838" lon="6.0913">
        <ele>662.13</ele>
        <time>2015-06-28T08:10:26Z</time>
      </trkpt>
      <trkpt lat="46.34838" lon="6.09135">
        <ele>662.1</ele>
        <time>2015-06-28T08:10:27Z</time>
      </trkpt>
      <trkpt lat="46.34839" lon="6.0914">
        <ele>662.16</ele>
        <time>2015-06-28T08:10:28Z</time>
      </trkpt>
      <trkpt lat="46.34839" lon="6.09145">
        <ele>662.16</ele>
        <time>2015-06-28T08:10:29Z</time>
      </trkpt>
      <trkpt lat="46.3484" lon="6.0915">
        <ele>662.21</ele>
        <time>2015-06-28T08:10:30Z</time>
      </trkpt>
      <trkpt lat="46.3484" lon="6.09156">
        <ele>662.31</ele>
        <time>2015-06-28T08:10:31Z</time>
      </trkpt>
      <trkpt lat="46.34846" lon="6.09191">
        <ele>662.69</ele>
        <time>2015-06-28T08:10:37Z</time>
      </trkpt>
      <trkpt lat="46.34848" lon="6.09204">
        <ele>662.65</ele>
        <time>2015-06-28T08:10:39Z</time>
      </trkpt>
      <trkpt lat="46.34849" lon="6.0921">
        <ele>662.72</ele>
        <time>2015-06-28T08:10:40Z</time>
      </trkpt>
      <trkpt lat="46.3485" lon="6.09217">
        <ele>662.74</ele>
        <time>2015-06-28T08:10:41Z</time>
      </trkpt>
      <trkpt lat="46.34852" lon="6.09223">
        <ele>662.89</ele>
        <time>2015-06-28T08:10:42Z</time>
      </trkpt>
      <trkpt lat="46.34862" lon="6.09271">
        <ele>663.36</ele>
        <time>2015-06-28T08:10:50Z</time>
      </trkpt>
      <trkpt lat="46.34864" lon="6.09277">
        <ele>663.49</ele>
        <time>2015-06-28T08:10:51Z</time>
      </trkpt>
      <trkpt lat="46.34865" lon="6.09282">
        <ele>663.65</ele>
        <time>2015-06-28T08:10:52Z</time>
      </trkpt>
      <trkpt lat="46.34875" lon="6.09315">
        <ele>664.34</ele>
        <time>2015-06-28T08:10:58Z</time>
      </trkpt>
      <trkpt lat="46.34877" lon="6.09321">
        <ele>664.47</ele>
        <time>2015-06-28T08:10:59Z</time>
      </trkpt>
      <trkpt lat="46.34892" lon="6.09401">
        <ele>667.06</ele>
        <time>2015-06-28T08:11:14Z</time>
      </trkpt>
      <trkpt lat="46.34893" lon="6.09455">
        <ele>668.28</ele>
        <time>2015-06-28T08:11:24Z</time>
      </trkpt>
      <trkpt lat="46.34893" lon="6.09462">
        <ele>668.32</ele>
        <time>2015-06-28T08:11:25Z</time>
      </trkpt>
      <trkpt lat="46.34893" lon="6.09512">
        <ele>667.9</ele>
        <time>2015-06-28T08:11:33Z</time>
      </trkpt>
      <trkpt lat="46.34896" lon="6.09564">
        <ele>668.26</ele>
        <time>2015-06-28T08:11:42Z</time>
      </trkpt>
      <trkpt lat="46.34896" lon="6.0957">
        <ele>668.27</ele>
        <time>2015-06-28T08:11:43Z</time>
      </trkpt>
      <trkpt lat="46.34903" lon="6.0965">
        <ele>666.52</ele>
        <time>2015-06-28T08:11:55Z</time>
      </trkpt>
      <trkpt lat="46.34904" lon="6.09657">
        <ele>666.5</ele>
        <time>2015-06-28T08:11:56Z</time>
      </trkpt>
      <trkpt lat="46.34926" lon="6.0979">
        <ele>664.88</ele>
        <time>2015-06-28T08:12:12Z</time>
      </trkpt>
      <trkpt lat="46.34947" lon="6.0985">
        <ele>662.08</ele>
        <time>2015-06-28T08:12:18Z</time>
      </trkpt>
      <trkpt lat="46.34952" lon="6.0986">
        <ele>661.78</ele>
        <time>2015-06-28T08:12:19Z</time>
      </trkpt>
      <trkpt lat="46.34974" lon="6.0992">
        <ele>661.34</ele>
        <time>2015-06-28T08:12:26Z</time>
      </trkpt>
      <trkpt lat="46.35001" lon="6.09975">
        <ele>659.86</ele>
        <time>2015-06-28T08:12:33Z</time>
      </trkpt>
      <trkpt lat="46.35079" lon="6.10062">
        <ele>657.68</ele>
        <time>2015-06-28T08:12:48Z</time>
      </trkpt>
      <trkpt lat="46.35166" lon="6.10154">
        <ele>655.2</ele>
        <time>2015-06-28T08:13:04Z</time>
      </trkpt>
      <trkpt lat="46.35172" lon="6.1016">
        <ele>655.01</ele>
        <time>2015-06-28T08:13:05Z</time>
      </trkpt>
      <trkpt lat="46.35178" lon="6.10167">
        <ele>654.86</ele>
        <time>2015-06-28T08:13:06Z</time>
      </trkpt>
      <trkpt lat="46.35216" lon="6.10213">
        <ele>652.22</ele>
        <time>2015-06-28T08:13:12Z</time>
      </trkpt>
      <trkpt lat="46.35268" lon="6.10271">
        <ele>648.84</ele>
        <time>2015-06-28T08:13:19Z</time>
      </trkpt>
      <trkpt lat="46.35276" lon="6.10279">
        <ele>648.48</ele>
        <time>2015-06-28T08:13:20Z</time>
      </trkpt>
      <trkpt lat="46.35284" lon="6.10286">
        <ele>648.12</ele>
        <time>2015-06-28T08:13:21Z</time>
      </trkpt>
      <trkpt lat="46.35351" lon="6.10349">
        <ele>645.04</ele>
        <time>2015-06-28T08:13:30Z</time>
      </trkpt>
      <trkpt lat="46.3542" lon="6.10438">
        <ele>643.44</ele>
        <time>2015-06-28T08:13:41Z</time>
      </trkpt>
      <trkpt lat="46.35465" lon="6.10498">
        <ele>643.63</ele>
        <time>2015-06-28T08:13:49Z</time>
      </trkpt>
      <trkpt lat="46.35471" lon="6.10505">
        <ele>643.55</ele>
        <time>2015-06-28T08:13:50Z</time>
      </trkpt>
      <trkpt lat="46.35491" lon="6.10523">
        <ele>642.88</ele>
        <time>2015-06-28T08:13:53Z</time>
      </trkpt>
      <trkpt lat="46.35497" lon="6.1053">
        <ele>642.72</ele>
        <time>2015-06-28T08:13:54Z</time>
      </trkpt>
      <trkpt lat="46.35517" lon="6.10561">
        <ele>642.01</ele>
        <time>2015-06-28T08:13:58Z</time>
      </trkpt>
      <trkpt lat="46.35522" lon="6.1057">
        <ele>641.9</ele>
        <time>2015-06-28T08:13:59Z</time>
      </trkpt>
      <trkpt lat="46.35533" lon="6.10587">
        <ele>641.57</ele>
        <time>2015-06-28T08:14:01Z</time>
      </trkpt>
      <trkpt lat="46.35549" lon="6.10603">
        <ele>640.99</ele>
        <time>2015-06-28T08:14:03Z</time>
      </trkpt>
      <trkpt lat="46.35593" lon="6.10648">
        <ele>637.46</ele>
        <time>2015-06-28T08:14:08Z</time>
      </trkpt>
      <trkpt lat="46.35631" lon="6.10688">
        <ele>633.95</ele>
        <time>2015-06-28T08:14:13Z</time>
      </trkpt>
      <trkpt lat="46.35638" lon="6.10696">
        <ele>633.44</ele>
        <time>2015-06-28T08:14:14Z</time>
      </trkpt>
      <trkpt lat="46.35663" lon="6.10726">
        <ele>631.08</ele>
        <time>2015-06-28T08:14:18Z</time>
      </trkpt>
      <trkpt lat="46.35676" lon="6.10742">
        <ele>630.61</ele>
        <time>2015-06-28T08:14:20Z</time>
      </trkpt>
      <trkpt lat="46.35708" lon="6.10777">
        <ele>627.18</ele>
        <time>2015-06-28T08:14:25Z</time>
      </trkpt>
      <trkpt lat="46.35722" lon="6.10795">
        <ele>626.09</ele>
        <time>2015-06-28T08:14:27Z</time>
      </trkpt>
      <trkpt lat="46.35741" lon="6.10825">
        <ele>622.79</ele>
        <time>2015-06-28T08:14:30Z</time>
      </trkpt>
      <trkpt lat="46.35762" lon="6.10855">
        <ele>619.62</ele>
        <time>2015-06-28T08:14:33Z</time>
      </trkpt>
      <trkpt lat="46.35775" lon="6.10874">
        <ele>616.31</ele>
        <time>2015-06-28T08:14:35Z</time>
      </trkpt>
      <trkpt lat="46.35793" lon="6.10905">
        <ele>613.58</ele>
        <time>2015-06-28T08:14:38Z</time>
      </trkpt>
      <trkpt lat="46.35797" lon="6.10916">
        <ele>612.87</ele>
        <time>2015-06-28T08:14:39Z</time>
      </trkpt>
      <trkpt lat="46.35811" lon="6.10961">
        <ele>609.46</ele>
        <time>2015-06-28T08:14:43Z</time>
      </trkpt>
      <trkpt lat="46.35829" lon="6.10998">
        <ele>606.76</ele>
        <time>2015-06-28T08:14:47Z</time>
      </trkpt>
      <trkpt lat="46.35849" lon="6.11016">
        <ele>605.31</ele>
        <time>2015-06-28T08:14:50Z</time>
      </trkpt>
      <trkpt lat="46.35902" lon="6.11063">
        <ele>601.99</ele>
        <time>2015-06-28T08:14:57Z</time>
      </trkpt>
      <trkpt lat="46.35951" lon="6.11099">
        <ele>598.14</ele>
        <time>2015-06-28T08:15:03Z</time>
      </trkpt>
      <trkpt lat="46.35978" lon="6.1111">
        <ele>594.31</ele>
        <time>2015-06-28T08:15:06Z</time>
      </trkpt>
      <trkpt lat="46.3601" lon="6.11125">
        <ele>590.71</ele>
        <time>2015-06-28T08:15:10Z</time>
      </trkpt>
      <trkpt lat="46.36037" lon="6.11148">
        <ele>587.46</ele>
        <time>2015-06-28T08:15:14Z</time>
      </trkpt>
      <trkpt lat="46.3605" lon="6.1116">
        <ele>586.57</ele>
        <time>2015-06-28T08:15:16Z</time>
      </trkpt>
      <trkpt lat="46.36091" lon="6.11187">
        <ele>582.98</ele>
        <time>2015-06-28T08:15:21Z</time>
      </trkpt>
      <trkpt lat="46.36107" lon="6.11195">
        <ele>579.74</ele>
        <time>2015-06-28T08:15:23Z</time>
      </trkpt>
      <trkpt lat="46.36122" lon="6.11205">
        <ele>579.74</ele>
        <time>2015-06-28T08:15:25Z</time>
      </trkpt>
      <trkpt lat="46.36161" lon="6.11239">
        <ele>576.35</ele>
        <time>2015-06-28T08:15:31Z</time>
      </trkpt>
      <trkpt lat="46.36185" lon="6.1126">
        <ele>572.94</ele>
        <time>2015-06-28T08:15:35Z</time>
      </trkpt>
      <trkpt lat="46.36202" lon="6.11272">
        <ele>570.38</ele>
        <time>2015-06-28T08:15:38Z</time>
      </trkpt>
      <trkpt lat="46.36207" lon="6.11272">
        <ele>570.01</ele>
        <time>2015-06-28T08:15:39Z</time>
      </trkpt>
      <trkpt lat="46.36213" lon="6.11271">
        <ele>569.46</ele>
        <time>2015-06-28T08:15:40Z</time>
      </trkpt>
      <trkpt lat="46.36219" lon="6.11269">
        <ele>568.92</ele>
        <time>2015-06-28T08:15:41Z</time>
      </trkpt>
      <trkpt lat="46.36232" lon="6.11264">
        <ele>567.78</ele>
        <time>2015-06-28T08:15:44Z</time>
      </trkpt>
      <trkpt lat="46.36236" lon="6.11262">
        <ele>567.53</ele>
        <time>2015-06-28T08:15:45Z</time>
      </trkpt>
      <trkpt lat="46.36257" lon="6.11251">
        <ele>565.89</ele>
        <time>2015-06-28T08:15:49Z</time>
      </trkpt>
      <trkpt lat="46.36262" lon="6.11247">
        <ele>565.46</ele>
        <time>2015-06-28T08:15:50Z</time>
      </trkpt>
      <trkpt lat="46.36268" lon="6.11244">
        <ele>565.26</ele>
        <time>2015-06-28T08:15:51Z</time>
      </trkpt>
      <trkpt lat="46.36293" lon="6.11233">
        <ele>565.23</ele>
        <time>2015-06-28T08:15:55Z</time>
      </trkpt>
      <trkpt lat="46.36299" lon="6.11233">
        <ele>565.41</ele>
        <time>2015-06-28T08:15:56Z</time>
      </trkpt>
      <trkpt lat="46.36304" lon="6.11235">
        <ele>565.53</ele>
        <time>2015-06-28T08:15:57Z</time>
      </trkpt>
      <trkpt lat="46.36357" lon="6.11253">
        <ele>568.8</ele>
        <time>2015-06-28T08:16:10Z</time>
      </trkpt>
      <trkpt lat="46.36361" lon="6.11254">
        <ele>569.25</ele>
        <time>2015-06-28T08:16:11Z</time>
      </trkpt>
      <trkpt lat="46.3637" lon="6.11253">
        <ele>569.35</ele>
        <time>2015-06-28T08:16:13Z</time>
      </trkpt>
      <trkpt lat="46.36379" lon="6.11251">
        <ele>569.37</ele>
        <time>2015-06-28T08:16:15Z</time>
      </trkpt>
      <trkpt lat="46.36387" lon="6.1125">
        <ele>569.2</ele>
        <time>2015-06-28T08:16:17Z</time>
      </trkpt>
      <trkpt lat="46.36391" lon="6.11249">
        <ele>569.16</ele>
        <time>2015-06-28T08:16:18Z</time>
      </trkpt>
      <trkpt lat="46.36417" lon="6.11245">
        <ele>569.17</ele>
        <time>2015-06-28T08:16:23Z</time>
      </trkpt>
      <trkpt lat="46.36427" lon="6.11242">
        <ele>568.93</ele>
        <time>2015-06-28T08:16:25Z</time>
      </trkpt>
      <trkpt lat="46.36453" lon="6.11225">
        <ele>568.73</ele>
        <time>2015-06-28T08:16:30Z</time>
      </trkpt>
      <trkpt lat="46.36459" lon="6.11221">
        <ele>568.68</ele>
        <time>2015-06-28T08:16:31Z</time>
      </trkpt>
      <trkpt lat="46.36465" lon="6.11216">
        <ele>568.68</ele>
        <time>2015-06-28T08:16:32Z</time>
      </trkpt>
      <trkpt lat="46.3647" lon="6.11212">
        <ele>568.53</ele>
        <time>2015-06-28T08:16:33Z</time>
      </trkpt>
      <trkpt lat="46.36476" lon="6.11209">
        <ele>568.46</ele>
        <time>2015-06-28T08:16:34Z</time>
      </trkpt>
      <trkpt lat="46.36493" lon="6.11199">
        <ele>568.08</ele>
        <time>2015-06-28T08:16:37Z</time>
      </trkpt>
      <trkpt lat="46.365" lon="6.11197">
        <ele>567.97</ele>
        <time>2015-06-28T08:16:38Z</time>
      </trkpt>
      <trkpt lat="46.36506" lon="6.11197">
        <ele>567.92</ele>
        <time>2015-06-28T08:16:39Z</time>
      </trkpt>
      <trkpt lat="46.36512" lon="6.11198">
        <ele>567.95</ele>
        <time>2015-06-28T08:16:40Z</time>
      </trkpt>
      <trkpt lat="46.36518" lon="6.11198">
        <ele>567.97</ele>
        <time>2015-06-28T08:16:41Z</time>
      </trkpt>
      <trkpt lat="46.36562" lon="6.11205">
        <ele>568.93</ele>
        <time>2015-06-28T08:16:48Z</time>
      </trkpt>
      <trkpt lat="46.36578" lon="6.11212">
        <ele>569.26</ele>
        <time>2015-06-28T08:16:51Z</time>
      </trkpt>
      <trkpt lat="46.36589" lon="6.11218">
        <ele>569.32</ele>
        <time>2015-06-28T08:16:53Z</time>
      </trkpt>
      <trkpt lat="46.36633" lon="6.11248">
        <ele>569.67</ele>
        <time>2015-06-28T08:17:02Z</time>
      </trkpt>
      <trkpt lat="46.36681" lon="6.11289">
        <ele>571.83</ele>
        <time>2015-06-28T08:17:15Z</time>
      </trkpt>
      <trkpt lat="46.36685" lon="6.11292">
        <ele>572.06</ele>
        <time>2015-06-28T08:17:16Z</time>
      </trkpt>
      <trkpt lat="46.36688" lon="6.11295">
        <ele>572.3</ele>
        <time>2015-06-28T08:17:17Z</time>
      </trkpt>
      <trkpt lat="46.36695" lon="6.11303">
        <ele>572.65</ele>
        <time>2015-06-28T08:17:19Z</time>
      </trkpt>
      <trkpt lat="46.36716" lon="6.11324">
        <ele>573.37</ele>
        <time>2015-06-28T08:17:25Z</time>
      </trkpt>
      <trkpt lat="46.36719" lon="6.11328">
        <ele>573.49</ele>
        <time>2015-06-28T08:17:26Z</time>
      </trkpt>
      <trkpt lat="46.36723" lon="6.11331">
        <ele>573.58</ele>
        <time>2015-06-28T08:17:27Z</time>
      </trkpt>
      <trkpt lat="46.36751" lon="6.11361">
        <ele>574.9</ele>
        <time>2015-06-28T08:17:35Z</time>
      </trkpt>
      <trkpt lat="46.36793" lon="6.11404">
        <ele>575.68</ele>
        <time>2015-06-28T08:17:46Z</time>
      </trkpt>
      <trkpt lat="46.36797" lon="6.11409">
        <ele>575.55</ele>
        <time>2015-06-28T08:17:47Z</time>
      </trkpt>
      <trkpt lat="46.36878" lon="6.115">
        <ele>576.25</ele>
        <time>2015-06-28T08:18:07Z</time>
      </trkpt>
      <trkpt lat="46.36949" lon="6.11591">
        <ele>576.48</ele>
        <time>2015-06-28T08:18:25Z</time>
      </trkpt>
      <trkpt lat="46.36963" lon="6.1161">
        <ele>576.66</ele>
        <time>2015-06-28T08:18:29Z</time>
      </trkpt>
      <trkpt lat="46.36967" lon="6.11614">
        <ele>576.61</ele>
        <time>2015-06-28T08:18:30Z</time>
      </trkpt>
      <trkpt lat="46.36998" lon="6.11645">
        <ele>576.94</ele>
        <time>2015-06-28T08:18:38Z</time>
      </trkpt>
      <trkpt lat="46.37035" lon="6.11679">
        <ele>576.44</ele>
        <time>2015-06-28T08:18:47Z</time>
      </trkpt>
      <trkpt lat="46.37091" lon="6.11735">
        <ele>574.93</ele>
        <time>2015-06-28T08:19:00Z</time>
      </trkpt>
      <trkpt lat="46.37095" lon="6.11739">
        <ele>574.76</ele>
        <time>2015-06-28T08:19:01Z</time>
      </trkpt>
      <trkpt lat="46.371" lon="6.11744">
        <ele>574.6</ele>
        <time>2015-06-28T08:19:02Z</time>
      </trkpt>
      <trkpt lat="46.37113" lon="6.11755">
        <ele>574.22</ele>
        <time>2015-06-28T08:19:05Z</time>
      </trkpt>
      <trkpt lat="46.37183" lon="6.11826">
        <ele>573.27</ele>
        <time>2015-06-28T08:19:20Z</time>
      </trkpt>
      <trkpt lat="46.37232" lon="6.11877">
        <ele>570.09</ele>
        <time>2015-06-28T08:19:28Z</time>
      </trkpt>
      <trkpt lat="46.37291" lon="6.11942">
        <ele>566.38</ele>
        <time>2015-06-28T08:19:36Z</time>
      </trkpt>
      <trkpt lat="46.37341" lon="6.12009">
        <ele>563.08</ele>
        <time>2015-06-28T08:19:43Z</time>
      </trkpt>
      <trkpt lat="46.37404" lon="6.12097">
        <ele>561.11</ele>
        <time>2015-06-28T08:19:53Z</time>
      </trkpt>
      <trkpt lat="46.3741" lon="6.12105">
        <ele>561.1</ele>
        <time>2015-06-28T08:19:54Z</time>
      </trkpt>
      <trkpt lat="46.37445" lon="6.12145">
        <ele>560.6</ele>
        <time>2015-06-28T08:20:00Z</time>
      </trkpt>
      <trkpt lat="46.3747" lon="6.12169">
        <ele>561.37</ele>
        <time>2015-06-28T08:20:06Z</time>
      </trkpt>
      <trkpt lat="46.37475" lon="6.1217">
        <ele>561.41</ele>
        <time>2015-06-28T08:20:07Z</time>
      </trkpt>
      <trkpt lat="46.37479" lon="6.12169">
        <ele>561.49</ele>
        <time>2015-06-28T08:20:08Z</time>
      </trkpt>
      <trkpt lat="46.37483" lon="6.12166">
        <ele>561.61</ele>
        <time>2015-06-28T08:20:09Z</time>
      </trkpt>
      <trkpt lat="46.37487" lon="6.12164">
        <ele>561.82</ele>
        <time>2015-06-28T08:20:10Z</time>
      </trkpt>
      <trkpt lat="46.37495" lon="6.12157">
        <ele>562.65</ele>
        <time>2015-06-28T08:20:14Z</time>
      </trkpt>
      <trkpt lat="46.37495" lon="6.12154">
        <ele>562.83</ele>
        <time>2015-06-28T08:20:15Z</time>
      </trkpt>
      <trkpt lat="46.37494" lon="6.12153">
        <ele>562.93</ele>
        <time>2015-06-28T08:20:16Z</time>
      </trkpt>
      <trkpt lat="46.37492" lon="6.12153">
        <ele>562.99</ele>
        <time>2015-06-28T08:20:17Z</time>
      </trkpt>
      <trkpt lat="46.3749" lon="6.12154">
        <ele>563.05</ele>
        <time>2015-06-28T08:20:18Z</time>
      </trkpt>
      <trkpt lat="46.37489" lon="6.12156">
        <ele>563.07</ele>
        <time>2015-06-28T08:20:19Z</time>
      </trkpt>
      <trkpt lat="46.37486" lon="6.12158">
        <ele>563.06</ele>
        <time>2015-06-28T08:20:20Z</time>
      </trkpt>
      <trkpt lat="46.37484" lon="6.12159">
        <ele>563.05</ele>
        <time>2015-06-28T08:20:21Z</time>
      </trkpt>
      <trkpt lat="46.37481" lon="6.12161">
        <ele>563.05</ele>
        <time>2015-06-28T08:20:22Z</time>
      </trkpt>
      <trkpt lat="46.3748" lon="6.12162">
        <ele>562.95</ele>
        <time>2015-06-28T08:20:23Z</time>
      </trkpt>
      <trkpt lat="46.37478" lon="6.12162">
        <ele>562.82</ele>
        <time>2015-06-28T08:20:24Z</time>
      </trkpt>
      <trkpt lat="46.37474" lon="6.1216">
        <ele>561.91</ele>
        <time>2015-06-28T08:20:37Z</time>
      </trkpt>
      <trkpt lat="46.37472" lon="6.12159">
        <ele>562.3</ele>
        <time>2015-06-28T08:21:10Z</time>
      </trkpt>
      <trkpt lat="46.37472" lon="6.12162">
        <ele>562.46</ele>
        <time>2015-06-28T08:22:29Z</time>
      </trkpt>
      <trkpt lat="46.37473" lon="6.12163">
        <ele>562.48</ele>
        <time>2015-06-28T08:22:30Z</time>
      </trkpt>
      <trkpt lat="46.37477" lon="6.12162">
        <ele>562.55</ele>
        <time>2015-06-28T08:22:33Z</time>
      </trkpt>
      <trkpt lat="46.37479" lon="6.12161">
        <ele>562.53</ele>
        <time>2015-06-28T08:22:34Z</time>
      </trkpt>
      <trkpt lat="46.37482" lon="6.12161">
        <ele>562.56</ele>
        <time>2015-06-28T08:22:35Z</time>
      </trkpt>
      <trkpt lat="46.37485" lon="6.1216">
        <ele>562.56</ele>
        <time>2015-06-28T08:22:36Z</time>
      </trkpt>
      <trkpt lat="46.37489" lon="6.12159">
        <ele>562.65</ele>
        <time>2015-06-28T08:22:37Z</time>
      </trkpt>
      <trkpt lat="46.37504" lon="6.12163">
        <ele>563.27</ele>
        <time>2015-06-28T08:22:41Z</time>
      </trkpt>
      <trkpt lat="46.37512" lon="6.12167">
        <ele>563.28</ele>
        <time>2015-06-28T08:22:43Z</time>
      </trkpt>
      <trkpt lat="46.37516" lon="6.12169">
        <ele>563.34</ele>
        <time>2015-06-28T08:22:44Z</time>
      </trkpt>
      <trkpt lat="46.37537" lon="6.1218">
        <ele>563.06</ele>
        <time>2015-06-28T08:22:49Z</time>
      </trkpt>
      <trkpt lat="46.37541" lon="6.12182">
        <ele>563.21</ele>
        <time>2015-06-28T08:22:50Z</time>
      </trkpt>
      <trkpt lat="46.37545" lon="6.12183">
        <ele>563.12</ele>
        <time>2015-06-28T08:22:51Z</time>
      </trkpt>
      <trkpt lat="46.37552" lon="6.12187">
        <ele>563.03</ele>
        <time>2015-06-28T08:22:53Z</time>
      </trkpt>
      <trkpt lat="46.37584" lon="6.12224">
        <ele>566</ele>
        <time>2015-06-28T08:23:05Z</time>
      </trkpt>
      <trkpt lat="46.37586" lon="6.12226">
        <ele>566</ele>
        <time>2015-06-28T08:23:06Z</time>
      </trkpt>
      <trkpt lat="46.37589" lon="6.12227">
        <ele>566.51</ele>
        <time>2015-06-28T08:23:07Z</time>
      </trkpt>
      <trkpt lat="46.37606" lon="6.12235">
        <ele>569.62</ele>
        <time>2015-06-28T08:23:15Z</time>
      </trkpt>
      <trkpt lat="46.37616" lon="6.1224">
        <ele>570.25</ele>
        <time>2015-06-28T08:23:18Z</time>
      </trkpt>
      <trkpt lat="46.37619" lon="6.12243">
        <ele>570.45</ele>
        <time>2015-06-28T08:23:19Z</time>
      </trkpt>
      <trkpt lat="46.37626" lon="6.1225">
        <ele>570.81</ele>
        <time>2015-06-28T08:23:21Z</time>
      </trkpt>
      <trkpt lat="46.37629" lon="6.12253">
        <ele>571.05</ele>
        <time>2015-06-28T08:23:22Z</time>
      </trkpt>
      <trkpt lat="46.37663" lon="6.12283">
        <ele>573.1</ele>
        <time>2015-06-28T08:23:32Z</time>
      </trkpt>
      <trkpt lat="46.37666" lon="6.12284">
        <ele>573.34</ele>
        <time>2015-06-28T08:23:33Z</time>
      </trkpt>
      <trkpt lat="46.37692" lon="6.12287">
        <ele>574.2</ele>
        <time>2015-06-28T08:23:40Z</time>
      </trkpt>
      <trkpt lat="46.37701" lon="6.1229">
        <ele>574.49</ele>
        <time>2015-06-28T08:23:42Z</time>
      </trkpt>
      <trkpt lat="46.37714" lon="6.12293">
        <ele>574.47</ele>
        <time>2015-06-28T08:23:45Z</time>
      </trkpt>
      <trkpt lat="46.37725" lon="6.12296">
        <ele>574.27</ele>
        <time>2015-06-28T08:23:47Z</time>
      </trkpt>
      <trkpt lat="46.37731" lon="6.12297">
        <ele>574.05</ele>
        <time>2015-06-28T08:23:48Z</time>
      </trkpt>
      <trkpt lat="46.37737" lon="6.12299">
        <ele>573.68</ele>
        <time>2015-06-28T08:23:49Z</time>
      </trkpt>
      <trkpt lat="46.37751" lon="6.12303">
        <ele>572.43</ele>
        <time>2015-06-28T08:23:51Z</time>
      </trkpt>
      <trkpt lat="46.37757" lon="6.12307">
        <ele>571.86</ele>
        <time>2015-06-28T08:23:52Z</time>
      </trkpt>
      <trkpt lat="46.37764" lon="6.12312">
        <ele>571.48</ele>
        <time>2015-06-28T08:23:53Z</time>
      </trkpt>
      <trkpt lat="46.3777" lon="6.12317">
        <ele>571.21</ele>
        <time>2015-06-28T08:23:54Z</time>
      </trkpt>
      <trkpt lat="46.37808" lon="6.12353">
        <ele>571.14</ele>
        <time>2015-06-28T08:24:01Z</time>
      </trkpt>
      <trkpt lat="46.37862" lon="6.12433">
        <ele>572.46</ele>
        <time>2015-06-28T08:24:14Z</time>
      </trkpt>
      <trkpt lat="46.37889" lon="6.1247">
        <ele>573.8</ele>
        <time>2015-06-28T08:24:20Z</time>
      </trkpt>
      <trkpt lat="46.37893" lon="6.12478">
        <ele>573.9</ele>
        <time>2015-06-28T08:24:21Z</time>
      </trkpt>
      <trkpt lat="46.37926" lon="6.1257">
        <ele>575.05</ele>
        <time>2015-06-28T08:24:33Z</time>
      </trkpt>
      <trkpt lat="46.37929" lon="6.12578">
        <ele>574.98</ele>
        <time>2015-06-28T08:24:34Z</time>
      </trkpt>
      <trkpt lat="46.37933" lon="6.12586">
        <ele>575.01</ele>
        <time>2015-06-28T08:24:35Z</time>
      </trkpt>
      <trkpt lat="46.37936" lon="6.12593">
        <ele>575.08</ele>
        <time>2015-06-28T08:24:36Z</time>
      </trkpt>
      <trkpt lat="46.37941" lon="6.126">
        <ele>575.18</ele>
        <time>2015-06-28T08:24:37Z</time>
      </trkpt>
      <trkpt lat="46.37945" lon="6.12606">
        <ele>575.12</ele>
        <time>2015-06-28T08:24:38Z</time>
      </trkpt>
      <trkpt lat="46.37984" lon="6.12658">
        <ele>574.68</ele>
        <time>2015-06-28T08:24:46Z</time>
      </trkpt>
      <trkpt lat="46.38052" lon="6.12775">
        <ele>577.62</ele>
        <time>2015-06-28T08:25:04Z</time>
      </trkpt>
      <trkpt lat="46.38081" lon="6.12814">
        <ele>578.18</ele>
        <time>2015-06-28T08:25:11Z</time>
      </trkpt>
      <trkpt lat="46.38142" lon="6.12883">
        <ele>578.82</ele>
        <time>2015-06-28T08:25:24Z</time>
      </trkpt>
      <trkpt lat="46.38189" lon="6.12932">
        <ele>578.64</ele>
        <time>2015-06-28T08:25:33Z</time>
      </trkpt>
      <trkpt lat="46.38239" lon="6.13023">
        <ele>576.36</ele>
        <time>2015-06-28T08:25:44Z</time>
      </trkpt>
      <trkpt lat="46.38245" lon="6.13045">
        <ele>576.24</ele>
        <time>2015-06-28T08:25:46Z</time>
      </trkpt>
      <trkpt lat="46.38248" lon="6.13058">
        <ele>576.18</ele>
        <time>2015-06-28T08:25:47Z</time>
      </trkpt>
      <trkpt lat="46.38264" lon="6.13163">
        <ele>572.8</ele>
        <time>2015-06-28T08:25:55Z</time>
      </trkpt>
      <trkpt lat="46.38266" lon="6.13176">
        <ele>572.07</ele>
        <time>2015-06-28T08:25:56Z</time>
      </trkpt>
      <trkpt lat="46.38268" lon="6.13202">
        <ele>571.4</ele>
        <time>2015-06-28T08:25:58Z</time>
      </trkpt>
      <trkpt lat="46.38275" lon="6.13239">
        <ele>569.89</ele>
        <time>2015-06-28T08:26:01Z</time>
      </trkpt>
      <trkpt lat="46.38282" lon="6.13263">
        <ele>569.23</ele>
        <time>2015-06-28T08:26:03Z</time>
      </trkpt>
      <trkpt lat="46.38297" lon="6.13337">
        <ele>567.25</ele>
        <time>2015-06-28T08:26:09Z</time>
      </trkpt>
      <trkpt lat="46.383" lon="6.13377">
        <ele>564.76</ele>
        <time>2015-06-28T08:26:12Z</time>
      </trkpt>
      <trkpt lat="46.38315" lon="6.13498">
        <ele>561.23</ele>
        <time>2015-06-28T08:26:21Z</time>
      </trkpt>
      <trkpt lat="46.3832" lon="6.13521">
        <ele>560.8</ele>
        <time>2015-06-28T08:26:23Z</time>
      </trkpt>
      <trkpt lat="46.38325" lon="6.13531">
        <ele>560.42</ele>
        <time>2015-06-28T08:26:24Z</time>
      </trkpt>
      <trkpt lat="46.38331" lon="6.1354">
        <ele>559.99</ele>
        <time>2015-06-28T08:26:25Z</time>
      </trkpt>
      <trkpt lat="46.38338" lon="6.13548">
        <ele>559.64</ele>
        <time>2015-06-28T08:26:26Z</time>
      </trkpt>
      <trkpt lat="46.38345" lon="6.13555">
        <ele>559.47</ele>
        <time>2015-06-28T08:26:27Z</time>
      </trkpt>
      <trkpt lat="46.38351" lon="6.13562">
        <ele>559.39</ele>
        <time>2015-06-28T08:26:28Z</time>
      </trkpt>
      <trkpt lat="46.38358" lon="6.13569">
        <ele>559.26</ele>
        <time>2015-06-28T08:26:29Z</time>
      </trkpt>
      <trkpt lat="46.38425" lon="6.13616">
        <ele>557.79</ele>
        <time>2015-06-28T08:26:38Z</time>
      </trkpt>
      <trkpt lat="46.38528" lon="6.13672">
        <ele>558.7</ele>
        <time>2015-06-28T08:26:53Z</time>
      </trkpt>
      <trkpt lat="46.38559" lon="6.13694">
        <ele>558.54</ele>
        <time>2015-06-28T08:26:58Z</time>
      </trkpt>
      <trkpt lat="46.38657" lon="6.13764">
        <ele>559.21</ele>
        <time>2015-06-28T08:27:15Z</time>
      </trkpt>
      <trkpt lat="46.38746" lon="6.13816">
        <ele>561.73</ele>
        <time>2015-06-28T08:27:33Z</time>
      </trkpt>
      <trkpt lat="46.38807" lon="6.13855">
        <ele>562.31</ele>
        <time>2015-06-28T08:27:46Z</time>
      </trkpt>
      <trkpt lat="46.38822" lon="6.13863">
        <ele>562.43</ele>
        <time>2015-06-28T08:27:49Z</time>
      </trkpt>
      <trkpt lat="46.3883" lon="6.13869">
        <ele>562.34</ele>
        <time>2015-06-28T08:27:51Z</time>
      </trkpt>
      <trkpt lat="46.38837" lon="6.13885">
        <ele>561.62</ele>
        <time>2015-06-28T08:27:55Z</time>
      </trkpt>
      <trkpt lat="46.38829" lon="6.13907">
        <ele>561.25</ele>
        <time>2015-06-28T08:27:59Z</time>
      </trkpt>
      <trkpt lat="46.38786" lon="6.13999">
        <ele>557.99</ele>
        <time>2015-06-28T08:28:11Z</time>
      </trkpt>
      <trkpt lat="46.3875" lon="6.14077">
        <ele>554.87</ele>
        <time>2015-06-28T08:28:19Z</time>
      </trkpt>
      <trkpt lat="46.38711" lon="6.14148">
        <ele>551.84</ele>
        <time>2015-06-28T08:28:26Z</time>
      </trkpt>
      <trkpt lat="46.38679" lon="6.142">
        <ele>549.14</ele>
        <time>2015-06-28T08:28:32Z</time>
      </trkpt>
      <trkpt lat="46.3867" lon="6.14214">
        <ele>548.42</ele>
        <time>2015-06-28T08:28:34Z</time>
      </trkpt>
      <trkpt lat="46.38654" lon="6.1424">
        <ele>547.51</ele>
        <time>2015-06-28T08:28:39Z</time>
      </trkpt>
      <trkpt lat="46.38654" lon="6.14244">
        <ele>547.02</ele>
        <time>2015-06-28T08:28:40Z</time>
      </trkpt>
      <trkpt lat="46.38678" lon="6.14241">
        <ele>546.2</ele>
        <time>2015-06-28T08:28:47Z</time>
      </trkpt>
      <trkpt lat="46.3878" lon="6.1424">
        <ele>548.83</ele>
        <time>2015-06-28T08:29:08Z</time>
      </trkpt>
      <trkpt lat="46.38827" lon="6.14247">
        <ele>549.39</ele>
        <time>2015-06-28T08:29:17Z</time>
      </trkpt>
      <trkpt lat="46.38892" lon="6.14229">
        <ele>549.04</ele>
        <time>2015-06-28T08:29:28Z</time>
      </trkpt>
      <trkpt lat="46.38996" lon="6.14248">
        <ele>549.42</ele>
        <time>2015-06-28T08:29:45Z</time>
      </trkpt>
      <trkpt lat="46.39012" lon="6.14259">
        <ele>548.99</ele>
        <time>2015-06-28T08:29:48Z</time>
      </trkpt>
      <trkpt lat="46.39111" lon="6.14346">
        <ele>548.68</ele>
        <time>2015-06-28T08:30:08Z</time>
      </trkpt>
      <trkpt lat="46.39145" lon="6.14372">
        <ele>549.58</ele>
        <time>2015-06-28T08:30:19Z</time>
      </trkpt>
      <trkpt lat="46.39156" lon="6.14383">
        <ele>550.33</ele>
        <time>2015-06-28T08:30:29Z</time>
      </trkpt>
      <trkpt lat="46.39156" lon="6.14383">
        <ele>550.94</ele>
        <time>2015-06-28T08:30:39Z</time>
      </trkpt>
      <trkpt lat="46.39166" lon="6.14391">
        <ele>550.82</ele>
        <time>2015-06-28T08:30:45Z</time>
      </trkpt>
      <trkpt lat="46.39173" lon="6.14396">
        <ele>550.81</ele>
        <time>2015-06-28T08:30:47Z</time>
      </trkpt>
      <trkpt lat="46.39184" lon="6.14404">
        <ele>550.82</ele>
        <time>2015-06-28T08:30:50Z</time>
      </trkpt>
      <trkpt lat="46.39261" lon="6.14454">
        <ele>551.76</ele>
        <time>2015-06-28T08:31:06Z</time>
      </trkpt>
      <trkpt lat="46.39281" lon="6.14468">
        <ele>552.19</ele>
        <time>2015-06-28T08:31:10Z</time>
      </trkpt>
      <trkpt lat="46.3931" lon="6.14491">
        <ele>552.15</ele>
        <time>2015-06-28T08:31:16Z</time>
      </trkpt>
      <trkpt lat="46.39369" lon="6.14542">
        <ele>554</ele>
        <time>2015-06-28T08:31:29Z</time>
      </trkpt>
      <trkpt lat="46.39394" lon="6.1455">
        <ele>554.7</ele>
        <time>2015-06-28T08:31:34Z</time>
      </trkpt>
      <trkpt lat="46.39429" lon="6.14552">
        <ele>556.23</ele>
        <time>2015-06-28T08:31:42Z</time>
      </trkpt>
      <trkpt lat="46.39475" lon="6.14569">
        <ele>558.58</ele>
        <time>2015-06-28T08:31:55Z</time>
      </trkpt>
      <trkpt lat="46.39493" lon="6.1458">
        <ele>559.25</ele>
        <time>2015-06-28T08:32:00Z</time>
      </trkpt>
      <trkpt lat="46.39536" lon="6.14625">
        <ele>560.96</ele>
        <time>2015-06-28T08:32:14Z</time>
      </trkpt>
      <trkpt lat="46.39545" lon="6.1464">
        <ele>561.03</ele>
        <time>2015-06-28T08:32:17Z</time>
      </trkpt>
      <trkpt lat="46.39556" lon="6.14661">
        <ele>560.84</ele>
        <time>2015-06-28T08:32:21Z</time>
      </trkpt>
      <trkpt lat="46.39578" lon="6.14704">
        <ele>560.51</ele>
        <time>2015-06-28T08:32:28Z</time>
      </trkpt>
      <trkpt lat="46.39592" lon="6.14725">
        <ele>560.87</ele>
        <time>2015-06-28T08:32:32Z</time>
      </trkpt>
      <trkpt lat="46.39596" lon="6.1473">
        <ele>561.2</ele>
        <time>2015-06-28T08:32:33Z</time>
      </trkpt>
      <trkpt lat="46.39633" lon="6.1478">
        <ele>561.01</ele>
        <time>2015-06-28T08:32:42Z</time>
      </trkpt>
      <trkpt lat="46.39659" lon="6.14818">
        <ele>560.62</ele>
        <time>2015-06-28T08:32:48Z</time>
      </trkpt>
      <trkpt lat="46.39675" lon="6.14852">
        <ele>558.98</ele>
        <time>2015-06-28T08:32:52Z</time>
      </trkpt>
      <trkpt lat="46.39704" lon="6.14907">
        <ele>557</ele>
        <time>2015-06-28T08:32:58Z</time>
      </trkpt>
      <trkpt lat="46.39774" lon="6.15002">
        <ele>556.58</ele>
        <time>2015-06-28T08:33:12Z</time>
      </trkpt>
      <trkpt lat="46.39793" lon="6.15027">
        <ele>555.54</ele>
        <time>2015-06-28T08:33:16Z</time>
      </trkpt>
      <trkpt lat="46.39809" lon="6.15054">
        <ele>555.54</ele>
        <time>2015-06-28T08:33:20Z</time>
      </trkpt>
      <trkpt lat="46.39861" lon="6.15112">
        <ele>556.63</ele>
        <time>2015-06-28T08:33:31Z</time>
      </trkpt>
      <trkpt lat="46.39902" lon="6.15149">
        <ele>556.25</ele>
        <time>2015-06-28T08:33:39Z</time>
      </trkpt>
      <trkpt lat="46.39917" lon="6.15159">
        <ele>556.28</ele>
        <time>2015-06-28T08:33:42Z</time>
      </trkpt>
      <trkpt lat="46.39957" lon="6.15177">
        <ele>556.96</ele>
        <time>2015-06-28T08:33:49Z</time>
      </trkpt>
      <trkpt lat="46.39993" lon="6.15208">
        <ele>558.33</ele>
        <time>2015-06-28T08:33:57Z</time>
      </trkpt>
      <trkpt lat="46.40005" lon="6.15222">
        <ele>558.64</ele>
        <time>2015-06-28T08:34:00Z</time>
      </trkpt>
      <trkpt lat="46.40053" lon="6.1527">
        <ele>558.78</ele>
        <time>2015-06-28T08:34:10Z</time>
      </trkpt>
      <trkpt lat="46.40068" lon="6.15289">
        <ele>558.68</ele>
        <time>2015-06-28T08:34:13Z</time>
      </trkpt>
      <trkpt lat="46.40111" lon="6.15349">
        <ele>558.4</ele>
        <time>2015-06-28T08:34:23Z</time>
      </trkpt>
      <trkpt lat="46.40146" lon="6.15399">
        <ele>561.48</ele>
        <time>2015-06-28T08:34:32Z</time>
      </trkpt>
      <trkpt lat="46.40167" lon="6.15435">
        <ele>561.48</ele>
        <time>2015-06-28T08:34:38Z</time>
      </trkpt>
      <trkpt lat="46.40179" lon="6.15459">
        <ele>561.48</ele>
        <time>2015-06-28T08:34:42Z</time>
      </trkpt>
      <trkpt lat="46.40187" lon="6.15476">
        <ele>561.4</ele>
        <time>2015-06-28T08:34:45Z</time>
      </trkpt>
      <trkpt lat="46.402" lon="6.15509">
        <ele>562.03</ele>
        <time>2015-06-28T08:34:52Z</time>
      </trkpt>
      <trkpt lat="46.40242" lon="6.15586">
        <ele>562.26</ele>
        <time>2015-06-28T08:35:06Z</time>
      </trkpt>
      <trkpt lat="46.40246" lon="6.15592">
        <ele>562.3</ele>
        <time>2015-06-28T08:35:07Z</time>
      </trkpt>
      <trkpt lat="46.40257" lon="6.15614">
        <ele>562.33</ele>
        <time>2015-06-28T08:35:11Z</time>
      </trkpt>
      <trkpt lat="46.40279" lon="6.15658">
        <ele>563.19</ele>
        <time>2015-06-28T08:35:19Z</time>
      </trkpt>
      <trkpt lat="46.40286" lon="6.15669">
        <ele>563.25</ele>
        <time>2015-06-28T08:35:21Z</time>
      </trkpt>
      <trkpt lat="46.40296" lon="6.15687">
        <ele>563.3</ele>
        <time>2015-06-28T08:35:24Z</time>
      </trkpt>
      <trkpt lat="46.40324" lon="6.15733">
        <ele>563.3</ele>
        <time>2015-06-28T08:35:32Z</time>
      </trkpt>
      <trkpt lat="46.40336" lon="6.15759">
        <ele>563.19</ele>
        <time>2015-06-28T08:35:36Z</time>
      </trkpt>
      <trkpt lat="46.40378" lon="6.15868">
        <ele>561.96</ele>
        <time>2015-06-28T08:35:50Z</time>
      </trkpt>
      <trkpt lat="46.40383" lon="6.15883">
        <ele>561.78</ele>
        <time>2015-06-28T08:35:53Z</time>
      </trkpt>
      <trkpt lat="46.40432" lon="6.1598">
        <ele>559.52</ele>
        <time>2015-06-28T08:36:08Z</time>
      </trkpt>
      <trkpt lat="46.4049" lon="6.16073">
        <ele>558.32</ele>
        <time>2015-06-28T08:36:21Z</time>
      </trkpt>
      <trkpt lat="46.40589" lon="6.16221">
        <ele>555.73</ele>
        <time>2015-06-28T08:36:40Z</time>
      </trkpt>
      <trkpt lat="46.40619" lon="6.16252">
        <ele>555.44</ele>
        <time>2015-06-28T08:36:45Z</time>
      </trkpt>
      <trkpt lat="46.40637" lon="6.16286">
        <ele>555.64</ele>
        <time>2015-06-28T08:36:49Z</time>
      </trkpt>
      <trkpt lat="46.40676" lon="6.16422">
        <ele>556.51</ele>
        <time>2015-06-28T08:37:04Z</time>
      </trkpt>
      <trkpt lat="46.40727" lon="6.16518">
        <ele>557.76</ele>
        <time>2015-06-28T08:37:18Z</time>
      </trkpt>
      <trkpt lat="46.40733" lon="6.16531">
        <ele>557.81</ele>
        <time>2015-06-28T08:37:20Z</time>
      </trkpt>
      <trkpt lat="46.40758" lon="6.16565">
        <ele>557.86</ele>
        <time>2015-06-28T08:37:27Z</time>
      </trkpt>
      <trkpt lat="46.40785" lon="6.16607">
        <ele>557.47</ele>
        <time>2015-06-28T08:37:35Z</time>
      </trkpt>
      <trkpt lat="46.40859" lon="6.16707">
        <ele>558.64</ele>
        <time>2015-06-28T08:37:54Z</time>
      </trkpt>
      <trkpt lat="46.40899" lon="6.1676">
        <ele>559.46</ele>
        <time>2015-06-28T08:38:04Z</time>
      </trkpt>
      <trkpt lat="46.40918" lon="6.16799">
        <ele>560.2</ele>
        <time>2015-06-28T08:38:10Z</time>
      </trkpt>
      <trkpt lat="46.40922" lon="6.16901">
        <ele>557.85</ele>
        <time>2015-06-28T08:38:21Z</time>
      </trkpt>
      <trkpt lat="46.40959" lon="6.17059">
        <ele>555.8</ele>
        <time>2015-06-28T08:38:37Z</time>
      </trkpt>
      <trkpt lat="46.41016" lon="6.17235">
        <ele>555.28</ele>
        <time>2015-06-28T08:38:57Z</time>
      </trkpt>
      <trkpt lat="46.41062" lon="6.17342">
        <ele>555.36</ele>
        <time>2015-06-28T08:39:11Z</time>
      </trkpt>
      <trkpt lat="46.4108" lon="6.17384">
        <ele>554.53</ele>
        <time>2015-06-28T08:39:17Z</time>
      </trkpt>
      <trkpt lat="46.41094" lon="6.17413">
        <ele>554.94</ele>
        <time>2015-06-28T08:39:22Z</time>
      </trkpt>
      <trkpt lat="46.41111" lon="6.17456">
        <ele>554.56</ele>
        <time>2015-06-28T08:39:29Z</time>
      </trkpt>
      <trkpt lat="46.41118" lon="6.1747">
        <ele>554.55</ele>
        <time>2015-06-28T08:39:32Z</time>
      </trkpt>
      <trkpt lat="46.4114" lon="6.17502">
        <ele>554.51</ele>
        <time>2015-06-28T08:39:43Z</time>
      </trkpt>
      <trkpt lat="46.41195" lon="6.17635">
        <ele>552</ele>
        <time>2015-06-28T08:40:00Z</time>
      </trkpt>
      <trkpt lat="46.412" lon="6.17658">
        <ele>551.32</ele>
        <time>2015-06-28T08:40:03Z</time>
      </trkpt>
      <trkpt lat="46.41195" lon="6.17716">
        <ele>549.95</ele>
        <time>2015-06-28T08:40:10Z</time>
      </trkpt>
      <trkpt lat="46.41187" lon="6.17745">
        <ele>549.28</ele>
        <time>2015-06-28T08:40:13Z</time>
      </trkpt>
      <trkpt lat="46.41189" lon="6.17794">
        <ele>547.87</ele>
        <time>2015-06-28T08:40:18Z</time>
      </trkpt>
      <trkpt lat="46.412" lon="6.17894">
        <ele>544.8</ele>
        <time>2015-06-28T08:40:30Z</time>
      </trkpt>
      <trkpt lat="46.41189" lon="6.1794">
        <ele>543.27</ele>
        <time>2015-06-28T08:40:40Z</time>
      </trkpt>
      <trkpt lat="46.41197" lon="6.17974">
        <ele>542.12</ele>
        <time>2015-06-28T08:40:48Z</time>
      </trkpt>
      <trkpt lat="46.41199" lon="6.17978">
        <ele>542.03</ele>
        <time>2015-06-28T08:40:49Z</time>
      </trkpt>
      <trkpt lat="46.41205" lon="6.17989">
        <ele>541.98</ele>
        <time>2015-06-28T08:40:51Z</time>
      </trkpt>
      <trkpt lat="46.41216" lon="6.18012">
        <ele>541.93</ele>
        <time>2015-06-28T08:40:55Z</time>
      </trkpt>
      <trkpt lat="46.41223" lon="6.18031">
        <ele>541.86</ele>
        <time>2015-06-28T08:40:58Z</time>
      </trkpt>
      <trkpt lat="46.41243" lon="6.18145">
        <ele>541.65</ele>
        <time>2015-06-28T08:41:14Z</time>
      </trkpt>
      <trkpt lat="46.41243" lon="6.18149">
        <ele>541.65</ele>
        <time>2015-06-28T08:41:15Z</time>
      </trkpt>
      <trkpt lat="46.41233" lon="6.1816">
        <ele>541.45</ele>
        <time>2015-06-28T08:41:19Z</time>
      </trkpt>
      <trkpt lat="46.41215" lon="6.18169">
        <ele>540.68</ele>
        <time>2015-06-28T08:41:23Z</time>
      </trkpt>
      <trkpt lat="46.41191" lon="6.18175">
        <ele>539.68</ele>
        <time>2015-06-28T08:41:27Z</time>
      </trkpt>
      <trkpt lat="46.41157" lon="6.18188">
        <ele>538.42</ele>
        <time>2015-06-28T08:41:32Z</time>
      </trkpt>
      <trkpt lat="46.41142" lon="6.18194">
        <ele>537.92</ele>
        <time>2015-06-28T08:41:34Z</time>
      </trkpt>
      <trkpt lat="46.41082" lon="6.18235">
        <ele>534.39</ele>
        <time>2015-06-28T08:41:42Z</time>
      </trkpt>
      <trkpt lat="46.41019" lon="6.18274">
        <ele>531.27</ele>
        <time>2015-06-28T08:41:51Z</time>
      </trkpt>
      <trkpt lat="46.41004" lon="6.18284">
        <ele>529.05</ele>
        <time>2015-06-28T08:41:53Z</time>
      </trkpt>
      <trkpt lat="46.40966" lon="6.1832">
        <ele>527.52</ele>
        <time>2015-06-28T08:41:58Z</time>
      </trkpt>
      <trkpt lat="46.40921" lon="6.18384">
        <ele>524.04</ele>
        <time>2015-06-28T08:42:06Z</time>
      </trkpt>
      <trkpt lat="46.40917" lon="6.18387">
        <ele>523.39</ele>
        <time>2015-06-28T08:42:08Z</time>
      </trkpt>
      <trkpt lat="46.40916" lon="6.18394">
        <ele>523.2</ele>
        <time>2015-06-28T08:42:28Z</time>
      </trkpt>
      <trkpt lat="46.40918" lon="6.18396">
        <ele>522.92</ele>
        <time>2015-06-28T08:42:37Z</time>
      </trkpt>
      <trkpt lat="46.40934" lon="6.18369">
        <ele>522.77</ele>
        <time>2015-06-28T08:42:48Z</time>
      </trkpt>
      <trkpt lat="46.40969" lon="6.18321">
        <ele>523.81</ele>
        <time>2015-06-28T08:43:01Z</time>
      </trkpt>
      <trkpt lat="46.40979" lon="6.18308">
        <ele>524.55</ele>
        <time>2015-06-28T08:43:05Z</time>
      </trkpt>
      <trkpt lat="46.40987" lon="6.18298">
        <ele>525.49</ele>
        <time>2015-06-28T08:43:08Z</time>
      </trkpt>
      <trkpt lat="46.41024" lon="6.18273">
        <ele>527.7</ele>
        <time>2015-06-28T08:43:20Z</time>
      </trkpt>
      <trkpt lat="46.41059" lon="6.18246">
        <ele>530.56</ele>
        <time>2015-06-28T08:43:33Z</time>
      </trkpt>
      <trkpt lat="46.41073" lon="6.18235">
        <ele>531.48</ele>
        <time>2015-06-28T08:43:38Z</time>
      </trkpt>
      <trkpt lat="46.41116" lon="6.18211">
        <ele>533.92</ele>
        <time>2015-06-28T08:43:52Z</time>
      </trkpt>
      <trkpt lat="46.41129" lon="6.18204">
        <ele>534.2</ele>
        <time>2015-06-28T08:43:56Z</time>
      </trkpt>
      <trkpt lat="46.41141" lon="6.18199">
        <ele>534.7</ele>
        <time>2015-06-28T08:44:00Z</time>
      </trkpt>
      <trkpt lat="46.41148" lon="6.18197">
        <ele>534.88</ele>
        <time>2015-06-28T08:44:02Z</time>
      </trkpt>
      <trkpt lat="46.4116" lon="6.18191">
        <ele>535.4</ele>
        <time>2015-06-28T08:44:06Z</time>
      </trkpt>
      <trkpt lat="46.41168" lon="6.18187">
        <ele>536.09</ele>
        <time>2015-06-28T08:44:09Z</time>
      </trkpt>
      <trkpt lat="46.41179" lon="6.18181">
        <ele>536.23</ele>
        <time>2015-06-28T08:44:13Z</time>
      </trkpt>
      <trkpt lat="46.41192" lon="6.18175">
        <ele>535.87</ele>
        <time>2015-06-28T08:44:17Z</time>
      </trkpt>
      <trkpt lat="46.41231" lon="6.18158">
        <ele>538.18</ele>
        <time>2015-06-28T08:44:31Z</time>
      </trkpt>
      <trkpt lat="46.4125" lon="6.18138">
        <ele>539.96</ele>
        <time>2015-06-28T08:44:42Z</time>
      </trkpt>
      <trkpt lat="46.41242" lon="6.1809">
        <ele>540.11</ele>
        <time>2015-06-28T08:44:51Z</time>
      </trkpt>
      <trkpt lat="46.41232" lon="6.18036">
        <ele>540.4</ele>
        <time>2015-06-28T08:45:01Z</time>
      </trkpt>
      <trkpt lat="46.41226" lon="6.18019">
        <ele>540.64</ele>
        <time>2015-06-28T08:45:04Z</time>
      </trkpt>
      <trkpt lat="46.41168" lon="6.17929">
        <ele>540.86</ele>
        <time>2015-06-28T08:45:21Z</time>
      </trkpt>
      <trkpt lat="46.41084" lon="6.17849">
        <ele>539.3</ele>
        <time>2015-06-28T08:45:36Z</time>
      </trkpt>
      <trkpt lat="46.4103" lon="6.178">
        <ele>539.3</ele>
        <time>2015-06-28T08:45:46Z</time>
      </trkpt>
      <trkpt lat="46.41018" lon="6.17794">
        <ele>539.43</ele>
        <time>2015-06-28T08:45:48Z</time>
      </trkpt>
      <trkpt lat="46.40995" lon="6.17789">
        <ele>539.96</ele>
        <time>2015-06-28T08:45:52Z</time>
      </trkpt>
      <trkpt lat="46.40967" lon="6.17798">
        <ele>540.2</ele>
        <time>2015-06-28T08:45:57Z</time>
      </trkpt>
      <trkpt lat="46.40931" lon="6.17826">
        <ele>539.67</ele>
        <time>2015-06-28T08:46:04Z</time>
      </trkpt>
      <trkpt lat="46.40883" lon="6.17832">
        <ele>539.32</ele>
        <time>2015-06-28T08:46:13Z</time>
      </trkpt>
      <trkpt lat="46.40876" lon="6.17826">
        <ele>539.28</ele>
        <time>2015-06-28T08:46:15Z</time>
      </trkpt>
      <trkpt lat="46.40837" lon="6.17868">
        <ele>538.89</ele>
        <time>2015-06-28T08:46:25Z</time>
      </trkpt>
      <trkpt lat="46.40832" lon="6.17875">
        <ele>538.6</ele>
        <time>2015-06-28T08:46:26Z</time>
      </trkpt>
      <trkpt lat="46.40799" lon="6.17923">
        <ele>535.37</ele>
        <time>2015-06-28T08:46:32Z</time>
      </trkpt>
      <trkpt lat="46.40742" lon="6.18016">
        <ele>531.93</ele>
        <time>2015-06-28T08:46:42Z</time>
      </trkpt>
      <trkpt lat="46.40699" lon="6.18086">
        <ele>528.65</ele>
        <time>2015-06-28T08:46:49Z</time>
      </trkpt>
      <trkpt lat="46.40663" lon="6.18154">
        <ele>525.31</ele>
        <time>2015-06-28T08:46:55Z</time>
      </trkpt>
      <trkpt lat="46.40645" lon="6.18191">
        <ele>522.63</ele>
        <time>2015-06-28T08:46:58Z</time>
      </trkpt>
      <trkpt lat="46.40577" lon="6.18262">
        <ele>518.75</ele>
        <time>2015-06-28T08:47:06Z</time>
      </trkpt>
      <trkpt lat="46.40511" lon="6.1832">
        <ele>515.64</ele>
        <time>2015-06-28T08:47:15Z</time>
      </trkpt>
      <trkpt lat="46.4044" lon="6.1839">
        <ele>512.55</ele>
        <time>2015-06-28T08:47:25Z</time>
      </trkpt>
      <trkpt lat="46.40367" lon="6.18471">
        <ele>509.48</ele>
        <time>2015-06-28T08:47:36Z</time>
      </trkpt>
      <trkpt lat="46.40322" lon="6.18523">
        <ele>508.65</ele>
        <time>2015-06-28T08:47:44Z</time>
      </trkpt>
      <trkpt lat="46.40301" lon="6.18596">
        <ele>508.23</ele>
        <time>2015-06-28T08:47:52Z</time>
      </trkpt>
      <trkpt lat="46.40304" lon="6.18649">
        <ele>508.13</ele>
        <time>2015-06-28T08:47:57Z</time>
      </trkpt>
      <trkpt lat="46.40353" lon="6.18776">
        <ele>504.77</ele>
        <time>2015-06-28T08:48:10Z</time>
      </trkpt>
      <trkpt lat="46.40355" lon="6.18786">
        <ele>504.44</ele>
        <time>2015-06-28T08:48:11Z</time>
      </trkpt>
      <trkpt lat="46.40357" lon="6.18808">
        <ele>504.28</ele>
        <time>2015-06-28T08:48:13Z</time>
      </trkpt>
      <trkpt lat="46.40358" lon="6.19009">
        <ele>504</ele>
        <time>2015-06-28T08:48:32Z</time>
      </trkpt>
      <trkpt lat="46.40358" lon="6.19127">
        <ele>500.97</ele>
        <time>2015-06-28T08:48:42Z</time>
      </trkpt>
      <trkpt lat="46.4033" lon="6.19264">
        <ele>498.3</ele>
        <time>2015-06-28T08:48:54Z</time>
      </trkpt>
      <trkpt lat="46.40322" lon="6.19284">
        <ele>497.84</ele>
        <time>2015-06-28T08:48:56Z</time>
      </trkpt>
      <trkpt lat="46.40261" lon="6.19486">
        <ele>495.11</ele>
        <time>2015-06-28T08:49:15Z</time>
      </trkpt>
      <trkpt lat="46.40253" lon="6.19508">
        <ele>494.66</ele>
        <time>2015-06-28T08:49:17Z</time>
      </trkpt>
      <trkpt lat="46.40235" lon="6.19544">
        <ele>494.16</ele>
        <time>2015-06-28T08:49:21Z</time>
      </trkpt>
      <trkpt lat="46.40156" lon="6.19607">
        <ele>492.93</ele>
        <time>2015-06-28T08:49:33Z</time>
      </trkpt>
      <trkpt lat="46.4011" lon="6.19678">
        <ele>491.08</ele>
        <time>2015-06-28T08:49:43Z</time>
      </trkpt>
      <trkpt lat="46.40109" lon="6.19696">
        <ele>491.22</ele>
        <time>2015-06-28T08:49:45Z</time>
      </trkpt>
      <trkpt lat="46.4009" lon="6.19706">
        <ele>491.26</ele>
        <time>2015-06-28T08:49:50Z</time>
      </trkpt>
      <trkpt lat="46.40024" lon="6.19657">
        <ele>492.69</ele>
        <time>2015-06-28T08:50:04Z</time>
      </trkpt>
      <trkpt lat="46.39924" lon="6.19573">
        <ele>494.06</ele>
        <time>2015-06-28T08:50:24Z</time>
      </trkpt>
      <trkpt lat="46.39813" lon="6.19482">
        <ele>494.71</ele>
        <time>2015-06-28T08:50:45Z</time>
      </trkpt>
      <trkpt lat="46.39732" lon="6.19418">
        <ele>495.92</ele>
        <time>2015-06-28T08:51:00Z</time>
      </trkpt>
      <trkpt lat="46.39643" lon="6.19344">
        <ele>496.91</ele>
        <time>2015-06-28T08:51:18Z</time>
      </trkpt>
      <trkpt lat="46.39571" lon="6.1928">
        <ele>498.8</ele>
        <time>2015-06-28T08:51:34Z</time>
      </trkpt>
      <trkpt lat="46.39525" lon="6.19245">
        <ele>498.31</ele>
        <time>2015-06-28T08:51:43Z</time>
      </trkpt>
      <trkpt lat="46.39507" lon="6.19224">
        <ele>498.23</ele>
        <time>2015-06-28T08:51:47Z</time>
      </trkpt>
      <trkpt lat="46.39486" lon="6.19192">
        <ele>496.93</ele>
        <time>2015-06-28T08:51:52Z</time>
      </trkpt>
      <trkpt lat="46.39404" lon="6.19135">
        <ele>495.29</ele>
        <time>2015-06-28T08:52:06Z</time>
      </trkpt>
      <trkpt lat="46.39334" lon="6.19093">
        <ele>494.69</ele>
        <time>2015-06-28T08:52:19Z</time>
      </trkpt>
      <trkpt lat="46.39326" lon="6.19085">
        <ele>494.47</ele>
        <time>2015-06-28T08:52:21Z</time>
      </trkpt>
      <trkpt lat="46.39301" lon="6.19089">
        <ele>494.61</ele>
        <time>2015-06-28T08:52:26Z</time>
      </trkpt>
      <trkpt lat="46.39291" lon="6.19096">
        <ele>494.72</ele>
        <time>2015-06-28T08:52:28Z</time>
      </trkpt>
      <trkpt lat="46.39268" lon="6.19085">
        <ele>495</ele>
        <time>2015-06-28T08:52:33Z</time>
      </trkpt>
      <trkpt lat="46.39212" lon="6.18977">
        <ele>496.26</ele>
        <time>2015-06-28T08:52:49Z</time>
      </trkpt>
      <trkpt lat="46.39179" lon="6.18922">
        <ele>497.54</ele>
        <time>2015-06-28T08:52:58Z</time>
      </trkpt>
      <trkpt lat="46.39096" lon="6.18866">
        <ele>495.41</ele>
        <time>2015-06-28T08:53:10Z</time>
      </trkpt>
      <trkpt lat="46.39028" lon="6.18828">
        <ele>492.34</ele>
        <time>2015-06-28T08:53:19Z</time>
      </trkpt>
      <trkpt lat="46.3894" lon="6.18736">
        <ele>491.75</ele>
        <time>2015-06-28T08:53:33Z</time>
      </trkpt>
      <trkpt lat="46.38864" lon="6.186">
        <ele>490.94</ele>
        <time>2015-06-28T08:53:49Z</time>
      </trkpt>
      <trkpt lat="46.38789" lon="6.18464">
        <ele>490.05</ele>
        <time>2015-06-28T08:54:05Z</time>
      </trkpt>
      <trkpt lat="46.38708" lon="6.18322">
        <ele>489.04</ele>
        <time>2015-06-28T08:54:22Z</time>
      </trkpt>
      <trkpt lat="46.38599" lon="6.18166">
        <ele>488.65</ele>
        <time>2015-06-28T08:54:43Z</time>
      </trkpt>
      <trkpt lat="46.38584" lon="6.18147">
        <ele>488.56</ele>
        <time>2015-06-28T08:54:46Z</time>
      </trkpt>
      <trkpt lat="46.38499" lon="6.18028">
        <ele>486.98</ele>
        <time>2015-06-28T08:55:04Z</time>
      </trkpt>
      <trkpt lat="46.38419" lon="6.17929">
        <ele>485.44</ele>
        <time>2015-06-28T08:55:18Z</time>
      </trkpt>
      <trkpt lat="46.38328" lon="6.17804">
        <ele>484.4</ele>
        <time>2015-06-28T08:55:35Z</time>
      </trkpt>
      <trkpt lat="46.38301" lon="6.17767">
        <ele>484.14</ele>
        <time>2015-06-28T08:55:40Z</time>
      </trkpt>
      <trkpt lat="46.3821" lon="6.17639">
        <ele>482.13</ele>
        <time>2015-06-28T08:55:57Z</time>
      </trkpt>
      <trkpt lat="46.3814" lon="6.17538">
        <ele>481.7</ele>
        <time>2015-06-28T08:56:12Z</time>
      </trkpt>
      <trkpt lat="46.38112" lon="6.17499">
        <ele>482.45</ele>
        <time>2015-06-28T08:56:22Z</time>
      </trkpt>
      <trkpt lat="46.38102" lon="6.17481">
        <ele>482.35</ele>
        <time>2015-06-28T08:56:27Z</time>
      </trkpt>
      <trkpt lat="46.38088" lon="6.17443">
        <ele>482.35</ele>
        <time>2015-06-28T08:56:33Z</time>
      </trkpt>
      <trkpt lat="46.38062" lon="6.17383">
        <ele>481.38</ele>
        <time>2015-06-28T08:56:41Z</time>
      </trkpt>
      <trkpt lat="46.37984" lon="6.17275">
        <ele>480.3</ele>
        <time>2015-06-28T08:56:59Z</time>
      </trkpt>
      <trkpt lat="46.37902" lon="6.17166">
        <ele>479.1</ele>
        <time>2015-06-28T08:57:16Z</time>
      </trkpt>
      <trkpt lat="46.37811" lon="6.17046">
        <ele>477.69</ele>
        <time>2015-06-28T08:57:34Z</time>
      </trkpt>
      <trkpt lat="46.3771" lon="6.16911">
        <ele>477.13</ele>
        <time>2015-06-28T08:57:55Z</time>
      </trkpt>
      <trkpt lat="46.37639" lon="6.16823">
        <ele>476.94</ele>
        <time>2015-06-28T08:58:10Z</time>
      </trkpt>
      <trkpt lat="46.37576" lon="6.16716">
        <ele>476.03</ele>
        <time>2015-06-28T08:58:26Z</time>
      </trkpt>
      <trkpt lat="46.37513" lon="6.16552">
        <ele>475.39</ele>
        <time>2015-06-28T08:58:48Z</time>
      </trkpt>
      <trkpt lat="46.37507" lon="6.16519">
        <ele>475.28</ele>
        <time>2015-06-28T08:58:52Z</time>
      </trkpt>
      <trkpt lat="46.37496" lon="6.1647">
        <ele>475.28</ele>
        <time>2015-06-28T08:58:58Z</time>
      </trkpt>
      <trkpt lat="46.3749" lon="6.16447">
        <ele>475.16</ele>
        <time>2015-06-28T08:59:01Z</time>
      </trkpt>
      <trkpt lat="46.37482" lon="6.16422">
        <ele>474.4</ele>
        <time>2015-06-28T08:59:09Z</time>
      </trkpt>
      <trkpt lat="46.37487" lon="6.16427">
        <ele>474.51</ele>
        <time>2015-06-28T08:59:22Z</time>
      </trkpt>
      <trkpt lat="46.37485" lon="6.1643">
        <ele>474.15</ele>
        <time>2015-06-28T09:01:01Z</time>
      </trkpt>
      <trkpt lat="46.37484" lon="6.16429">
        <ele>474.84</ele>
        <time>2015-06-28T09:01:12Z</time>
      </trkpt>
      <trkpt lat="46.37466" lon="6.16394">
        <ele>474.22</ele>
        <time>2015-06-28T09:01:21Z</time>
      </trkpt>
      <trkpt lat="46.37461" lon="6.16383">
        <ele>474.16</ele>
        <time>2015-06-28T09:01:23Z</time>
      </trkpt>
      <trkpt lat="46.37455" lon="6.16373">
        <ele>474.15</ele>
        <time>2015-06-28T09:01:25Z</time>
      </trkpt>
      <trkpt lat="46.37449" lon="6.16363">
        <ele>474.17</ele>
        <time>2015-06-28T09:01:27Z</time>
      </trkpt>
      <trkpt lat="46.37434" lon="6.16337">
        <ele>474.19</ele>
        <time>2015-06-28T09:01:32Z</time>
      </trkpt>
      <trkpt lat="46.37426" lon="6.16327">
        <ele>474.19</ele>
        <time>2015-06-28T09:01:34Z</time>
      </trkpt>
      <trkpt lat="46.37422" lon="6.16323">
        <ele>474.13</ele>
        <time>2015-06-28T09:01:35Z</time>
      </trkpt>
      <trkpt lat="46.37393" lon="6.16297">
        <ele>474.26</ele>
        <time>2015-06-28T09:01:41Z</time>
      </trkpt>
      <trkpt lat="46.3739" lon="6.16291">
        <ele>474.35</ele>
        <time>2015-06-28T09:01:42Z</time>
      </trkpt>
      <trkpt lat="46.37387" lon="6.16284">
        <ele>474.4</ele>
        <time>2015-06-28T09:01:43Z</time>
      </trkpt>
      <trkpt lat="46.37385" lon="6.16277">
        <ele>474.43</ele>
        <time>2015-06-28T09:01:44Z</time>
      </trkpt>
      <trkpt lat="46.37383" lon="6.16269">
        <ele>474.42</ele>
        <time>2015-06-28T09:01:45Z</time>
      </trkpt>
      <trkpt lat="46.37382" lon="6.16261">
        <ele>474.42</ele>
        <time>2015-06-28T09:01:46Z</time>
      </trkpt>
      <trkpt lat="46.37381" lon="6.16253">
        <ele>474.42</ele>
        <time>2015-06-28T09:01:47Z</time>
      </trkpt>
      <trkpt lat="46.3738" lon="6.16236">
        <ele>474.71</ele>
        <time>2015-06-28T09:01:49Z</time>
      </trkpt>
      <trkpt lat="46.37378" lon="6.16227">
        <ele>474.91</ele>
        <time>2015-06-28T09:01:50Z</time>
      </trkpt>
      <trkpt lat="46.37375" lon="6.1622">
        <ele>475.14</ele>
        <time>2015-06-28T09:01:51Z</time>
      </trkpt>
      <trkpt lat="46.37368" lon="6.16207">
        <ele>476.01</ele>
        <time>2015-06-28T09:01:53Z</time>
      </trkpt>
      <trkpt lat="46.37325" lon="6.16163">
        <ele>477.01</ele>
        <time>2015-06-28T09:02:01Z</time>
      </trkpt>
      <trkpt lat="46.37319" lon="6.16157">
        <ele>476.96</ele>
        <time>2015-06-28T09:02:02Z</time>
      </trkpt>
      <trkpt lat="46.37248" lon="6.16096">
        <ele>477.13</ele>
        <time>2015-06-28T09:02:14Z</time>
      </trkpt>
      <trkpt lat="46.37169" lon="6.16022">
        <ele>477.09</ele>
        <time>2015-06-28T09:02:28Z</time>
      </trkpt>
      <trkpt lat="46.37063" lon="6.15911">
        <ele>476.15</ele>
        <time>2015-06-28T09:02:47Z</time>
      </trkpt>
      <trkpt lat="46.36958" lon="6.15806">
        <ele>474.92</ele>
        <time>2015-06-28T09:03:05Z</time>
      </trkpt>
      <trkpt lat="46.36862" lon="6.15764">
        <ele>474.82</ele>
        <time>2015-06-28T09:03:19Z</time>
      </trkpt>
      <trkpt lat="46.368" lon="6.15719">
        <ele>474.65</ele>
        <time>2015-06-28T09:03:29Z</time>
      </trkpt>
      <trkpt lat="46.36712" lon="6.15612">
        <ele>475.83</ele>
        <time>2015-06-28T09:03:47Z</time>
      </trkpt>
      <trkpt lat="46.36652" lon="6.15535">
        <ele>476.35</ele>
        <time>2015-06-28T09:04:00Z</time>
      </trkpt>
      <trkpt lat="46.36591" lon="6.15405">
        <ele>476.02</ele>
        <time>2015-06-28T09:04:17Z</time>
      </trkpt>
      <trkpt lat="46.36505" lon="6.15227">
        <ele>477.12</ele>
        <time>2015-06-28T09:04:38Z</time>
      </trkpt>
      <trkpt lat="46.364" lon="6.15057">
        <ele>476.12</ele>
        <time>2015-06-28T09:04:59Z</time>
      </trkpt>
      <trkpt lat="46.36374" lon="6.15016">
        <ele>475.46</ele>
        <time>2015-06-28T09:05:04Z</time>
      </trkpt>
      <trkpt lat="46.36369" lon="6.15008">
        <ele>475.23</ele>
        <time>2015-06-28T09:05:05Z</time>
      </trkpt>
      <trkpt lat="46.36285" lon="6.14905">
        <ele>472.45</ele>
        <time>2015-06-28T09:05:19Z</time>
      </trkpt>
      <trkpt lat="46.36277" lon="6.149">
        <ele>472.38</ele>
        <time>2015-06-28T09:05:20Z</time>
      </trkpt>
      <trkpt lat="46.3627" lon="6.14897">
        <ele>472.34</ele>
        <time>2015-06-28T09:05:21Z</time>
      </trkpt>
      <trkpt lat="46.36262" lon="6.14895">
        <ele>472.32</ele>
        <time>2015-06-28T09:05:22Z</time>
      </trkpt>
      <trkpt lat="46.36249" lon="6.14891">
        <ele>472.03</ele>
        <time>2015-06-28T09:05:24Z</time>
      </trkpt>
      <trkpt lat="46.36244" lon="6.14886">
        <ele>471.86</ele>
        <time>2015-06-28T09:05:25Z</time>
      </trkpt>
      <trkpt lat="46.36241" lon="6.14879">
        <ele>471.74</ele>
        <time>2015-06-28T09:05:26Z</time>
      </trkpt>
      <trkpt lat="46.36233" lon="6.14856">
        <ele>471.6</ele>
        <time>2015-06-28T09:05:29Z</time>
      </trkpt>
      <trkpt lat="46.36228" lon="6.14851">
        <ele>471.61</ele>
        <time>2015-06-28T09:05:30Z</time>
      </trkpt>
      <trkpt lat="46.36223" lon="6.14849">
        <ele>471.61</ele>
        <time>2015-06-28T09:05:31Z</time>
      </trkpt>
      <trkpt lat="46.36217" lon="6.1485">
        <ele>471.66</ele>
        <time>2015-06-28T09:05:32Z</time>
      </trkpt>
      <trkpt lat="46.36208" lon="6.14858">
        <ele>471.84</ele>
        <time>2015-06-28T09:05:34Z</time>
      </trkpt>
      <trkpt lat="46.36205" lon="6.14865">
        <ele>471.89</ele>
        <time>2015-06-28T09:05:35Z</time>
      </trkpt>
      <trkpt lat="46.36201" lon="6.14881">
        <ele>471.95</ele>
        <time>2015-06-28T09:05:37Z</time>
      </trkpt>
      <trkpt lat="46.36199" lon="6.1489">
        <ele>471.95</ele>
        <time>2015-06-28T09:05:38Z</time>
      </trkpt>
      <trkpt lat="46.36196" lon="6.14898">
        <ele>472.02</ele>
        <time>2015-06-28T09:05:39Z</time>
      </trkpt>
      <trkpt lat="46.36187" lon="6.14909">
        <ele>472.16</ele>
        <time>2015-06-28T09:05:41Z</time>
      </trkpt>
      <trkpt lat="46.36165" lon="6.14926">
        <ele>472.43</ele>
        <time>2015-06-28T09:05:45Z</time>
      </trkpt>
      <trkpt lat="46.36161" lon="6.14932">
        <ele>472.36</ele>
        <time>2015-06-28T09:05:46Z</time>
      </trkpt>
      <trkpt lat="46.36157" lon="6.14939">
        <ele>472.26</ele>
        <time>2015-06-28T09:05:47Z</time>
      </trkpt>
      <trkpt lat="46.36153" lon="6.14947">
        <ele>472.08</ele>
        <time>2015-06-28T09:05:48Z</time>
      </trkpt>
      <trkpt lat="46.3615" lon="6.14954">
        <ele>472.08</ele>
        <time>2015-06-28T09:05:49Z</time>
      </trkpt>
      <trkpt lat="46.36143" lon="6.14969">
        <ele>471.76</ele>
        <time>2015-06-28T09:05:51Z</time>
      </trkpt>
      <trkpt lat="46.36088" lon="6.15089">
        <ele>471.52</ele>
        <time>2015-06-28T09:06:06Z</time>
      </trkpt>
      <trkpt lat="46.36076" lon="6.15113">
        <ele>471.44</ele>
        <time>2015-06-28T09:06:09Z</time>
      </trkpt>
      <trkpt lat="46.36072" lon="6.1512">
        <ele>471.33</ele>
        <time>2015-06-28T09:06:10Z</time>
      </trkpt>
      <trkpt lat="46.36067" lon="6.15126">
        <ele>471.19</ele>
        <time>2015-06-28T09:06:11Z</time>
      </trkpt>
      <trkpt lat="46.36061" lon="6.15132">
        <ele>471.15</ele>
        <time>2015-06-28T09:06:12Z</time>
      </trkpt>
      <trkpt lat="46.36055" lon="6.15136">
        <ele>471.06</ele>
        <time>2015-06-28T09:06:13Z</time>
      </trkpt>
      <trkpt lat="46.36049" lon="6.15137">
        <ele>470.96</ele>
        <time>2015-06-28T09:06:14Z</time>
      </trkpt>
      <trkpt lat="46.36042" lon="6.15136">
        <ele>470.88</ele>
        <time>2015-06-28T09:06:15Z</time>
      </trkpt>
      <trkpt lat="46.36036" lon="6.15135">
        <ele>470.83</ele>
        <time>2015-06-28T09:06:16Z</time>
      </trkpt>
      <trkpt lat="46.36029" lon="6.15135">
        <ele>470.68</ele>
        <time>2015-06-28T09:06:17Z</time>
      </trkpt>
      <trkpt lat="46.36023" lon="6.15136">
        <ele>470.64</ele>
        <time>2015-06-28T09:06:18Z</time>
      </trkpt>
      <trkpt lat="46.36016" lon="6.15137">
        <ele>470.64</ele>
        <time>2015-06-28T09:06:19Z</time>
      </trkpt>
      <trkpt lat="46.36009" lon="6.15136">
        <ele>470.65</ele>
        <time>2015-06-28T09:06:20Z</time>
      </trkpt>
      <trkpt lat="46.35952" lon="6.15111">
        <ele>470.52</ele>
        <time>2015-06-28T09:06:29Z</time>
      </trkpt>
      <trkpt lat="46.35946" lon="6.15108">
        <ele>470.49</ele>
        <time>2015-06-28T09:06:30Z</time>
      </trkpt>
      <trkpt lat="46.35939" lon="6.15106">
        <ele>470.54</ele>
        <time>2015-06-28T09:06:31Z</time>
      </trkpt>
      <trkpt lat="46.35932" lon="6.15105">
        <ele>470.66</ele>
        <time>2015-06-28T09:06:32Z</time>
      </trkpt>
      <trkpt lat="46.35926" lon="6.15102">
        <ele>470.82</ele>
        <time>2015-06-28T09:06:33Z</time>
      </trkpt>
      <trkpt lat="46.35919" lon="6.151">
        <ele>470.93</ele>
        <time>2015-06-28T09:06:34Z</time>
      </trkpt>
      <trkpt lat="46.35833" lon="6.15064">
        <ele>471.03</ele>
        <time>2015-06-28T09:06:47Z</time>
      </trkpt>
      <trkpt lat="46.35762" lon="6.15031">
        <ele>472.08</ele>
        <time>2015-06-28T09:06:58Z</time>
      </trkpt>
      <trkpt lat="46.35755" lon="6.15029">
        <ele>472.08</ele>
        <time>2015-06-28T09:06:59Z</time>
      </trkpt>
      <trkpt lat="46.35741" lon="6.15025">
        <ele>471.89</ele>
        <time>2015-06-28T09:07:01Z</time>
      </trkpt>
      <trkpt lat="46.35679" lon="6.14995">
        <ele>471.46</ele>
        <time>2015-06-28T09:07:10Z</time>
      </trkpt>
      <trkpt lat="46.35673" lon="6.14989">
        <ele>471.41</ele>
        <time>2015-06-28T09:07:11Z</time>
      </trkpt>
      <trkpt lat="46.35668" lon="6.14982">
        <ele>471.35</ele>
        <time>2015-06-28T09:07:12Z</time>
      </trkpt>
      <trkpt lat="46.35664" lon="6.14974">
        <ele>471.36</ele>
        <time>2015-06-28T09:07:13Z</time>
      </trkpt>
      <trkpt lat="46.35661" lon="6.14965">
        <ele>471.36</ele>
        <time>2015-06-28T09:07:14Z</time>
      </trkpt>
      <trkpt lat="46.35658" lon="6.14956">
        <ele>471.43</ele>
        <time>2015-06-28T09:07:15Z</time>
      </trkpt>
      <trkpt lat="46.35618" lon="6.14824">
        <ele>472.95</ele>
        <time>2015-06-28T09:07:29Z</time>
      </trkpt>
      <trkpt lat="46.35577" lon="6.14696">
        <ele>473.83</ele>
        <time>2015-06-28T09:07:45Z</time>
      </trkpt>
      <trkpt lat="46.3557" lon="6.14668">
        <ele>474.33</ele>
        <time>2015-06-28T09:07:50Z</time>
      </trkpt>
      <trkpt lat="46.35571" lon="6.1466">
        <ele>474.35</ele>
        <time>2015-06-28T09:07:52Z</time>
      </trkpt>
      <trkpt lat="46.35573" lon="6.14656">
        <ele>474.31</ele>
        <time>2015-06-28T09:07:53Z</time>
      </trkpt>
      <trkpt lat="46.35574" lon="6.14651">
        <ele>474.33</ele>
        <time>2015-06-28T09:07:54Z</time>
      </trkpt>
      <trkpt lat="46.35577" lon="6.14647">
        <ele>474.34</ele>
        <time>2015-06-28T09:07:55Z</time>
      </trkpt>
      <trkpt lat="46.3558" lon="6.14643">
        <ele>474.34</ele>
        <time>2015-06-28T09:07:56Z</time>
      </trkpt>
      <trkpt lat="46.35584" lon="6.1464">
        <ele>474.35</ele>
        <time>2015-06-28T09:07:57Z</time>
      </trkpt>
      <trkpt lat="46.35588" lon="6.14635">
        <ele>474.39</ele>
        <time>2015-06-28T09:07:58Z</time>
      </trkpt>
      <trkpt lat="46.35595" lon="6.14624">
        <ele>474.52</ele>
        <time>2015-06-28T09:08:00Z</time>
      </trkpt>
      <trkpt lat="46.356" lon="6.14618">
        <ele>474.52</ele>
        <time>2015-06-28T09:08:01Z</time>
      </trkpt>
      <trkpt lat="46.35648" lon="6.1455">
        <ele>475.44</ele>
        <time>2015-06-28T09:08:14Z</time>
      </trkpt>
      <trkpt lat="46.35651" lon="6.14547">
        <ele>475.48</ele>
        <time>2015-06-28T09:08:15Z</time>
      </trkpt>
      <trkpt lat="46.35654" lon="6.14544">
        <ele>475.44</ele>
        <time>2015-06-28T09:08:16Z</time>
      </trkpt>
      <trkpt lat="46.3566" lon="6.14534">
        <ele>475.44</ele>
        <time>2015-06-28T09:08:18Z</time>
      </trkpt>
      <trkpt lat="46.3566" lon="6.14529">
        <ele>475.45</ele>
        <time>2015-06-28T09:08:19Z</time>
      </trkpt>
      <trkpt lat="46.35658" lon="6.14523">
        <ele>475.49</ele>
        <time>2015-06-28T09:08:20Z</time>
      </trkpt>
      <trkpt lat="46.35654" lon="6.1452">
        <ele>475.47</ele>
        <time>2015-06-28T09:08:21Z</time>
      </trkpt>
      <trkpt lat="46.35649" lon="6.14519">
        <ele>475.54</ele>
        <time>2015-06-28T09:08:22Z</time>
      </trkpt>
      <trkpt lat="46.35644" lon="6.14518">
        <ele>475.74</ele>
        <time>2015-06-28T09:08:23Z</time>
      </trkpt>
      <trkpt lat="46.3563" lon="6.14513">
        <ele>476.09</ele>
        <time>2015-06-28T09:08:26Z</time>
      </trkpt>
      <trkpt lat="46.3558" lon="6.14471">
        <ele>476.35</ele>
        <time>2015-06-28T09:08:37Z</time>
      </trkpt>
      <trkpt lat="46.35571" lon="6.14462">
        <ele>476.56</ele>
        <time>2015-06-28T09:08:39Z</time>
      </trkpt>
      <trkpt lat="46.35568" lon="6.14457">
        <ele>476.63</ele>
        <time>2015-06-28T09:08:40Z</time>
      </trkpt>
      <trkpt lat="46.35525" lon="6.14383">
        <ele>477.64</ele>
        <time>2015-06-28T09:08:53Z</time>
      </trkpt>
      <trkpt lat="46.35523" lon="6.14376">
        <ele>477.72</ele>
        <time>2015-06-28T09:08:54Z</time>
      </trkpt>
      <trkpt lat="46.35523" lon="6.14368">
        <ele>477.76</ele>
        <time>2015-06-28T09:08:55Z</time>
      </trkpt>
      <trkpt lat="46.35523" lon="6.14361">
        <ele>477.78</ele>
        <time>2015-06-28T09:08:56Z</time>
      </trkpt>
      <trkpt lat="46.35524" lon="6.14353">
        <ele>477.79</ele>
        <time>2015-06-28T09:08:57Z</time>
      </trkpt>
      <trkpt lat="46.35524" lon="6.14347">
        <ele>477.76</ele>
        <time>2015-06-28T09:08:58Z</time>
      </trkpt>
      <trkpt lat="46.35523" lon="6.1434">
        <ele>477.75</ele>
        <time>2015-06-28T09:08:59Z</time>
      </trkpt>
      <trkpt lat="46.35519" lon="6.14336">
        <ele>477.75</ele>
        <time>2015-06-28T09:09:00Z</time>
      </trkpt>
      <trkpt lat="46.35508" lon="6.14322">
        <ele>477.99</ele>
        <time>2015-06-28T09:09:03Z</time>
      </trkpt>
      <trkpt lat="46.35505" lon="6.14317">
        <ele>478.17</ele>
        <time>2015-06-28T09:09:04Z</time>
      </trkpt>
      <trkpt lat="46.35502" lon="6.1431">
        <ele>478.26</ele>
        <time>2015-06-28T09:09:05Z</time>
      </trkpt>
      <trkpt lat="46.35489" lon="6.14234">
        <ele>478.9</ele>
        <time>2015-06-28T09:09:15Z</time>
      </trkpt>
      <trkpt lat="46.35485" lon="6.14202">
        <ele>479.17</ele>
        <time>2015-06-28T09:09:19Z</time>
      </trkpt>
      <trkpt lat="46.35484" lon="6.14194">
        <ele>479.27</ele>
        <time>2015-06-28T09:09:20Z</time>
      </trkpt>
      <trkpt lat="46.35483" lon="6.14186">
        <ele>479.31</ele>
        <time>2015-06-28T09:09:21Z</time>
      </trkpt>
      <trkpt lat="46.3548" lon="6.14162">
        <ele>479.6</ele>
        <time>2015-06-28T09:09:24Z</time>
      </trkpt>
      <trkpt lat="46.35474" lon="6.14116">
        <ele>480.25</ele>
        <time>2015-06-28T09:09:30Z</time>
      </trkpt>
      <trkpt lat="46.35473" lon="6.14107">
        <ele>480.34</ele>
        <time>2015-06-28T09:09:31Z</time>
      </trkpt>
      <trkpt lat="46.3546" lon="6.14007">
        <ele>481.16</ele>
        <time>2015-06-28T09:09:44Z</time>
      </trkpt>
      <trkpt lat="46.35455" lon="6.13984">
        <ele>481.37</ele>
        <time>2015-06-28T09:09:47Z</time>
      </trkpt>
      <trkpt lat="46.35453" lon="6.13977">
        <ele>481.57</ele>
        <time>2015-06-28T09:09:48Z</time>
      </trkpt>
      <trkpt lat="46.35431" lon="6.13915">
        <ele>482.57</ele>
        <time>2015-06-28T09:10:00Z</time>
      </trkpt>
      <trkpt lat="46.35429" lon="6.13909">
        <ele>482.58</ele>
        <time>2015-06-28T09:10:01Z</time>
      </trkpt>
      <trkpt lat="46.35422" lon="6.13901">
        <ele>482.54</ele>
        <time>2015-06-28T09:10:03Z</time>
      </trkpt>
      <trkpt lat="46.35419" lon="6.13896">
        <ele>482.52</ele>
        <time>2015-06-28T09:10:04Z</time>
      </trkpt>
      <trkpt lat="46.35416" lon="6.1389">
        <ele>482.52</ele>
        <time>2015-06-28T09:10:05Z</time>
      </trkpt>
      <trkpt lat="46.35414" lon="6.13882">
        <ele>482.58</ele>
        <time>2015-06-28T09:10:06Z</time>
      </trkpt>
      <trkpt lat="46.35415" lon="6.13866">
        <ele>482.67</ele>
        <time>2015-06-28T09:10:08Z</time>
      </trkpt>
      <trkpt lat="46.35416" lon="6.13858">
        <ele>482.69</ele>
        <time>2015-06-28T09:10:09Z</time>
      </trkpt>
      <trkpt lat="46.35418" lon="6.1385">
        <ele>482.7</ele>
        <time>2015-06-28T09:10:10Z</time>
      </trkpt>
      <trkpt lat="46.35422" lon="6.13827">
        <ele>482.82</ele>
        <time>2015-06-28T09:10:13Z</time>
      </trkpt>
      <trkpt lat="46.35422" lon="6.13819">
        <ele>482.87</ele>
        <time>2015-06-28T09:10:14Z</time>
      </trkpt>
      <trkpt lat="46.3542" lon="6.13811">
        <ele>482.86</ele>
        <time>2015-06-28T09:10:15Z</time>
      </trkpt>
      <trkpt lat="46.35417" lon="6.13804">
        <ele>482.89</ele>
        <time>2015-06-28T09:10:16Z</time>
      </trkpt>
      <trkpt lat="46.35414" lon="6.13798">
        <ele>482.9</ele>
        <time>2015-06-28T09:10:17Z</time>
      </trkpt>
      <trkpt lat="46.35371" lon="6.13714">
        <ele>482.79</ele>
        <time>2015-06-28T09:10:30Z</time>
      </trkpt>
      <trkpt lat="46.3535" lon="6.13676">
        <ele>482.09</ele>
        <time>2015-06-28T09:10:36Z</time>
      </trkpt>
      <trkpt lat="46.35349" lon="6.13672">
        <ele>482.06</ele>
        <time>2015-06-28T09:10:37Z</time>
      </trkpt>
      <trkpt lat="46.35349" lon="6.13668">
        <ele>482.07</ele>
        <time>2015-06-28T09:10:38Z</time>
      </trkpt>
      <trkpt lat="46.3535" lon="6.13663">
        <ele>482.09</ele>
        <time>2015-06-28T09:10:39Z</time>
      </trkpt>
      <trkpt lat="46.35353" lon="6.13658">
        <ele>482.12</ele>
        <time>2015-06-28T09:10:40Z</time>
      </trkpt>
      <trkpt lat="46.35357" lon="6.13652">
        <ele>482.14</ele>
        <time>2015-06-28T09:10:41Z</time>
      </trkpt>
      <trkpt lat="46.3536" lon="6.13646">
        <ele>482.19</ele>
        <time>2015-06-28T09:10:42Z</time>
      </trkpt>
      <trkpt lat="46.35406" lon="6.13575">
        <ele>482.58</ele>
        <time>2015-06-28T09:10:54Z</time>
      </trkpt>
      <trkpt lat="46.3541" lon="6.1357">
        <ele>482.65</ele>
        <time>2015-06-28T09:10:55Z</time>
      </trkpt>
      <trkpt lat="46.35413" lon="6.13564">
        <ele>482.78</ele>
        <time>2015-06-28T09:10:56Z</time>
      </trkpt>
      <trkpt lat="46.35414" lon="6.13558">
        <ele>482.91</ele>
        <time>2015-06-28T09:10:57Z</time>
      </trkpt>
      <trkpt lat="46.35413" lon="6.13552">
        <ele>483.07</ele>
        <time>2015-06-28T09:10:58Z</time>
      </trkpt>
      <trkpt lat="46.35411" lon="6.13546">
        <ele>483.16</ele>
        <time>2015-06-28T09:10:59Z</time>
      </trkpt>
      <trkpt lat="46.35407" lon="6.13542">
        <ele>483.19</ele>
        <time>2015-06-28T09:11:00Z</time>
      </trkpt>
      <trkpt lat="46.35403" lon="6.13539">
        <ele>483.24</ele>
        <time>2015-06-28T09:11:01Z</time>
      </trkpt>
      <trkpt lat="46.35399" lon="6.13535">
        <ele>483.4</ele>
        <time>2015-06-28T09:11:02Z</time>
      </trkpt>
      <trkpt lat="46.35377" lon="6.13512">
        <ele>484.23</ele>
        <time>2015-06-28T09:11:08Z</time>
      </trkpt>
      <trkpt lat="46.35373" lon="6.13508">
        <ele>484.4</ele>
        <time>2015-06-28T09:11:09Z</time>
      </trkpt>
      <trkpt lat="46.3537" lon="6.13504">
        <ele>484.38</ele>
        <time>2015-06-28T09:11:10Z</time>
      </trkpt>
      <trkpt lat="46.35356" lon="6.13491">
        <ele>484.56</ele>
        <time>2015-06-28T09:11:14Z</time>
      </trkpt>
      <trkpt lat="46.35352" lon="6.13488">
        <ele>484.68</ele>
        <time>2015-06-28T09:11:15Z</time>
      </trkpt>
      <trkpt lat="46.35348" lon="6.13484">
        <ele>484.81</ele>
        <time>2015-06-28T09:11:16Z</time>
      </trkpt>
      <trkpt lat="46.35341" lon="6.13478">
        <ele>485.17</ele>
        <time>2015-06-28T09:11:18Z</time>
      </trkpt>
      <trkpt lat="46.35337" lon="6.13475">
        <ele>485.17</ele>
        <time>2015-06-28T09:11:19Z</time>
      </trkpt>
      <trkpt lat="46.35334" lon="6.13473">
        <ele>485.26</ele>
        <time>2015-06-28T09:11:20Z</time>
      </trkpt>
      <trkpt lat="46.3533" lon="6.1347">
        <ele>485.34</ele>
        <time>2015-06-28T09:11:21Z</time>
      </trkpt>
      <trkpt lat="46.35304" lon="6.13454">
        <ele>485.71</ele>
        <time>2015-06-28T09:11:27Z</time>
      </trkpt>
      <trkpt lat="46.35295" lon="6.1345">
        <ele>485.98</ele>
        <time>2015-06-28T09:11:29Z</time>
      </trkpt>
      <trkpt lat="46.35291" lon="6.13448">
        <ele>486.1</ele>
        <time>2015-06-28T09:11:30Z</time>
      </trkpt>
      <trkpt lat="46.35287" lon="6.13445">
        <ele>486.21</ele>
        <time>2015-06-28T09:11:31Z</time>
      </trkpt>
      <trkpt lat="46.35278" lon="6.1344">
        <ele>486.39</ele>
        <time>2015-06-28T09:11:33Z</time>
      </trkpt>
      <trkpt lat="46.3527" lon="6.13436">
        <ele>486.6</ele>
        <time>2015-06-28T09:11:35Z</time>
      </trkpt>
      <trkpt lat="46.35261" lon="6.1343">
        <ele>486.63</ele>
        <time>2015-06-28T09:11:37Z</time>
      </trkpt>
      <trkpt lat="46.352" lon="6.13386">
        <ele>487.59</ele>
        <time>2015-06-28T09:11:51Z</time>
      </trkpt>
      <trkpt lat="46.35136" lon="6.13339">
        <ele>488.77</ele>
        <time>2015-06-28T09:12:07Z</time>
      </trkpt>
      <trkpt lat="46.35098" lon="6.13281">
        <ele>490.99</ele>
        <time>2015-06-28T09:12:20Z</time>
      </trkpt>
      <trkpt lat="46.35093" lon="6.13272">
        <ele>491.35</ele>
        <time>2015-06-28T09:12:22Z</time>
      </trkpt>
      <trkpt lat="46.3509" lon="6.13268">
        <ele>491.52</ele>
        <time>2015-06-28T09:12:23Z</time>
      </trkpt>
      <trkpt lat="46.35087" lon="6.13264">
        <ele>491.52</ele>
        <time>2015-06-28T09:12:24Z</time>
      </trkpt>
      <trkpt lat="46.35084" lon="6.13261">
        <ele>491.65</ele>
        <time>2015-06-28T09:12:25Z</time>
      </trkpt>
      <trkpt lat="46.35041" lon="6.13223">
        <ele>493.26</ele>
        <time>2015-06-28T09:12:39Z</time>
      </trkpt>
      <trkpt lat="46.35034" lon="6.13217">
        <ele>493.24</ele>
        <time>2015-06-28T09:12:41Z</time>
      </trkpt>
      <trkpt lat="46.35031" lon="6.13213">
        <ele>493.26</ele>
        <time>2015-06-28T09:12:42Z</time>
      </trkpt>
      <trkpt lat="46.35028" lon="6.13209">
        <ele>493.35</ele>
        <time>2015-06-28T09:12:43Z</time>
      </trkpt>
      <trkpt lat="46.35025" lon="6.13204">
        <ele>493.36</ele>
        <time>2015-06-28T09:12:44Z</time>
      </trkpt>
      <trkpt lat="46.35019" lon="6.13196">
        <ele>493.36</ele>
        <time>2015-06-28T09:12:46Z</time>
      </trkpt>
      <trkpt lat="46.35012" lon="6.1319">
        <ele>493.52</ele>
        <time>2015-06-28T09:12:48Z</time>
      </trkpt>
      <trkpt lat="46.35006" lon="6.13182">
        <ele>493.68</ele>
        <time>2015-06-28T09:12:50Z</time>
      </trkpt>
      <trkpt lat="46.35003" lon="6.13178">
        <ele>493.73</ele>
        <time>2015-06-28T09:12:51Z</time>
      </trkpt>
      <trkpt lat="46.35" lon="6.13173">
        <ele>493.78</ele>
        <time>2015-06-28T09:12:52Z</time>
      </trkpt>
      <trkpt lat="46.34997" lon="6.13169">
        <ele>493.82</ele>
        <time>2015-06-28T09:12:53Z</time>
      </trkpt>
      <trkpt lat="46.34994" lon="6.13164">
        <ele>493.87</ele>
        <time>2015-06-28T09:12:54Z</time>
      </trkpt>
      <trkpt lat="46.34988" lon="6.13154">
        <ele>494.15</ele>
        <time>2015-06-28T09:12:56Z</time>
      </trkpt>
      <trkpt lat="46.34972" lon="6.13127">
        <ele>495.16</ele>
        <time>2015-06-28T09:13:02Z</time>
      </trkpt>
      <trkpt lat="46.34966" lon="6.13117">
        <ele>495.45</ele>
        <time>2015-06-28T09:13:04Z</time>
      </trkpt>
      <trkpt lat="46.34963" lon="6.13113">
        <ele>495.44</ele>
        <time>2015-06-28T09:13:05Z</time>
      </trkpt>
      <trkpt lat="46.34911" lon="6.13027">
        <ele>497</ele>
        <time>2015-06-28T09:13:23Z</time>
      </trkpt>
      <trkpt lat="46.34907" lon="6.13023">
        <ele>497.06</ele>
        <time>2015-06-28T09:13:24Z</time>
      </trkpt>
      <trkpt lat="46.34903" lon="6.13019">
        <ele>497.09</ele>
        <time>2015-06-28T09:13:25Z</time>
      </trkpt>
      <trkpt lat="46.34896" lon="6.13012">
        <ele>497.2</ele>
        <time>2015-06-28T09:13:27Z</time>
      </trkpt>
      <trkpt lat="46.34859" lon="6.12981">
        <ele>497.93</ele>
        <time>2015-06-28T09:13:36Z</time>
      </trkpt>
      <trkpt lat="46.34835" lon="6.12951">
        <ele>498.53</ele>
        <time>2015-06-28T09:13:43Z</time>
      </trkpt>
      <trkpt lat="46.34832" lon="6.12945">
        <ele>498.66</ele>
        <time>2015-06-28T09:13:44Z</time>
      </trkpt>
      <trkpt lat="46.34831" lon="6.12939">
        <ele>498.76</ele>
        <time>2015-06-28T09:13:45Z</time>
      </trkpt>
      <trkpt lat="46.34831" lon="6.12933">
        <ele>498.84</ele>
        <time>2015-06-28T09:13:46Z</time>
      </trkpt>
      <trkpt lat="46.34831" lon="6.12926">
        <ele>498.94</ele>
        <time>2015-06-28T09:13:47Z</time>
      </trkpt>
      <trkpt lat="46.34828" lon="6.12881">
        <ele>500.99</ele>
        <time>2015-06-28T09:13:55Z</time>
      </trkpt>
      <trkpt lat="46.34824" lon="6.12872">
        <ele>501.68</ele>
        <time>2015-06-28T09:13:57Z</time>
      </trkpt>
      <trkpt lat="46.34822" lon="6.12868">
        <ele>501.97</ele>
        <time>2015-06-28T09:13:58Z</time>
      </trkpt>
      <trkpt lat="46.3482" lon="6.12864">
        <ele>502.21</ele>
        <time>2015-06-28T09:13:59Z</time>
      </trkpt>
      <trkpt lat="46.34817" lon="6.1286">
        <ele>502.36</ele>
        <time>2015-06-28T09:14:00Z</time>
      </trkpt>
      <trkpt lat="46.34813" lon="6.12857">
        <ele>502.47</ele>
        <time>2015-06-28T09:14:01Z</time>
      </trkpt>
      <trkpt lat="46.3481" lon="6.12855">
        <ele>502.62</ele>
        <time>2015-06-28T09:14:02Z</time>
      </trkpt>
      <trkpt lat="46.34807" lon="6.12852">
        <ele>502.62</ele>
        <time>2015-06-28T09:14:03Z</time>
      </trkpt>
      <trkpt lat="46.34798" lon="6.12839">
        <ele>503.38</ele>
        <time>2015-06-28T09:14:06Z</time>
      </trkpt>
      <trkpt lat="46.34795" lon="6.12834">
        <ele>503.56</ele>
        <time>2015-06-28T09:14:07Z</time>
      </trkpt>
      <trkpt lat="46.34792" lon="6.12829">
        <ele>503.72</ele>
        <time>2015-06-28T09:14:08Z</time>
      </trkpt>
      <trkpt lat="46.34789" lon="6.12825">
        <ele>503.93</ele>
        <time>2015-06-28T09:14:09Z</time>
      </trkpt>
      <trkpt lat="46.34761" lon="6.12785">
        <ele>504.75</ele>
        <time>2015-06-28T09:14:17Z</time>
      </trkpt>
      <trkpt lat="46.34756" lon="6.12772">
        <ele>504.93</ele>
        <time>2015-06-28T09:14:19Z</time>
      </trkpt>
      <trkpt lat="46.34746" lon="6.12743">
        <ele>505.33</ele>
        <time>2015-06-28T09:14:24Z</time>
      </trkpt>
      <trkpt lat="46.34716" lon="6.12669">
        <ele>506.97</ele>
        <time>2015-06-28T09:14:38Z</time>
      </trkpt>
      <trkpt lat="46.34714" lon="6.12665">
        <ele>507.02</ele>
        <time>2015-06-28T09:14:39Z</time>
      </trkpt>
      <trkpt lat="46.34712" lon="6.1266">
        <ele>507.27</ele>
        <time>2015-06-28T09:14:40Z</time>
      </trkpt>
      <trkpt lat="46.34711" lon="6.12656">
        <ele>507.7</ele>
        <time>2015-06-28T09:14:41Z</time>
      </trkpt>
      <trkpt lat="46.34709" lon="6.12651">
        <ele>508.11</ele>
        <time>2015-06-28T09:14:42Z</time>
      </trkpt>
      <trkpt lat="46.34708" lon="6.12647">
        <ele>508.51</ele>
        <time>2015-06-28T09:14:43Z</time>
      </trkpt>
      <trkpt lat="46.34706" lon="6.12643">
        <ele>508.9</ele>
        <time>2015-06-28T09:14:44Z</time>
      </trkpt>
      <trkpt lat="46.34704" lon="6.12638">
        <ele>509.19</ele>
        <time>2015-06-28T09:14:45Z</time>
      </trkpt>
      <trkpt lat="46.34702" lon="6.12634">
        <ele>509.4</ele>
        <time>2015-06-28T09:14:46Z</time>
      </trkpt>
      <trkpt lat="46.34701" lon="6.12629">
        <ele>509.63</ele>
        <time>2015-06-28T09:14:47Z</time>
      </trkpt>
      <trkpt lat="46.34698" lon="6.12625">
        <ele>509.96</ele>
        <time>2015-06-28T09:14:48Z</time>
      </trkpt>
      <trkpt lat="46.34696" lon="6.1262">
        <ele>510.13</ele>
        <time>2015-06-28T09:14:49Z</time>
      </trkpt>
      <trkpt lat="46.34658" lon="6.12575">
        <ele>511.87</ele>
        <time>2015-06-28T09:15:02Z</time>
      </trkpt>
      <trkpt lat="46.34647" lon="6.12566">
        <ele>511.8</ele>
        <time>2015-06-28T09:15:05Z</time>
      </trkpt>
      <trkpt lat="46.34643" lon="6.12563">
        <ele>511.8</ele>
        <time>2015-06-28T09:15:06Z</time>
      </trkpt>
      <trkpt lat="46.34629" lon="6.12551">
        <ele>512.18</ele>
        <time>2015-06-28T09:15:10Z</time>
      </trkpt>
      <trkpt lat="46.34621" lon="6.12546">
        <ele>512.34</ele>
        <time>2015-06-28T09:15:12Z</time>
      </trkpt>
      <trkpt lat="46.34618" lon="6.12543">
        <ele>512.37</ele>
        <time>2015-06-28T09:15:13Z</time>
      </trkpt>
      <trkpt lat="46.34614" lon="6.1254">
        <ele>512.39</ele>
        <time>2015-06-28T09:15:14Z</time>
      </trkpt>
      <trkpt lat="46.34611" lon="6.12537">
        <ele>512.49</ele>
        <time>2015-06-28T09:15:15Z</time>
      </trkpt>
      <trkpt lat="46.34598" lon="6.12525">
        <ele>512.09</ele>
        <time>2015-06-28T09:15:19Z</time>
      </trkpt>
      <trkpt lat="46.34591" lon="6.12518">
        <ele>512.1</ele>
        <time>2015-06-28T09:15:21Z</time>
      </trkpt>
      <trkpt lat="46.34584" lon="6.12511">
        <ele>512.07</ele>
        <time>2015-06-28T09:15:23Z</time>
      </trkpt>
      <trkpt lat="46.34559" lon="6.1248">
        <ele>512.59</ele>
        <time>2015-06-28T09:15:31Z</time>
      </trkpt>
      <trkpt lat="46.34556" lon="6.12476">
        <ele>512.6</ele>
        <time>2015-06-28T09:15:32Z</time>
      </trkpt>
      <trkpt lat="46.34552" lon="6.12473">
        <ele>512.67</ele>
        <time>2015-06-28T09:15:33Z</time>
      </trkpt>
      <trkpt lat="46.3455" lon="6.12469">
        <ele>512.74</ele>
        <time>2015-06-28T09:15:34Z</time>
      </trkpt>
      <trkpt lat="46.34547" lon="6.12466">
        <ele>512.84</ele>
        <time>2015-06-28T09:15:35Z</time>
      </trkpt>
      <trkpt lat="46.34503" lon="6.12431">
        <ele>513.4</ele>
        <time>2015-06-28T09:15:48Z</time>
      </trkpt>
      <trkpt lat="46.34499" lon="6.12428">
        <ele>513.4</ele>
        <time>2015-06-28T09:15:49Z</time>
      </trkpt>
      <trkpt lat="46.34488" lon="6.12421">
        <ele>513.39</ele>
        <time>2015-06-28T09:15:52Z</time>
      </trkpt>
      <trkpt lat="46.34476" lon="6.12417">
        <ele>513.57</ele>
        <time>2015-06-28T09:15:55Z</time>
      </trkpt>
      <trkpt lat="46.34472" lon="6.12415">
        <ele>513.65</ele>
        <time>2015-06-28T09:15:56Z</time>
      </trkpt>
      <trkpt lat="46.34468" lon="6.12414">
        <ele>513.7</ele>
        <time>2015-06-28T09:15:57Z</time>
      </trkpt>
      <trkpt lat="46.34464" lon="6.12413">
        <ele>513.82</ele>
        <time>2015-06-28T09:15:58Z</time>
      </trkpt>
      <trkpt lat="46.3446" lon="6.12411">
        <ele>513.87</ele>
        <time>2015-06-28T09:15:59Z</time>
      </trkpt>
      <trkpt lat="46.34456" lon="6.1241">
        <ele>513.91</ele>
        <time>2015-06-28T09:16:00Z</time>
      </trkpt>
      <trkpt lat="46.34452" lon="6.12409">
        <ele>514.03</ele>
        <time>2015-06-28T09:16:01Z</time>
      </trkpt>
      <trkpt lat="46.34447" lon="6.12407">
        <ele>514.09</ele>
        <time>2015-06-28T09:16:02Z</time>
      </trkpt>
      <trkpt lat="46.34442" lon="6.12405">
        <ele>514.12</ele>
        <time>2015-06-28T09:16:03Z</time>
      </trkpt>
      <trkpt lat="46.34438" lon="6.12403">
        <ele>514.13</ele>
        <time>2015-06-28T09:16:04Z</time>
      </trkpt>
      <trkpt lat="46.34433" lon="6.12401">
        <ele>514.14</ele>
        <time>2015-06-28T09:16:05Z</time>
      </trkpt>
      <trkpt lat="46.34367" lon="6.12345">
        <ele>515.37</ele>
        <time>2015-06-28T09:16:22Z</time>
      </trkpt>
      <trkpt lat="46.34342" lon="6.12315">
        <ele>515.09</ele>
        <time>2015-06-28T09:16:29Z</time>
      </trkpt>
      <trkpt lat="46.34338" lon="6.12312">
        <ele>515.26</ele>
        <time>2015-06-28T09:16:30Z</time>
      </trkpt>
      <trkpt lat="46.34335" lon="6.12311">
        <ele>515.49</ele>
        <time>2015-06-28T09:16:31Z</time>
      </trkpt>
      <trkpt lat="46.34331" lon="6.12311">
        <ele>515.47</ele>
        <time>2015-06-28T09:16:32Z</time>
      </trkpt>
      <trkpt lat="46.34326" lon="6.12311">
        <ele>515.46</ele>
        <time>2015-06-28T09:16:33Z</time>
      </trkpt>
      <trkpt lat="46.34317" lon="6.12312">
        <ele>515.56</ele>
        <time>2015-06-28T09:16:35Z</time>
      </trkpt>
      <trkpt lat="46.34312" lon="6.12311">
        <ele>515.65</ele>
        <time>2015-06-28T09:16:36Z</time>
      </trkpt>
      <trkpt lat="46.34306" lon="6.12308">
        <ele>515.55</ele>
        <time>2015-06-28T09:16:37Z</time>
      </trkpt>
      <trkpt lat="46.34302" lon="6.12303">
        <ele>515.28</ele>
        <time>2015-06-28T09:16:38Z</time>
      </trkpt>
      <trkpt lat="46.34295" lon="6.12291">
        <ele>515.03</ele>
        <time>2015-06-28T09:16:40Z</time>
      </trkpt>
      <trkpt lat="46.34284" lon="6.1226">
        <ele>515.17</ele>
        <time>2015-06-28T09:16:45Z</time>
      </trkpt>
      <trkpt lat="46.34236" lon="6.12165">
        <ele>516.92</ele>
        <time>2015-06-28T09:17:01Z</time>
      </trkpt>
      <trkpt lat="46.342" lon="6.1206">
        <ele>517.06</ele>
        <time>2015-06-28T09:17:15Z</time>
      </trkpt>
      <trkpt lat="46.34196" lon="6.12043">
        <ele>517.06</ele>
        <time>2015-06-28T09:17:17Z</time>
      </trkpt>
      <trkpt lat="46.34194" lon="6.12035">
        <ele>517.15</ele>
        <time>2015-06-28T09:17:18Z</time>
      </trkpt>
      <trkpt lat="46.34143" lon="6.11919">
        <ele>517.82</ele>
        <time>2015-06-28T09:17:34Z</time>
      </trkpt>
      <trkpt lat="46.34122" lon="6.11892">
        <ele>518.19</ele>
        <time>2015-06-28T09:17:39Z</time>
      </trkpt>
      <trkpt lat="46.34117" lon="6.11887">
        <ele>518.22</ele>
        <time>2015-06-28T09:17:40Z</time>
      </trkpt>
      <trkpt lat="46.34033" lon="6.11827">
        <ele>519.1</ele>
        <time>2015-06-28T09:17:56Z</time>
      </trkpt>
      <trkpt lat="46.33913" lon="6.11768">
        <ele>520.41</ele>
        <time>2015-06-28T09:18:18Z</time>
      </trkpt>
      <trkpt lat="46.33899" lon="6.11756">
        <ele>520.8</ele>
        <time>2015-06-28T09:18:21Z</time>
      </trkpt>
      <trkpt lat="46.33894" lon="6.11752">
        <ele>520.89</ele>
        <time>2015-06-28T09:18:22Z</time>
      </trkpt>
      <trkpt lat="46.33782" lon="6.11686">
        <ele>520.53</ele>
        <time>2015-06-28T09:18:42Z</time>
      </trkpt>
      <trkpt lat="46.33707" lon="6.11658">
        <ele>519.18</ele>
        <time>2015-06-28T09:18:53Z</time>
      </trkpt>
      <trkpt lat="46.337" lon="6.11655">
        <ele>519.02</ele>
        <time>2015-06-28T09:18:54Z</time>
      </trkpt>
      <trkpt lat="46.33605" lon="6.11588">
        <ele>519.24</ele>
        <time>2015-06-28T09:19:10Z</time>
      </trkpt>
      <trkpt lat="46.33512" lon="6.1154">
        <ele>519.43</ele>
        <time>2015-06-28T09:19:25Z</time>
      </trkpt>
      <trkpt lat="46.33405" lon="6.11495">
        <ele>518.43</ele>
        <time>2015-06-28T09:19:41Z</time>
      </trkpt>
      <trkpt lat="46.3332" lon="6.11444">
        <ele>517</ele>
        <time>2015-06-28T09:19:54Z</time>
      </trkpt>
      <trkpt lat="46.33236" lon="6.1137">
        <ele>517.41</ele>
        <time>2015-06-28T09:20:09Z</time>
      </trkpt>
      <trkpt lat="46.3323" lon="6.11368">
        <ele>517.27</ele>
        <time>2015-06-28T09:20:10Z</time>
      </trkpt>
      <trkpt lat="46.33224" lon="6.11368">
        <ele>517.27</ele>
        <time>2015-06-28T09:20:11Z</time>
      </trkpt>
      <trkpt lat="46.33218" lon="6.11369">
        <ele>517.2</ele>
        <time>2015-06-28T09:20:12Z</time>
      </trkpt>
      <trkpt lat="46.33212" lon="6.1137">
        <ele>517.17</ele>
        <time>2015-06-28T09:20:13Z</time>
      </trkpt>
      <trkpt lat="46.33206" lon="6.11373">
        <ele>517.15</ele>
        <time>2015-06-28T09:20:14Z</time>
      </trkpt>
      <trkpt lat="46.33116" lon="6.11413">
        <ele>515.94</ele>
        <time>2015-06-28T09:20:27Z</time>
      </trkpt>
      <trkpt lat="46.33109" lon="6.11418">
        <ele>515.73</ele>
        <time>2015-06-28T09:20:28Z</time>
      </trkpt>
      <trkpt lat="46.33081" lon="6.11445">
        <ele>514.88</ele>
        <time>2015-06-28T09:20:33Z</time>
      </trkpt>
      <trkpt lat="46.33071" lon="6.11449">
        <ele>514.61</ele>
        <time>2015-06-28T09:20:35Z</time>
      </trkpt>
      <trkpt lat="46.3306" lon="6.11451">
        <ele>514.21</ele>
        <time>2015-06-28T09:20:39Z</time>
      </trkpt>
      <trkpt lat="46.33058" lon="6.11451">
        <ele>514.03</ele>
        <time>2015-06-28T09:20:40Z</time>
      </trkpt>
      <trkpt lat="46.33055" lon="6.11451">
        <ele>513.85</ele>
        <time>2015-06-28T09:20:41Z</time>
      </trkpt>
      <trkpt lat="46.33052" lon="6.11452">
        <ele>513.75</ele>
        <time>2015-06-28T09:20:42Z</time>
      </trkpt>
      <trkpt lat="46.33048" lon="6.11451">
        <ele>513.64</ele>
        <time>2015-06-28T09:20:43Z</time>
      </trkpt>
      <trkpt lat="46.33043" lon="6.1145">
        <ele>513.62</ele>
        <time>2015-06-28T09:20:44Z</time>
      </trkpt>
      <trkpt lat="46.33038" lon="6.11448">
        <ele>513.61</ele>
        <time>2015-06-28T09:20:45Z</time>
      </trkpt>
      <trkpt lat="46.33033" lon="6.11446">
        <ele>513.57</ele>
        <time>2015-06-28T09:20:46Z</time>
      </trkpt>
      <trkpt lat="46.33023" lon="6.1144">
        <ele>513.35</ele>
        <time>2015-06-28T09:20:48Z</time>
      </trkpt>
      <trkpt lat="46.33001" lon="6.11424">
        <ele>512.75</ele>
        <time>2015-06-28T09:20:52Z</time>
      </trkpt>
      <trkpt lat="46.32967" lon="6.11406">
        <ele>511.96</ele>
        <time>2015-06-28T09:21:00Z</time>
      </trkpt>
      <trkpt lat="46.32965" lon="6.11405">
        <ele>511.85</ele>
        <time>2015-06-28T09:21:01Z</time>
      </trkpt>
      <trkpt lat="46.32963" lon="6.11404">
        <ele>511.79</ele>
        <time>2015-06-28T09:21:02Z</time>
      </trkpt>
      <trkpt lat="46.3296" lon="6.11404">
        <ele>511.79</ele>
        <time>2015-06-28T09:21:03Z</time>
      </trkpt>
      <trkpt lat="46.32953" lon="6.114">
        <ele>511.62</ele>
        <time>2015-06-28T09:21:05Z</time>
      </trkpt>
      <trkpt lat="46.32943" lon="6.11396">
        <ele>511.7</ele>
        <time>2015-06-28T09:21:07Z</time>
      </trkpt>
      <trkpt lat="46.32937" lon="6.11394">
        <ele>511.57</ele>
        <time>2015-06-28T09:21:08Z</time>
      </trkpt>
      <trkpt lat="46.32931" lon="6.11392">
        <ele>511.31</ele>
        <time>2015-06-28T09:21:09Z</time>
      </trkpt>
      <trkpt lat="46.32851" lon="6.11369">
        <ele>510.72</ele>
        <time>2015-06-28T09:21:21Z</time>
      </trkpt>
      <trkpt lat="46.32774" lon="6.11371">
        <ele>510.07</ele>
        <time>2015-06-28T09:21:32Z</time>
      </trkpt>
      <trkpt lat="46.32766" lon="6.1137">
        <ele>510.05</ele>
        <time>2015-06-28T09:21:33Z</time>
      </trkpt>
      <trkpt lat="46.32727" lon="6.1136">
        <ele>510.13</ele>
        <time>2015-06-28T09:21:39Z</time>
      </trkpt>
      <trkpt lat="46.32722" lon="6.11356">
        <ele>510.18</ele>
        <time>2015-06-28T09:21:40Z</time>
      </trkpt>
      <trkpt lat="46.32716" lon="6.11351">
        <ele>510.12</ele>
        <time>2015-06-28T09:21:41Z</time>
      </trkpt>
      <trkpt lat="46.32711" lon="6.11346">
        <ele>510.12</ele>
        <time>2015-06-28T09:21:42Z</time>
      </trkpt>
      <trkpt lat="46.32706" lon="6.11341">
        <ele>510.06</ele>
        <time>2015-06-28T09:21:43Z</time>
      </trkpt>
      <trkpt lat="46.32663" lon="6.11301">
        <ele>509.53</ele>
        <time>2015-06-28T09:21:51Z</time>
      </trkpt>
      <trkpt lat="46.32658" lon="6.11294">
        <ele>509.58</ele>
        <time>2015-06-28T09:21:52Z</time>
      </trkpt>
      <trkpt lat="46.32651" lon="6.11278">
        <ele>509.56</ele>
        <time>2015-06-28T09:21:54Z</time>
      </trkpt>
      <trkpt lat="46.32648" lon="6.11269">
        <ele>509.53</ele>
        <time>2015-06-28T09:21:55Z</time>
      </trkpt>
      <trkpt lat="46.32589" lon="6.11159">
        <ele>509.15</ele>
        <time>2015-06-28T09:22:10Z</time>
      </trkpt>
      <trkpt lat="46.32585" lon="6.1115">
        <ele>509.18</ele>
        <time>2015-06-28T09:22:11Z</time>
      </trkpt>
      <trkpt lat="46.32555" lon="6.11054">
        <ele>509.53</ele>
        <time>2015-06-28T09:22:21Z</time>
      </trkpt>
      <trkpt lat="46.32551" lon="6.11046">
        <ele>509.62</ele>
        <time>2015-06-28T09:22:22Z</time>
      </trkpt>
      <trkpt lat="46.32499" lon="6.10948">
        <ele>510.41</ele>
        <time>2015-06-28T09:22:36Z</time>
      </trkpt>
      <trkpt lat="46.32495" lon="6.10942">
        <ele>510.53</ele>
        <time>2015-06-28T09:22:37Z</time>
      </trkpt>
      <trkpt lat="46.32467" lon="6.10913">
        <ele>511.49</ele>
        <time>2015-06-28T09:22:43Z</time>
      </trkpt>
      <trkpt lat="46.32453" lon="6.10893">
        <ele>512.33</ele>
        <time>2015-06-28T09:22:47Z</time>
      </trkpt>
      <trkpt lat="46.32447" lon="6.10875">
        <ele>512.68</ele>
        <time>2015-06-28T09:22:50Z</time>
      </trkpt>
      <trkpt lat="46.32441" lon="6.10849">
        <ele>514.3</ele>
        <time>2015-06-28T09:22:54Z</time>
      </trkpt>
      <trkpt lat="46.32427" lon="6.1081">
        <ele>515.22</ele>
        <time>2015-06-28T09:23:00Z</time>
      </trkpt>
      <trkpt lat="46.32366" lon="6.10699">
        <ele>512.31</ele>
        <time>2015-06-28T09:23:15Z</time>
      </trkpt>
      <trkpt lat="46.3235" lon="6.10672">
        <ele>511.86</ele>
        <time>2015-06-28T09:23:19Z</time>
      </trkpt>
      <trkpt lat="46.32346" lon="6.10665">
        <ele>511.76</ele>
        <time>2015-06-28T09:23:20Z</time>
      </trkpt>
      <trkpt lat="46.32342" lon="6.10659">
        <ele>511.89</ele>
        <time>2015-06-28T09:23:21Z</time>
      </trkpt>
      <trkpt lat="46.32324" lon="6.10638">
        <ele>512.1</ele>
        <time>2015-06-28T09:23:25Z</time>
      </trkpt>
      <trkpt lat="46.32318" lon="6.10634">
        <ele>512.12</ele>
        <time>2015-06-28T09:23:26Z</time>
      </trkpt>
      <trkpt lat="46.32254" lon="6.10585">
        <ele>511.96</ele>
        <time>2015-06-28T09:23:38Z</time>
      </trkpt>
      <trkpt lat="46.3225" lon="6.10579">
        <ele>512.05</ele>
        <time>2015-06-28T09:23:39Z</time>
      </trkpt>
      <trkpt lat="46.32247" lon="6.10573">
        <ele>512.17</ele>
        <time>2015-06-28T09:23:40Z</time>
      </trkpt>
      <trkpt lat="46.32244" lon="6.10566">
        <ele>512.35</ele>
        <time>2015-06-28T09:23:41Z</time>
      </trkpt>
      <trkpt lat="46.32242" lon="6.10559">
        <ele>512.54</ele>
        <time>2015-06-28T09:23:42Z</time>
      </trkpt>
      <trkpt lat="46.3224" lon="6.10552">
        <ele>512.8</ele>
        <time>2015-06-28T09:23:43Z</time>
      </trkpt>
      <trkpt lat="46.32234" lon="6.10503">
        <ele>515.95</ele>
        <time>2015-06-28T09:23:50Z</time>
      </trkpt>
      <trkpt lat="46.32233" lon="6.10496">
        <ele>516.1</ele>
        <time>2015-06-28T09:23:51Z</time>
      </trkpt>
      <trkpt lat="46.32233" lon="6.10489">
        <ele>516.24</ele>
        <time>2015-06-28T09:23:52Z</time>
      </trkpt>
      <trkpt lat="46.32205" lon="6.10393">
        <ele>516.04</ele>
        <time>2015-06-28T09:24:05Z</time>
      </trkpt>
      <trkpt lat="46.32185" lon="6.10347">
        <ele>515.52</ele>
        <time>2015-06-28T09:24:12Z</time>
      </trkpt>
      <trkpt lat="46.32175" lon="6.1033">
        <ele>515.4</ele>
        <time>2015-06-28T09:24:15Z</time>
      </trkpt>
      <trkpt lat="46.32172" lon="6.10325">
        <ele>515.34</ele>
        <time>2015-06-28T09:24:16Z</time>
      </trkpt>
      <trkpt lat="46.32156" lon="6.10292">
        <ele>515.48</ele>
        <time>2015-06-28T09:24:22Z</time>
      </trkpt>
      <trkpt lat="46.32154" lon="6.10286">
        <ele>515.64</ele>
        <time>2015-06-28T09:24:23Z</time>
      </trkpt>
      <trkpt lat="46.32152" lon="6.1028">
        <ele>515.61</ele>
        <time>2015-06-28T09:24:24Z</time>
      </trkpt>
      <trkpt lat="46.3215" lon="6.10274">
        <ele>515.53</ele>
        <time>2015-06-28T09:24:25Z</time>
      </trkpt>
      <trkpt lat="46.32149" lon="6.10268">
        <ele>515.53</ele>
        <time>2015-06-28T09:24:26Z</time>
      </trkpt>
      <trkpt lat="46.32148" lon="6.10262">
        <ele>515.53</ele>
        <time>2015-06-28T09:24:27Z</time>
      </trkpt>
      <trkpt lat="46.32146" lon="6.10258">
        <ele>515.67</ele>
        <time>2015-06-28T09:24:28Z</time>
      </trkpt>
      <trkpt lat="46.32144" lon="6.10253">
        <ele>515.76</ele>
        <time>2015-06-28T09:24:29Z</time>
      </trkpt>
      <trkpt lat="46.32142" lon="6.10247">
        <ele>515.87</ele>
        <time>2015-06-28T09:24:30Z</time>
      </trkpt>
      <trkpt lat="46.3214" lon="6.10241">
        <ele>515.99</ele>
        <time>2015-06-28T09:24:31Z</time>
      </trkpt>
      <trkpt lat="46.32135" lon="6.1023">
        <ele>516.43</ele>
        <time>2015-06-28T09:24:33Z</time>
      </trkpt>
      <trkpt lat="46.32133" lon="6.10225">
        <ele>516.34</ele>
        <time>2015-06-28T09:24:34Z</time>
      </trkpt>
      <trkpt lat="46.32132" lon="6.1022">
        <ele>516.25</ele>
        <time>2015-06-28T09:24:35Z</time>
      </trkpt>
      <trkpt lat="46.3213" lon="6.10215">
        <ele>516.38</ele>
        <time>2015-06-28T09:24:36Z</time>
      </trkpt>
      <trkpt lat="46.32128" lon="6.1021">
        <ele>516.45</ele>
        <time>2015-06-28T09:24:37Z</time>
      </trkpt>
      <trkpt lat="46.32117" lon="6.10169">
        <ele>517.36</ele>
        <time>2015-06-28T09:24:44Z</time>
      </trkpt>
      <trkpt lat="46.32116" lon="6.10162">
        <ele>517.46</ele>
        <time>2015-06-28T09:24:45Z</time>
      </trkpt>
      <trkpt lat="46.32115" lon="6.10156">
        <ele>517.5</ele>
        <time>2015-06-28T09:24:46Z</time>
      </trkpt>
      <trkpt lat="46.32114" lon="6.10149">
        <ele>517.56</ele>
        <time>2015-06-28T09:24:47Z</time>
      </trkpt>
      <trkpt lat="46.32114" lon="6.10143">
        <ele>517.62</ele>
        <time>2015-06-28T09:24:48Z</time>
      </trkpt>
      <trkpt lat="46.32092" lon="6.10045">
        <ele>519.18</ele>
        <time>2015-06-28T09:25:04Z</time>
      </trkpt>
      <trkpt lat="46.32091" lon="6.10039">
        <ele>519.42</ele>
        <time>2015-06-28T09:25:05Z</time>
      </trkpt>
      <trkpt lat="46.32091" lon="6.10033">
        <ele>519.71</ele>
        <time>2015-06-28T09:25:06Z</time>
      </trkpt>
      <trkpt lat="46.32091" lon="6.10027">
        <ele>519.99</ele>
        <time>2015-06-28T09:25:07Z</time>
      </trkpt>
      <trkpt lat="46.32092" lon="6.10022">
        <ele>520.33</ele>
        <time>2015-06-28T09:25:08Z</time>
      </trkpt>
      <trkpt lat="46.32104" lon="6.09986">
        <ele>523.33</ele>
        <time>2015-06-28T09:25:16Z</time>
      </trkpt>
      <trkpt lat="46.32106" lon="6.09983">
        <ele>523.87</ele>
        <time>2015-06-28T09:25:17Z</time>
      </trkpt>
      <trkpt lat="46.32108" lon="6.0998">
        <ele>524.31</ele>
        <time>2015-06-28T09:25:18Z</time>
      </trkpt>
      <trkpt lat="46.3211" lon="6.09977">
        <ele>524.67</ele>
        <time>2015-06-28T09:25:19Z</time>
      </trkpt>
      <trkpt lat="46.32112" lon="6.09974">
        <ele>525.08</ele>
        <time>2015-06-28T09:25:20Z</time>
      </trkpt>
      <trkpt lat="46.32115" lon="6.0997">
        <ele>525.6</ele>
        <time>2015-06-28T09:25:21Z</time>
      </trkpt>
      <trkpt lat="46.32117" lon="6.09966">
        <ele>526.1</ele>
        <time>2015-06-28T09:25:22Z</time>
      </trkpt>
      <trkpt lat="46.32119" lon="6.09962">
        <ele>526.44</ele>
        <time>2015-06-28T09:25:23Z</time>
      </trkpt>
      <trkpt lat="46.32121" lon="6.09957">
        <ele>526.68</ele>
        <time>2015-06-28T09:25:24Z</time>
      </trkpt>
      <trkpt lat="46.32124" lon="6.09947">
        <ele>526.95</ele>
        <time>2015-06-28T09:25:26Z</time>
      </trkpt>
      <trkpt lat="46.32125" lon="6.09942">
        <ele>527.22</ele>
        <time>2015-06-28T09:25:27Z</time>
      </trkpt>
      <trkpt lat="46.32127" lon="6.09934">
        <ele>528.05</ele>
        <time>2015-06-28T09:25:29Z</time>
      </trkpt>
      <trkpt lat="46.32127" lon="6.09929">
        <ele>528.39</ele>
        <time>2015-06-28T09:25:30Z</time>
      </trkpt>
      <trkpt lat="46.32127" lon="6.09924">
        <ele>528.63</ele>
        <time>2015-06-28T09:25:31Z</time>
      </trkpt>
      <trkpt lat="46.32127" lon="6.0992">
        <ele>528.77</ele>
        <time>2015-06-28T09:25:32Z</time>
      </trkpt>
      <trkpt lat="46.32127" lon="6.09914">
        <ele>528.77</ele>
        <time>2015-06-28T09:25:33Z</time>
      </trkpt>
      <trkpt lat="46.32126" lon="6.09909">
        <ele>528.88</ele>
        <time>2015-06-28T09:25:34Z</time>
      </trkpt>
      <trkpt lat="46.32126" lon="6.09903">
        <ele>529.05</ele>
        <time>2015-06-28T09:25:35Z</time>
      </trkpt>
      <trkpt lat="46.32125" lon="6.09893">
        <ele>529.6</ele>
        <time>2015-06-28T09:25:37Z</time>
      </trkpt>
      <trkpt lat="46.32124" lon="6.09887">
        <ele>529.75</ele>
        <time>2015-06-28T09:25:38Z</time>
      </trkpt>
      <trkpt lat="46.32124" lon="6.09882">
        <ele>530.02</ele>
        <time>2015-06-28T09:25:39Z</time>
      </trkpt>
      <trkpt lat="46.32124" lon="6.09876">
        <ele>530.28</ele>
        <time>2015-06-28T09:25:40Z</time>
      </trkpt>
      <trkpt lat="46.32123" lon="6.09864">
        <ele>530.72</ele>
        <time>2015-06-28T09:25:42Z</time>
      </trkpt>
      <trkpt lat="46.32123" lon="6.09858">
        <ele>530.93</ele>
        <time>2015-06-28T09:25:43Z</time>
      </trkpt>
      <trkpt lat="46.32123" lon="6.09853">
        <ele>531.19</ele>
        <time>2015-06-28T09:25:44Z</time>
      </trkpt>
      <trkpt lat="46.32123" lon="6.09848">
        <ele>531.53</ele>
        <time>2015-06-28T09:25:45Z</time>
      </trkpt>
      <trkpt lat="46.32124" lon="6.09842">
        <ele>531.89</ele>
        <time>2015-06-28T09:25:46Z</time>
      </trkpt>
      <trkpt lat="46.32125" lon="6.09837">
        <ele>532.19</ele>
        <time>2015-06-28T09:25:47Z</time>
      </trkpt>
      <trkpt lat="46.32125" lon="6.09832">
        <ele>532.44</ele>
        <time>2015-06-28T09:25:48Z</time>
      </trkpt>
      <trkpt lat="46.32125" lon="6.09827">
        <ele>532.56</ele>
        <time>2015-06-28T09:25:49Z</time>
      </trkpt>
      <trkpt lat="46.32126" lon="6.09816">
        <ele>532.76</ele>
        <time>2015-06-28T09:25:51Z</time>
      </trkpt>
      <trkpt lat="46.32126" lon="6.09811">
        <ele>532.76</ele>
        <time>2015-06-28T09:25:52Z</time>
      </trkpt>
      <trkpt lat="46.32126" lon="6.09806">
        <ele>532.76</ele>
        <time>2015-06-28T09:25:53Z</time>
      </trkpt>
      <trkpt lat="46.32125" lon="6.09802">
        <ele>532.76</ele>
        <time>2015-06-28T09:25:54Z</time>
      </trkpt>
      <trkpt lat="46.32125" lon="6.09798">
        <ele>532.76</ele>
        <time>2015-06-28T09:25:55Z</time>
      </trkpt>
      <trkpt lat="46.32124" lon="6.09794">
        <ele>532.79</ele>
        <time>2015-06-28T09:25:56Z</time>
      </trkpt>
      <trkpt lat="46.32124" lon="6.0979">
        <ele>532.87</ele>
        <time>2015-06-28T09:25:57Z</time>
      </trkpt>
      <trkpt lat="46.32123" lon="6.09787">
        <ele>532.91</ele>
        <time>2015-06-28T09:25:58Z</time>
      </trkpt>
      <trkpt lat="46.32123" lon="6.09784">
        <ele>533.09</ele>
        <time>2015-06-28T09:25:59Z</time>
      </trkpt>
      <trkpt lat="46.32122" lon="6.0978">
        <ele>533.09</ele>
        <time>2015-06-28T09:26:00Z</time>
      </trkpt>
      <trkpt lat="46.32122" lon="6.09777">
        <ele>533.23</ele>
        <time>2015-06-28T09:26:01Z</time>
      </trkpt>
      <trkpt lat="46.32121" lon="6.09774">
        <ele>533.29</ele>
        <time>2015-06-28T09:26:02Z</time>
      </trkpt>
      <trkpt lat="46.3212" lon="6.09771">
        <ele>533.32</ele>
        <time>2015-06-28T09:26:03Z</time>
      </trkpt>
      <trkpt lat="46.3212" lon="6.09767">
        <ele>533.43</ele>
        <time>2015-06-28T09:26:04Z</time>
      </trkpt>
      <trkpt lat="46.32118" lon="6.0976">
        <ele>533.49</ele>
        <time>2015-06-28T09:26:06Z</time>
      </trkpt>
      <trkpt lat="46.32117" lon="6.09756">
        <ele>533.58</ele>
        <time>2015-06-28T09:26:07Z</time>
      </trkpt>
      <trkpt lat="46.32117" lon="6.09752">
        <ele>533.76</ele>
        <time>2015-06-28T09:26:08Z</time>
      </trkpt>
      <trkpt lat="46.32116" lon="6.09747">
        <ele>533.81</ele>
        <time>2015-06-28T09:26:09Z</time>
      </trkpt>
      <trkpt lat="46.32115" lon="6.09744">
        <ele>533.84</ele>
        <time>2015-06-28T09:26:10Z</time>
      </trkpt>
      <trkpt lat="46.32114" lon="6.09739">
        <ele>533.76</ele>
        <time>2015-06-28T09:26:11Z</time>
      </trkpt>
      <trkpt lat="46.32113" lon="6.09735">
        <ele>533.65</ele>
        <time>2015-06-28T09:26:12Z</time>
      </trkpt>
      <trkpt lat="46.32113" lon="6.09731">
        <ele>533.59</ele>
        <time>2015-06-28T09:26:13Z</time>
      </trkpt>
      <trkpt lat="46.32112" lon="6.09727">
        <ele>533.56</ele>
        <time>2015-06-28T09:26:14Z</time>
      </trkpt>
      <trkpt lat="46.32109" lon="6.09719">
        <ele>533.58</ele>
        <time>2015-06-28T09:26:16Z</time>
      </trkpt>
      <trkpt lat="46.32108" lon="6.09715">
        <ele>533.73</ele>
        <time>2015-06-28T09:26:17Z</time>
      </trkpt>
      <trkpt lat="46.32107" lon="6.09712">
        <ele>533.74</ele>
        <time>2015-06-28T09:26:18Z</time>
      </trkpt>
      <trkpt lat="46.32106" lon="6.09708">
        <ele>533.74</ele>
        <time>2015-06-28T09:26:19Z</time>
      </trkpt>
      <trkpt lat="46.32105" lon="6.09704">
        <ele>533.8</ele>
        <time>2015-06-28T09:26:20Z</time>
      </trkpt>
      <trkpt lat="46.32104" lon="6.097">
        <ele>533.84</ele>
        <time>2015-06-28T09:26:21Z</time>
      </trkpt>
      <trkpt lat="46.32104" lon="6.09695">
        <ele>533.86</ele>
        <time>2015-06-28T09:26:22Z</time>
      </trkpt>
      <trkpt lat="46.32104" lon="6.09691">
        <ele>534</ele>
        <time>2015-06-28T09:26:23Z</time>
      </trkpt>
      <trkpt lat="46.32102" lon="6.09681">
        <ele>534.43</ele>
        <time>2015-06-28T09:26:25Z</time>
      </trkpt>
      <trkpt lat="46.32102" lon="6.09677">
        <ele>534.58</ele>
        <time>2015-06-28T09:26:26Z</time>
      </trkpt>
      <trkpt lat="46.32101" lon="6.09672">
        <ele>534.76</ele>
        <time>2015-06-28T09:26:27Z</time>
      </trkpt>
      <trkpt lat="46.32101" lon="6.09668">
        <ele>534.94</ele>
        <time>2015-06-28T09:26:28Z</time>
      </trkpt>
      <trkpt lat="46.32101" lon="6.09663">
        <ele>535.04</ele>
        <time>2015-06-28T09:26:29Z</time>
      </trkpt>
      <trkpt lat="46.32102" lon="6.09658">
        <ele>535.11</ele>
        <time>2015-06-28T09:26:30Z</time>
      </trkpt>
      <trkpt lat="46.32102" lon="6.09653">
        <ele>535.28</ele>
        <time>2015-06-28T09:26:31Z</time>
      </trkpt>
      <trkpt lat="46.32103" lon="6.09648">
        <ele>535.36</ele>
        <time>2015-06-28T09:26:32Z</time>
      </trkpt>
      <trkpt lat="46.32103" lon="6.09644">
        <ele>535.5</ele>
        <time>2015-06-28T09:26:33Z</time>
      </trkpt>
      <trkpt lat="46.32104" lon="6.0964">
        <ele>535.6</ele>
        <time>2015-06-28T09:26:34Z</time>
      </trkpt>
      <trkpt lat="46.32105" lon="6.09636">
        <ele>535.72</ele>
        <time>2015-06-28T09:26:35Z</time>
      </trkpt>
      <trkpt lat="46.32105" lon="6.09631">
        <ele>535.96</ele>
        <time>2015-06-28T09:26:36Z</time>
      </trkpt>
      <trkpt lat="46.32106" lon="6.09627">
        <ele>536.3</ele>
        <time>2015-06-28T09:26:37Z</time>
      </trkpt>
      <trkpt lat="46.32106" lon="6.09623">
        <ele>536.3</ele>
        <time>2015-06-28T09:26:38Z</time>
      </trkpt>
      <trkpt lat="46.32106" lon="6.09619">
        <ele>536.58</ele>
        <time>2015-06-28T09:26:39Z</time>
      </trkpt>
      <trkpt lat="46.32107" lon="6.09615">
        <ele>536.79</ele>
        <time>2015-06-28T09:26:40Z</time>
      </trkpt>
      <trkpt lat="46.32106" lon="6.09611">
        <ele>536.96</ele>
        <time>2015-06-28T09:26:41Z</time>
      </trkpt>
      <trkpt lat="46.32105" lon="6.09607">
        <ele>537.41</ele>
        <time>2015-06-28T09:26:42Z</time>
      </trkpt>
      <trkpt lat="46.32103" lon="6.09598">
        <ele>537.55</ele>
        <time>2015-06-28T09:26:44Z</time>
      </trkpt>
      <trkpt lat="46.32102" lon="6.09594">
        <ele>537.69</ele>
        <time>2015-06-28T09:26:45Z</time>
      </trkpt>
      <trkpt lat="46.32101" lon="6.09589">
        <ele>537.77</ele>
        <time>2015-06-28T09:26:46Z</time>
      </trkpt>
      <trkpt lat="46.32099" lon="6.09584">
        <ele>537.97</ele>
        <time>2015-06-28T09:26:47Z</time>
      </trkpt>
      <trkpt lat="46.32098" lon="6.09579">
        <ele>538.26</ele>
        <time>2015-06-28T09:26:48Z</time>
      </trkpt>
      <trkpt lat="46.32097" lon="6.09575">
        <ele>538.58</ele>
        <time>2015-06-28T09:26:49Z</time>
      </trkpt>
      <trkpt lat="46.32096" lon="6.09571">
        <ele>538.8</ele>
        <time>2015-06-28T09:26:50Z</time>
      </trkpt>
      <trkpt lat="46.32095" lon="6.09566">
        <ele>538.94</ele>
        <time>2015-06-28T09:26:51Z</time>
      </trkpt>
      <trkpt lat="46.32094" lon="6.09562">
        <ele>539.08</ele>
        <time>2015-06-28T09:26:52Z</time>
      </trkpt>
      <trkpt lat="46.32094" lon="6.09557">
        <ele>539.14</ele>
        <time>2015-06-28T09:26:53Z</time>
      </trkpt>
      <trkpt lat="46.32095" lon="6.09553">
        <ele>539.18</ele>
        <time>2015-06-28T09:26:54Z</time>
      </trkpt>
      <trkpt lat="46.32096" lon="6.09549">
        <ele>539.26</ele>
        <time>2015-06-28T09:26:55Z</time>
      </trkpt>
      <trkpt lat="46.32097" lon="6.09545">
        <ele>539.4</ele>
        <time>2015-06-28T09:26:56Z</time>
      </trkpt>
      <trkpt lat="46.32098" lon="6.09541">
        <ele>539.47</ele>
        <time>2015-06-28T09:26:57Z</time>
      </trkpt>
      <trkpt lat="46.32099" lon="6.09538">
        <ele>539.64</ele>
        <time>2015-06-28T09:26:58Z</time>
      </trkpt>
      <trkpt lat="46.321" lon="6.09535">
        <ele>539.81</ele>
        <time>2015-06-28T09:26:59Z</time>
      </trkpt>
      <trkpt lat="46.32101" lon="6.09532">
        <ele>539.91</ele>
        <time>2015-06-28T09:27:00Z</time>
      </trkpt>
      <trkpt lat="46.32103" lon="6.09526">
        <ele>540.14</ele>
        <time>2015-06-28T09:27:02Z</time>
      </trkpt>
      <trkpt lat="46.32106" lon="6.0952">
        <ele>540.28</ele>
        <time>2015-06-28T09:27:04Z</time>
      </trkpt>
      <trkpt lat="46.32109" lon="6.09513">
        <ele>540.34</ele>
        <time>2015-06-28T09:27:06Z</time>
      </trkpt>
      <trkpt lat="46.3211" lon="6.0951">
        <ele>540.43</ele>
        <time>2015-06-28T09:27:07Z</time>
      </trkpt>
      <trkpt lat="46.32112" lon="6.09507">
        <ele>540.48</ele>
        <time>2015-06-28T09:27:08Z</time>
      </trkpt>
      <trkpt lat="46.32113" lon="6.09504">
        <ele>540.49</ele>
        <time>2015-06-28T09:27:09Z</time>
      </trkpt>
      <trkpt lat="46.32115" lon="6.09501">
        <ele>540.5</ele>
        <time>2015-06-28T09:27:10Z</time>
      </trkpt>
      <trkpt lat="46.32117" lon="6.09499">
        <ele>540.51</ele>
        <time>2015-06-28T09:27:11Z</time>
      </trkpt>
      <trkpt lat="46.32119" lon="6.09496">
        <ele>540.51</ele>
        <time>2015-06-28T09:27:12Z</time>
      </trkpt>
      <trkpt lat="46.32121" lon="6.09493">
        <ele>540.41</ele>
        <time>2015-06-28T09:27:13Z</time>
      </trkpt>
      <trkpt lat="46.32122" lon="6.0949">
        <ele>540.36</ele>
        <time>2015-06-28T09:27:14Z</time>
      </trkpt>
      <trkpt lat="46.32124" lon="6.09487">
        <ele>540.37</ele>
        <time>2015-06-28T09:27:15Z</time>
      </trkpt>
      <trkpt lat="46.32127" lon="6.09482">
        <ele>540.38</ele>
        <time>2015-06-28T09:27:17Z</time>
      </trkpt>
      <trkpt lat="46.32128" lon="6.0948">
        <ele>540.68</ele>
        <time>2015-06-28T09:27:18Z</time>
      </trkpt>
      <trkpt lat="46.32128" lon="6.09477">
        <ele>540.83</ele>
        <time>2015-06-28T09:27:19Z</time>
      </trkpt>
      <trkpt lat="46.32128" lon="6.09475">
        <ele>541</ele>
        <time>2015-06-28T09:27:20Z</time>
      </trkpt>
      <trkpt lat="46.32128" lon="6.09472">
        <ele>541.04</ele>
        <time>2015-06-28T09:27:21Z</time>
      </trkpt>
      <trkpt lat="46.32129" lon="6.09471">
        <ele>541.07</ele>
        <time>2015-06-28T09:27:36Z</time>
      </trkpt>
      <trkpt lat="46.32132" lon="6.09469">
        <ele>541.1</ele>
        <time>2015-06-28T09:28:05Z</time>
      </trkpt>
      <trkpt lat="46.32133" lon="6.09467">
        <ele>541.14</ele>
        <time>2015-06-28T09:28:06Z</time>
      </trkpt>
      <trkpt lat="46.32136" lon="6.09465">
        <ele>541.16</ele>
        <time>2015-06-28T09:28:07Z</time>
      </trkpt>
      <trkpt lat="46.32159" lon="6.09439">
        <ele>540.88</ele>
        <time>2015-06-28T09:28:16Z</time>
      </trkpt>
      <trkpt lat="46.32165" lon="6.09433">
        <ele>540.85</ele>
        <time>2015-06-28T09:28:18Z</time>
      </trkpt>
      <trkpt lat="46.32168" lon="6.09429">
        <ele>540.77</ele>
        <time>2015-06-28T09:28:19Z</time>
      </trkpt>
      <trkpt lat="46.32172" lon="6.09425">
        <ele>540.7</ele>
        <time>2015-06-28T09:28:20Z</time>
      </trkpt>
      <trkpt lat="46.32175" lon="6.09422">
        <ele>540.66</ele>
        <time>2015-06-28T09:28:21Z</time>
      </trkpt>
      <trkpt lat="46.32178" lon="6.09417">
        <ele>540.63</ele>
        <time>2015-06-28T09:28:22Z</time>
      </trkpt>
      <trkpt lat="46.32184" lon="6.09409">
        <ele>540.72</ele>
        <time>2015-06-28T09:28:24Z</time>
      </trkpt>
      <trkpt lat="46.32187" lon="6.09405">
        <ele>540.66</ele>
        <time>2015-06-28T09:28:25Z</time>
      </trkpt>
      <trkpt lat="46.32194" lon="6.09391">
        <ele>540.86</ele>
        <time>2015-06-28T09:28:28Z</time>
      </trkpt>
      <trkpt lat="46.32197" lon="6.09387">
        <ele>540.82</ele>
        <time>2015-06-28T09:28:29Z</time>
      </trkpt>
      <trkpt lat="46.32199" lon="6.09383">
        <ele>540.84</ele>
        <time>2015-06-28T09:28:30Z</time>
      </trkpt>
      <trkpt lat="46.322" lon="6.09378">
        <ele>540.85</ele>
        <time>2015-06-28T09:28:31Z</time>
      </trkpt>
      <trkpt lat="46.32202" lon="6.09373">
        <ele>541.04</ele>
        <time>2015-06-28T09:28:32Z</time>
      </trkpt>
      <trkpt lat="46.32204" lon="6.09367">
        <ele>541.24</ele>
        <time>2015-06-28T09:28:33Z</time>
      </trkpt>
      <trkpt lat="46.32206" lon="6.09356">
        <ele>541.36</ele>
        <time>2015-06-28T09:28:35Z</time>
      </trkpt>
      <trkpt lat="46.32206" lon="6.09351">
        <ele>541.72</ele>
        <time>2015-06-28T09:28:36Z</time>
      </trkpt>
      <trkpt lat="46.32207" lon="6.09339">
        <ele>541.78</ele>
        <time>2015-06-28T09:28:38Z</time>
      </trkpt>
      <trkpt lat="46.32207" lon="6.09332">
        <ele>541.82</ele>
        <time>2015-06-28T09:28:39Z</time>
      </trkpt>
      <trkpt lat="46.32206" lon="6.09326">
        <ele>541.84</ele>
        <time>2015-06-28T09:28:40Z</time>
      </trkpt>
      <trkpt lat="46.32205" lon="6.09319">
        <ele>541.85</ele>
        <time>2015-06-28T09:28:41Z</time>
      </trkpt>
      <trkpt lat="46.32204" lon="6.09312">
        <ele>541.85</ele>
        <time>2015-06-28T09:28:42Z</time>
      </trkpt>
      <trkpt lat="46.32202" lon="6.09306">
        <ele>541.75</ele>
        <time>2015-06-28T09:28:43Z</time>
      </trkpt>
      <trkpt lat="46.32171" lon="6.09193">
        <ele>541.33</ele>
        <time>2015-06-28T09:28:58Z</time>
      </trkpt>
      <trkpt lat="46.32155" lon="6.09136">
        <ele>541.38</ele>
        <time>2015-06-28T09:29:05Z</time>
      </trkpt>
      <trkpt lat="46.32154" lon="6.09127">
        <ele>541.34</ele>
        <time>2015-06-28T09:29:06Z</time>
      </trkpt>
      <trkpt lat="46.32155" lon="6.09">
        <ele>538.25</ele>
        <time>2015-06-28T09:29:18Z</time>
      </trkpt>
      <trkpt lat="46.32146" lon="6.08906">
        <ele>538.16</ele>
        <time>2015-06-28T09:29:27Z</time>
      </trkpt>
      <trkpt lat="46.32135" lon="6.08864">
        <ele>538.3</ele>
        <time>2015-06-28T09:29:31Z</time>
      </trkpt>
      <trkpt lat="46.32132" lon="6.08854">
        <ele>538.14</ele>
        <time>2015-06-28T09:29:32Z</time>
      </trkpt>
      <trkpt lat="46.32129" lon="6.08844">
        <ele>537.93</ele>
        <time>2015-06-28T09:29:33Z</time>
      </trkpt>
      <trkpt lat="46.32125" lon="6.08834">
        <ele>537.83</ele>
        <time>2015-06-28T09:29:34Z</time>
      </trkpt>
      <trkpt lat="46.32084" lon="6.08674">
        <ele>538.3</ele>
        <time>2015-06-28T09:29:51Z</time>
      </trkpt>
      <trkpt lat="46.32035" lon="6.08499">
        <ele>536.79</ele>
        <time>2015-06-28T09:30:09Z</time>
      </trkpt>
      <trkpt lat="46.31988" lon="6.08349">
        <ele>535.12</ele>
        <time>2015-06-28T09:30:24Z</time>
      </trkpt>
      <trkpt lat="46.31952" lon="6.08251">
        <ele>534.14</ele>
        <time>2015-06-28T09:30:33Z</time>
      </trkpt>
      <trkpt lat="46.3192" lon="6.08202">
        <ele>532.04</ele>
        <time>2015-06-28T09:30:38Z</time>
      </trkpt>
      <trkpt lat="46.31912" lon="6.08194">
        <ele>531.74</ele>
        <time>2015-06-28T09:30:39Z</time>
      </trkpt>
      <trkpt lat="46.3184" lon="6.0811">
        <ele>528.64</ele>
        <time>2015-06-28T09:30:48Z</time>
      </trkpt>
      <trkpt lat="46.31825" lon="6.08091">
        <ele>527.34</ele>
        <time>2015-06-28T09:30:50Z</time>
      </trkpt>
      <trkpt lat="46.31819" lon="6.08079">
        <ele>526.7</ele>
        <time>2015-06-28T09:30:51Z</time>
      </trkpt>
      <trkpt lat="46.31796" lon="6.08032">
        <ele>524.71</ele>
        <time>2015-06-28T09:30:55Z</time>
      </trkpt>
      <trkpt lat="46.31788" lon="6.08023">
        <ele>524.3</ele>
        <time>2015-06-28T09:30:56Z</time>
      </trkpt>
      <trkpt lat="46.31771" lon="6.08008">
        <ele>523.05</ele>
        <time>2015-06-28T09:30:58Z</time>
      </trkpt>
      <trkpt lat="46.31749" lon="6.07984">
        <ele>521.55</ele>
        <time>2015-06-28T09:31:01Z</time>
      </trkpt>
      <trkpt lat="46.31727" lon="6.07967">
        <ele>521.34</ele>
        <time>2015-06-28T09:31:04Z</time>
      </trkpt>
      <trkpt lat="46.31719" lon="6.07964">
        <ele>521.3</ele>
        <time>2015-06-28T09:31:05Z</time>
      </trkpt>
      <trkpt lat="46.31711" lon="6.07962">
        <ele>521.24</ele>
        <time>2015-06-28T09:31:06Z</time>
      </trkpt>
      <trkpt lat="46.31685" lon="6.07955">
        <ele>521.13</ele>
        <time>2015-06-28T09:31:09Z</time>
      </trkpt>
      <trkpt lat="46.31675" lon="6.07945">
        <ele>521.11</ele>
        <time>2015-06-28T09:31:11Z</time>
      </trkpt>
      <trkpt lat="46.31672" lon="6.07937">
        <ele>521</ele>
        <time>2015-06-28T09:31:12Z</time>
      </trkpt>
      <trkpt lat="46.31673" lon="6.07928">
        <ele>520.98</ele>
        <time>2015-06-28T09:31:13Z</time>
      </trkpt>
      <trkpt lat="46.31675" lon="6.07921">
        <ele>520.97</ele>
        <time>2015-06-28T09:31:14Z</time>
      </trkpt>
      <trkpt lat="46.31679" lon="6.07915">
        <ele>521.04</ele>
        <time>2015-06-28T09:31:15Z</time>
      </trkpt>
      <trkpt lat="46.31684" lon="6.07909">
        <ele>521.12</ele>
        <time>2015-06-28T09:31:16Z</time>
      </trkpt>
      <trkpt lat="46.31742" lon="6.07809">
        <ele>524.06</ele>
        <time>2015-06-28T09:31:31Z</time>
      </trkpt>
      <trkpt lat="46.31792" lon="6.07712">
        <ele>527.11</ele>
        <time>2015-06-28T09:31:46Z</time>
      </trkpt>
      <trkpt lat="46.31828" lon="6.07646">
        <ele>530.21</ele>
        <time>2015-06-28T09:31:57Z</time>
      </trkpt>
      <trkpt lat="46.31837" lon="6.07628">
        <ele>531.07</ele>
        <time>2015-06-28T09:32:00Z</time>
      </trkpt>
      <trkpt lat="46.31839" lon="6.07623">
        <ele>531.29</ele>
        <time>2015-06-28T09:32:01Z</time>
      </trkpt>
      <trkpt lat="46.31851" lon="6.07599">
        <ele>532.32</ele>
        <time>2015-06-28T09:32:05Z</time>
      </trkpt>
      <trkpt lat="46.31862" lon="6.07574">
        <ele>533.7</ele>
        <time>2015-06-28T09:32:09Z</time>
      </trkpt>
      <trkpt lat="46.31865" lon="6.07568">
        <ele>533.97</ele>
        <time>2015-06-28T09:32:10Z</time>
      </trkpt>
      <trkpt lat="46.31904" lon="6.07479">
        <ele>536.72</ele>
        <time>2015-06-28T09:32:25Z</time>
      </trkpt>
      <trkpt lat="46.31917" lon="6.07451">
        <ele>537.28</ele>
        <time>2015-06-28T09:32:30Z</time>
      </trkpt>
      <trkpt lat="46.31953" lon="6.07412">
        <ele>537.53</ele>
        <time>2015-06-28T09:32:42Z</time>
      </trkpt>
      <trkpt lat="46.3197" lon="6.07386">
        <ele>537.56</ele>
        <time>2015-06-28T09:32:49Z</time>
      </trkpt>
      <trkpt lat="46.3197" lon="6.07382">
        <ele>537.71</ele>
        <time>2015-06-28T09:32:50Z</time>
      </trkpt>
      <trkpt lat="46.31969" lon="6.07378">
        <ele>537.91</ele>
        <time>2015-06-28T09:32:51Z</time>
      </trkpt>
      <trkpt lat="46.31969" lon="6.07374">
        <ele>537.88</ele>
        <time>2015-06-28T09:32:52Z</time>
      </trkpt>
      <trkpt lat="46.31968" lon="6.0737">
        <ele>537.86</ele>
        <time>2015-06-28T09:32:53Z</time>
      </trkpt>
      <trkpt lat="46.31967" lon="6.07367">
        <ele>537.98</ele>
        <time>2015-06-28T09:32:54Z</time>
      </trkpt>
      <trkpt lat="46.31965" lon="6.07365">
        <ele>538.11</ele>
        <time>2015-06-28T09:32:55Z</time>
      </trkpt>
      <trkpt lat="46.31964" lon="6.07362">
        <ele>538.17</ele>
        <time>2015-06-28T09:32:56Z</time>
      </trkpt>
      <trkpt lat="46.31961" lon="6.07356">
        <ele>538.17</ele>
        <time>2015-06-28T09:32:59Z</time>
      </trkpt>
      <trkpt lat="46.3196" lon="6.07355">
        <ele>538.23</ele>
        <time>2015-06-28T09:33:00Z</time>
      </trkpt>
      <trkpt lat="46.31957" lon="6.07353">
        <ele>538.15</ele>
        <time>2015-06-28T09:33:02Z</time>
      </trkpt>
      <trkpt lat="46.31955" lon="6.07353">
        <ele>538.04</ele>
        <time>2015-06-28T09:33:03Z</time>
      </trkpt>
      <trkpt lat="46.31953" lon="6.07352">
        <ele>538.08</ele>
        <time>2015-06-28T09:33:04Z</time>
      </trkpt>
      <trkpt lat="46.31951" lon="6.07352">
        <ele>538.1</ele>
        <time>2015-06-28T09:33:05Z</time>
      </trkpt>
      <trkpt lat="46.31949" lon="6.07352">
        <ele>538.18</ele>
        <time>2015-06-28T09:33:06Z</time>
      </trkpt>
      <trkpt lat="46.3194" lon="6.07353">
        <ele>538.14</ele>
        <time>2015-06-28T09:33:09Z</time>
      </trkpt>
      <trkpt lat="46.31937" lon="6.07352">
        <ele>538.25</ele>
        <time>2015-06-28T09:33:10Z</time>
      </trkpt>
      <trkpt lat="46.31934" lon="6.07351">
        <ele>538.21</ele>
        <time>2015-06-28T09:33:11Z</time>
      </trkpt>
      <trkpt lat="46.31931" lon="6.0735">
        <ele>538.06</ele>
        <time>2015-06-28T09:33:12Z</time>
      </trkpt>
      <trkpt lat="46.31927" lon="6.07347">
        <ele>537.98</ele>
        <time>2015-06-28T09:33:13Z</time>
      </trkpt>
      <trkpt lat="46.31925" lon="6.07343">
        <ele>537.98</ele>
        <time>2015-06-28T09:33:14Z</time>
      </trkpt>
      <trkpt lat="46.31922" lon="6.07339">
        <ele>537.91</ele>
        <time>2015-06-28T09:33:15Z</time>
      </trkpt>
      <trkpt lat="46.3192" lon="6.07335">
        <ele>537.91</ele>
        <time>2015-06-28T09:33:16Z</time>
      </trkpt>
      <trkpt lat="46.31917" lon="6.07331">
        <ele>537.91</ele>
        <time>2015-06-28T09:33:17Z</time>
      </trkpt>
      <trkpt lat="46.31915" lon="6.07327">
        <ele>537.91</ele>
        <time>2015-06-28T09:33:18Z</time>
      </trkpt>
      <trkpt lat="46.31912" lon="6.07322">
        <ele>537.97</ele>
        <time>2015-06-28T09:33:19Z</time>
      </trkpt>
      <trkpt lat="46.3191" lon="6.07318">
        <ele>538</ele>
        <time>2015-06-28T09:33:20Z</time>
      </trkpt>
      <trkpt lat="46.31908" lon="6.07314">
        <ele>538.02</ele>
        <time>2015-06-28T09:33:21Z</time>
      </trkpt>
      <trkpt lat="46.31906" lon="6.07309">
        <ele>538.06</ele>
        <time>2015-06-28T09:33:22Z</time>
      </trkpt>
      <trkpt lat="46.31904" lon="6.07304">
        <ele>538.18</ele>
        <time>2015-06-28T09:33:23Z</time>
      </trkpt>
      <trkpt lat="46.31903" lon="6.07299">
        <ele>538.3</ele>
        <time>2015-06-28T09:33:24Z</time>
      </trkpt>
      <trkpt lat="46.319" lon="6.07289">
        <ele>538.32</ele>
        <time>2015-06-28T09:33:26Z</time>
      </trkpt>
      <trkpt lat="46.31896" lon="6.07267">
        <ele>538.51</ele>
        <time>2015-06-28T09:33:30Z</time>
      </trkpt>
      <trkpt lat="46.31896" lon="6.07261">
        <ele>538.48</ele>
        <time>2015-06-28T09:33:31Z</time>
      </trkpt>
      <trkpt lat="46.31896" lon="6.07254">
        <ele>538.51</ele>
        <time>2015-06-28T09:33:32Z</time>
      </trkpt>
      <trkpt lat="46.31897" lon="6.07248">
        <ele>538.52</ele>
        <time>2015-06-28T09:33:33Z</time>
      </trkpt>
      <trkpt lat="46.31899" lon="6.07242">
        <ele>538.53</ele>
        <time>2015-06-28T09:33:34Z</time>
      </trkpt>
      <trkpt lat="46.31907" lon="6.0721">
        <ele>538.83</ele>
        <time>2015-06-28T09:33:39Z</time>
      </trkpt>
      <trkpt lat="46.31909" lon="6.07204">
        <ele>538.91</ele>
        <time>2015-06-28T09:33:40Z</time>
      </trkpt>
      <trkpt lat="46.3191" lon="6.07198">
        <ele>538.84</ele>
        <time>2015-06-28T09:33:41Z</time>
      </trkpt>
      <trkpt lat="46.31911" lon="6.07192">
        <ele>538.81</ele>
        <time>2015-06-28T09:33:42Z</time>
      </trkpt>
      <trkpt lat="46.31911" lon="6.07186">
        <ele>538.76</ele>
        <time>2015-06-28T09:33:43Z</time>
      </trkpt>
      <trkpt lat="46.31911" lon="6.07179">
        <ele>538.73</ele>
        <time>2015-06-28T09:33:44Z</time>
      </trkpt>
      <trkpt lat="46.3191" lon="6.07166">
        <ele>538.72</ele>
        <time>2015-06-28T09:33:46Z</time>
      </trkpt>
      <trkpt lat="46.31908" lon="6.0714">
        <ele>538.92</ele>
        <time>2015-06-28T09:33:50Z</time>
      </trkpt>
      <trkpt lat="46.31905" lon="6.07058">
        <ele>541.41</ele>
        <time>2015-06-28T09:34:05Z</time>
      </trkpt>
      <trkpt lat="46.31902" lon="6.07048">
        <ele>541.74</ele>
        <time>2015-06-28T09:34:07Z</time>
      </trkpt>
      <trkpt lat="46.319" lon="6.07044">
        <ele>541.87</ele>
        <time>2015-06-28T09:34:08Z</time>
      </trkpt>
      <trkpt lat="46.31898" lon="6.07039">
        <ele>542.04</ele>
        <time>2015-06-28T09:34:09Z</time>
      </trkpt>
      <trkpt lat="46.31896" lon="6.07035">
        <ele>542.29</ele>
        <time>2015-06-28T09:34:10Z</time>
      </trkpt>
      <trkpt lat="46.31894" lon="6.07031">
        <ele>542.61</ele>
        <time>2015-06-28T09:34:11Z</time>
      </trkpt>
      <trkpt lat="46.31892" lon="6.07027">
        <ele>542.99</ele>
        <time>2015-06-28T09:34:12Z</time>
      </trkpt>
      <trkpt lat="46.31891" lon="6.07022">
        <ele>543.32</ele>
        <time>2015-06-28T09:34:13Z</time>
      </trkpt>
      <trkpt lat="46.31885" lon="6.07007">
        <ele>544.04</ele>
        <time>2015-06-28T09:34:16Z</time>
      </trkpt>
      <trkpt lat="46.31883" lon="6.07001">
        <ele>544.19</ele>
        <time>2015-06-28T09:34:17Z</time>
      </trkpt>
      <trkpt lat="46.31881" lon="6.06995">
        <ele>544.26</ele>
        <time>2015-06-28T09:34:18Z</time>
      </trkpt>
      <trkpt lat="46.31879" lon="6.06988">
        <ele>544.37</ele>
        <time>2015-06-28T09:34:19Z</time>
      </trkpt>
      <trkpt lat="46.31852" lon="6.06904">
        <ele>542.74</ele>
        <time>2015-06-28T09:34:33Z</time>
      </trkpt>
      <trkpt lat="46.31851" lon="6.06897">
        <ele>542.64</ele>
        <time>2015-06-28T09:34:34Z</time>
      </trkpt>
      <trkpt lat="46.3185" lon="6.06883">
        <ele>542.34</ele>
        <time>2015-06-28T09:34:36Z</time>
      </trkpt>
      <trkpt lat="46.31848" lon="6.06875">
        <ele>542.15</ele>
        <time>2015-06-28T09:34:37Z</time>
      </trkpt>
      <trkpt lat="46.31845" lon="6.06867">
        <ele>541.99</ele>
        <time>2015-06-28T09:34:38Z</time>
      </trkpt>
      <trkpt lat="46.31842" lon="6.06859">
        <ele>541.81</ele>
        <time>2015-06-28T09:34:39Z</time>
      </trkpt>
      <trkpt lat="46.31838" lon="6.06852">
        <ele>541.53</ele>
        <time>2015-06-28T09:34:40Z</time>
      </trkpt>
      <trkpt lat="46.31834" lon="6.06845">
        <ele>541.22</ele>
        <time>2015-06-28T09:34:41Z</time>
      </trkpt>
      <trkpt lat="46.31826" lon="6.0683">
        <ele>540.59</ele>
        <time>2015-06-28T09:34:43Z</time>
      </trkpt>
      <trkpt lat="46.31823" lon="6.06821">
        <ele>540.32</ele>
        <time>2015-06-28T09:34:44Z</time>
      </trkpt>
      <trkpt lat="46.31796" lon="6.06761">
        <ele>539.67</ele>
        <time>2015-06-28T09:34:52Z</time>
      </trkpt>
      <trkpt lat="46.31793" lon="6.06744">
        <ele>539.77</ele>
        <time>2015-06-28T09:34:54Z</time>
      </trkpt>
      <trkpt lat="46.31794" lon="6.06728">
        <ele>540.08</ele>
        <time>2015-06-28T09:34:56Z</time>
      </trkpt>
      <trkpt lat="46.31796" lon="6.06721">
        <ele>540.18</ele>
        <time>2015-06-28T09:34:57Z</time>
      </trkpt>
      <trkpt lat="46.31798" lon="6.06715">
        <ele>540.41</ele>
        <time>2015-06-28T09:34:58Z</time>
      </trkpt>
      <trkpt lat="46.31822" lon="6.06653">
        <ele>542.58</ele>
        <time>2015-06-28T09:35:08Z</time>
      </trkpt>
      <trkpt lat="46.31822" lon="6.06646">
        <ele>542.69</ele>
        <time>2015-06-28T09:35:09Z</time>
      </trkpt>
      <trkpt lat="46.31822" lon="6.06633">
        <ele>542.95</ele>
        <time>2015-06-28T09:35:11Z</time>
      </trkpt>
      <trkpt lat="46.31822" lon="6.06626">
        <ele>543.1</ele>
        <time>2015-06-28T09:35:12Z</time>
      </trkpt>
      <trkpt lat="46.31822" lon="6.06619">
        <ele>543.24</ele>
        <time>2015-06-28T09:35:13Z</time>
      </trkpt>
      <trkpt lat="46.31821" lon="6.06612">
        <ele>543.41</ele>
        <time>2015-06-28T09:35:14Z</time>
      </trkpt>
      <trkpt lat="46.31821" lon="6.06606">
        <ele>543.49</ele>
        <time>2015-06-28T09:35:15Z</time>
      </trkpt>
      <trkpt lat="46.3182" lon="6.06593">
        <ele>543.75</ele>
        <time>2015-06-28T09:35:17Z</time>
      </trkpt>
      <trkpt lat="46.31816" lon="6.06511">
        <ele>544.16</ele>
        <time>2015-06-28T09:35:29Z</time>
      </trkpt>
      <trkpt lat="46.31817" lon="6.06504">
        <ele>544.3</ele>
        <time>2015-06-28T09:35:30Z</time>
      </trkpt>
      <trkpt lat="46.31819" lon="6.06498">
        <ele>544.43</ele>
        <time>2015-06-28T09:35:31Z</time>
      </trkpt>
      <trkpt lat="46.31824" lon="6.06486">
        <ele>544.46</ele>
        <time>2015-06-28T09:35:33Z</time>
      </trkpt>
      <trkpt lat="46.31826" lon="6.06481">
        <ele>544.39</ele>
        <time>2015-06-28T09:35:34Z</time>
      </trkpt>
      <trkpt lat="46.31835" lon="6.06467">
        <ele>544.6</ele>
        <time>2015-06-28T09:35:37Z</time>
      </trkpt>
      <trkpt lat="46.31837" lon="6.06462">
        <ele>544.65</ele>
        <time>2015-06-28T09:35:38Z</time>
      </trkpt>
      <trkpt lat="46.31843" lon="6.0644">
        <ele>544.95</ele>
        <time>2015-06-28T09:35:43Z</time>
      </trkpt>
      <trkpt lat="46.31845" lon="6.06437">
        <ele>545.07</ele>
        <time>2015-06-28T09:35:44Z</time>
      </trkpt>
      <trkpt lat="46.31846" lon="6.06434">
        <ele>545.12</ele>
        <time>2015-06-28T09:35:45Z</time>
      </trkpt>
      <trkpt lat="46.31848" lon="6.06431">
        <ele>545.19</ele>
        <time>2015-06-28T09:35:46Z</time>
      </trkpt>
      <trkpt lat="46.3185" lon="6.06427">
        <ele>545.25</ele>
        <time>2015-06-28T09:35:47Z</time>
      </trkpt>
      <trkpt lat="46.31852" lon="6.06422">
        <ele>545.38</ele>
        <time>2015-06-28T09:35:48Z</time>
      </trkpt>
      <trkpt lat="46.31854" lon="6.06416">
        <ele>545.51</ele>
        <time>2015-06-28T09:35:49Z</time>
      </trkpt>
      <trkpt lat="46.31854" lon="6.06411">
        <ele>545.64</ele>
        <time>2015-06-28T09:35:50Z</time>
      </trkpt>
      <trkpt lat="46.31853" lon="6.06405">
        <ele>545.74</ele>
        <time>2015-06-28T09:35:51Z</time>
      </trkpt>
      <trkpt lat="46.31852" lon="6.06401">
        <ele>545.85</ele>
        <time>2015-06-28T09:35:52Z</time>
      </trkpt>
      <trkpt lat="46.31849" lon="6.06396">
        <ele>545.91</ele>
        <time>2015-06-28T09:35:53Z</time>
      </trkpt>
      <trkpt lat="46.31846" lon="6.06392">
        <ele>545.93</ele>
        <time>2015-06-28T09:35:54Z</time>
      </trkpt>
      <trkpt lat="46.31843" lon="6.06387">
        <ele>545.88</ele>
        <time>2015-06-28T09:35:55Z</time>
      </trkpt>
      <trkpt lat="46.31841" lon="6.06381">
        <ele>545.85</ele>
        <time>2015-06-28T09:35:56Z</time>
      </trkpt>
      <trkpt lat="46.3184" lon="6.06375">
        <ele>545.91</ele>
        <time>2015-06-28T09:35:57Z</time>
      </trkpt>
      <trkpt lat="46.3184" lon="6.06367">
        <ele>545.91</ele>
        <time>2015-06-28T09:35:58Z</time>
      </trkpt>
      <trkpt lat="46.3184" lon="6.06359">
        <ele>545.93</ele>
        <time>2015-06-28T09:35:59Z</time>
      </trkpt>
      <trkpt lat="46.3184" lon="6.0632">
        <ele>546.07</ele>
        <time>2015-06-28T09:36:04Z</time>
      </trkpt>
      <trkpt lat="46.31839" lon="6.06312">
        <ele>546.01</ele>
        <time>2015-06-28T09:36:05Z</time>
      </trkpt>
      <trkpt lat="46.31831" lon="6.06246">
        <ele>545.86</ele>
        <time>2015-06-28T09:36:14Z</time>
      </trkpt>
      <trkpt lat="46.31814" lon="6.06183">
        <ele>545.64</ele>
        <time>2015-06-28T09:36:22Z</time>
      </trkpt>
      <trkpt lat="46.31767" lon="6.06067">
        <ele>545.02</ele>
        <time>2015-06-28T09:36:38Z</time>
      </trkpt>
      <trkpt lat="46.31723" lon="6.05956">
        <ele>545.2</ele>
        <time>2015-06-28T09:36:52Z</time>
      </trkpt>
      <trkpt lat="46.31673" lon="6.0583">
        <ele>546.8</ele>
        <time>2015-06-28T09:37:08Z</time>
      </trkpt>
      <trkpt lat="46.31669" lon="6.05822">
        <ele>547</ele>
        <time>2015-06-28T09:37:09Z</time>
      </trkpt>
      <trkpt lat="46.3162" lon="6.05676">
        <ele>549.9</ele>
        <time>2015-06-28T09:37:27Z</time>
      </trkpt>
      <trkpt lat="46.31589" lon="6.05552">
        <ele>551.87</ele>
        <time>2015-06-28T09:37:42Z</time>
      </trkpt>
      <trkpt lat="46.31588" lon="6.05416">
        <ele>554.53</ele>
        <time>2015-06-28T09:37:58Z</time>
      </trkpt>
      <trkpt lat="46.31601" lon="6.05344">
        <ele>557.73</ele>
        <time>2015-06-28T09:38:07Z</time>
      </trkpt>
      <trkpt lat="46.31623" lon="6.05248">
        <ele>560.89</ele>
        <time>2015-06-28T09:38:19Z</time>
      </trkpt>
      <trkpt lat="46.31627" lon="6.05233">
        <ele>561.65</ele>
        <time>2015-06-28T09:38:21Z</time>
      </trkpt>
      <trkpt lat="46.31631" lon="6.05217">
        <ele>561.91</ele>
        <time>2015-06-28T09:38:23Z</time>
      </trkpt>
      <trkpt lat="46.31643" lon="6.05151">
        <ele>564.4</ele>
        <time>2015-06-28T09:38:33Z</time>
      </trkpt>
      <trkpt lat="46.31644" lon="6.05136">
        <ele>565.21</ele>
        <time>2015-06-28T09:38:37Z</time>
      </trkpt>
      <trkpt lat="46.31644" lon="6.05133">
        <ele>565.32</ele>
        <time>2015-06-28T09:38:38Z</time>
      </trkpt>
      <trkpt lat="46.31642" lon="6.0513">
        <ele>565.4</ele>
        <time>2015-06-28T09:38:39Z</time>
      </trkpt>
      <trkpt lat="46.31638" lon="6.05125">
        <ele>565.47</ele>
        <time>2015-06-28T09:38:41Z</time>
      </trkpt>
      <trkpt lat="46.31635" lon="6.05124">
        <ele>565.47</ele>
        <time>2015-06-28T09:38:42Z</time>
      </trkpt>
      <trkpt lat="46.31632" lon="6.05122">
        <ele>565.52</ele>
        <time>2015-06-28T09:38:43Z</time>
      </trkpt>
      <trkpt lat="46.3163" lon="6.05121">
        <ele>565.55</ele>
        <time>2015-06-28T09:38:44Z</time>
      </trkpt>
      <trkpt lat="46.31627" lon="6.0512">
        <ele>565.46</ele>
        <time>2015-06-28T09:38:45Z</time>
      </trkpt>
      <trkpt lat="46.31624" lon="6.0512">
        <ele>565.43</ele>
        <time>2015-06-28T09:38:46Z</time>
      </trkpt>
      <trkpt lat="46.31619" lon="6.05118">
        <ele>565.37</ele>
        <time>2015-06-28T09:38:48Z</time>
      </trkpt>
      <trkpt lat="46.31563" lon="6.05098">
        <ele>564.66</ele>
        <time>2015-06-28T09:39:06Z</time>
      </trkpt>
      <trkpt lat="46.31555" lon="6.05095">
        <ele>564.33</ele>
        <time>2015-06-28T09:39:08Z</time>
      </trkpt>
      <trkpt lat="46.31551" lon="6.05094">
        <ele>564.21</ele>
        <time>2015-06-28T09:39:09Z</time>
      </trkpt>
      <trkpt lat="46.31547" lon="6.05092">
        <ele>564.16</ele>
        <time>2015-06-28T09:39:10Z</time>
      </trkpt>
      <trkpt lat="46.31539" lon="6.05089">
        <ele>564.11</ele>
        <time>2015-06-28T09:39:12Z</time>
      </trkpt>
      <trkpt lat="46.3146" lon="6.05058">
        <ele>562.64</ele>
        <time>2015-06-28T09:39:29Z</time>
      </trkpt>
      <trkpt lat="46.31449" lon="6.05053">
        <ele>562.37</ele>
        <time>2015-06-28T09:39:31Z</time>
      </trkpt>
      <trkpt lat="46.31361" lon="6.0502">
        <ele>559.82</ele>
        <time>2015-06-28T09:39:44Z</time>
      </trkpt>
      <trkpt lat="46.31339" lon="6.05012">
        <ele>559.33</ele>
        <time>2015-06-28T09:39:47Z</time>
      </trkpt>
      <trkpt lat="46.31332" lon="6.0501">
        <ele>559.18</ele>
        <time>2015-06-28T09:39:48Z</time>
      </trkpt>
      <trkpt lat="46.31241" lon="6.04975">
        <ele>558.66</ele>
        <time>2015-06-28T09:40:03Z</time>
      </trkpt>
      <trkpt lat="46.31211" lon="6.04962">
        <ele>558.43</ele>
        <time>2015-06-28T09:40:09Z</time>
      </trkpt>
      <trkpt lat="46.31146" lon="6.04934">
        <ele>557.93</ele>
        <time>2015-06-28T09:40:22Z</time>
      </trkpt>
      <trkpt lat="46.31142" lon="6.0493">
        <ele>557.87</ele>
        <time>2015-06-28T09:40:23Z</time>
      </trkpt>
      <trkpt lat="46.31138" lon="6.04925">
        <ele>557.77</ele>
        <time>2015-06-28T09:40:24Z</time>
      </trkpt>
      <trkpt lat="46.31135" lon="6.04919">
        <ele>557.64</ele>
        <time>2015-06-28T09:40:25Z</time>
      </trkpt>
      <trkpt lat="46.31132" lon="6.04913">
        <ele>557.52</ele>
        <time>2015-06-28T09:40:26Z</time>
      </trkpt>
      <trkpt lat="46.31129" lon="6.04907">
        <ele>557.46</ele>
        <time>2015-06-28T09:40:27Z</time>
      </trkpt>
      <trkpt lat="46.31125" lon="6.04903">
        <ele>557.46</ele>
        <time>2015-06-28T09:40:28Z</time>
      </trkpt>
      <trkpt lat="46.3112" lon="6.04899">
        <ele>557.42</ele>
        <time>2015-06-28T09:40:29Z</time>
      </trkpt>
      <trkpt lat="46.31112" lon="6.0489">
        <ele>557.24</ele>
        <time>2015-06-28T09:40:31Z</time>
      </trkpt>
      <trkpt lat="46.31109" lon="6.04884">
        <ele>557.18</ele>
        <time>2015-06-28T09:40:32Z</time>
      </trkpt>
      <trkpt lat="46.31106" lon="6.0488">
        <ele>557.15</ele>
        <time>2015-06-28T09:40:33Z</time>
      </trkpt>
      <trkpt lat="46.31102" lon="6.04877">
        <ele>557.13</ele>
        <time>2015-06-28T09:40:34Z</time>
      </trkpt>
      <trkpt lat="46.31098" lon="6.04875">
        <ele>557.06</ele>
        <time>2015-06-28T09:40:35Z</time>
      </trkpt>
      <trkpt lat="46.31094" lon="6.04874">
        <ele>556.96</ele>
        <time>2015-06-28T09:40:36Z</time>
      </trkpt>
      <trkpt lat="46.31085" lon="6.04872">
        <ele>556.93</ele>
        <time>2015-06-28T09:40:38Z</time>
      </trkpt>
      <trkpt lat="46.3108" lon="6.0487">
        <ele>556.93</ele>
        <time>2015-06-28T09:40:39Z</time>
      </trkpt>
      <trkpt lat="46.31076" lon="6.04866">
        <ele>556.79</ele>
        <time>2015-06-28T09:40:40Z</time>
      </trkpt>
      <trkpt lat="46.3106" lon="6.0485">
        <ele>556.14</ele>
        <time>2015-06-28T09:40:44Z</time>
      </trkpt>
      <trkpt lat="46.3104" lon="6.04818">
        <ele>555.3</ele>
        <time>2015-06-28T09:40:50Z</time>
      </trkpt>
      <trkpt lat="46.31037" lon="6.04813">
        <ele>555.19</ele>
        <time>2015-06-28T09:40:51Z</time>
      </trkpt>
      <trkpt lat="46.31028" lon="6.04797">
        <ele>555.07</ele>
        <time>2015-06-28T09:40:54Z</time>
      </trkpt>
      <trkpt lat="46.31018" lon="6.04776">
        <ele>555.1</ele>
        <time>2015-06-28T09:40:58Z</time>
      </trkpt>
      <trkpt lat="46.31007" lon="6.04753">
        <ele>555.25</ele>
        <time>2015-06-28T09:41:02Z</time>
      </trkpt>
      <trkpt lat="46.30952" lon="6.04657">
        <ele>554.95</ele>
        <time>2015-06-28T09:41:17Z</time>
      </trkpt>
      <trkpt lat="46.30944" lon="6.04644">
        <ele>554.97</ele>
        <time>2015-06-28T09:41:19Z</time>
      </trkpt>
      <trkpt lat="46.3094" lon="6.04638">
        <ele>555.08</ele>
        <time>2015-06-28T09:41:20Z</time>
      </trkpt>
      <trkpt lat="46.30936" lon="6.04633">
        <ele>555.14</ele>
        <time>2015-06-28T09:41:21Z</time>
      </trkpt>
      <trkpt lat="46.30932" lon="6.04627">
        <ele>555.26</ele>
        <time>2015-06-28T09:41:22Z</time>
      </trkpt>
      <trkpt lat="46.30928" lon="6.04621">
        <ele>555.36</ele>
        <time>2015-06-28T09:41:23Z</time>
      </trkpt>
      <trkpt lat="46.30875" lon="6.04536">
        <ele>553.59</ele>
        <time>2015-06-28T09:41:34Z</time>
      </trkpt>
      <trkpt lat="46.30869" lon="6.04527">
        <ele>553.11</ele>
        <time>2015-06-28T09:41:35Z</time>
      </trkpt>
      <trkpt lat="46.30832" lon="6.04473">
        <ele>550.61</ele>
        <time>2015-06-28T09:41:41Z</time>
      </trkpt>
      <trkpt lat="46.30825" lon="6.04467">
        <ele>550.46</ele>
        <time>2015-06-28T09:41:42Z</time>
      </trkpt>
      <trkpt lat="46.30818" lon="6.04462">
        <ele>550.31</ele>
        <time>2015-06-28T09:41:43Z</time>
      </trkpt>
      <trkpt lat="46.30802" lon="6.04456">
        <ele>550.08</ele>
        <time>2015-06-28T09:41:45Z</time>
      </trkpt>
      <trkpt lat="46.30786" lon="6.04454">
        <ele>549.4</ele>
        <time>2015-06-28T09:41:47Z</time>
      </trkpt>
      <trkpt lat="46.30778" lon="6.04454">
        <ele>549.18</ele>
        <time>2015-06-28T09:41:48Z</time>
      </trkpt>
      <trkpt lat="46.30747" lon="6.04458">
        <ele>549.37</ele>
        <time>2015-06-28T09:41:52Z</time>
      </trkpt>
      <trkpt lat="46.30733" lon="6.04459">
        <ele>549.64</ele>
        <time>2015-06-28T09:41:54Z</time>
      </trkpt>
      <trkpt lat="46.30711" lon="6.04457">
        <ele>549.82</ele>
        <time>2015-06-28T09:41:57Z</time>
      </trkpt>
      <trkpt lat="46.30697" lon="6.04454">
        <ele>549.98</ele>
        <time>2015-06-28T09:41:59Z</time>
      </trkpt>
      <trkpt lat="46.30632" lon="6.04424">
        <ele>552.14</ele>
        <time>2015-06-28T09:42:11Z</time>
      </trkpt>
      <trkpt lat="46.30551" lon="6.04389">
        <ele>552.4</ele>
        <time>2015-06-28T09:42:26Z</time>
      </trkpt>
      <trkpt lat="46.30481" lon="6.04358">
        <ele>553.04</ele>
        <time>2015-06-28T09:42:40Z</time>
      </trkpt>
      <trkpt lat="46.30456" lon="6.04346">
        <ele>553.52</ele>
        <time>2015-06-28T09:42:45Z</time>
      </trkpt>
      <trkpt lat="46.30376" lon="6.04311">
        <ele>552.88</ele>
        <time>2015-06-28T09:42:59Z</time>
      </trkpt>
      <trkpt lat="46.3037" lon="6.04309">
        <ele>552.8</ele>
        <time>2015-06-28T09:43:00Z</time>
      </trkpt>
      <trkpt lat="46.30289" lon="6.04279">
        <ele>552.56</ele>
        <time>2015-06-28T09:43:15Z</time>
      </trkpt>
      <trkpt lat="46.30266" lon="6.04266">
        <ele>552.7</ele>
        <time>2015-06-28T09:43:19Z</time>
      </trkpt>
      <trkpt lat="46.30261" lon="6.04262">
        <ele>552.82</ele>
        <time>2015-06-28T09:43:20Z</time>
      </trkpt>
      <trkpt lat="46.30256" lon="6.04258">
        <ele>552.98</ele>
        <time>2015-06-28T09:43:21Z</time>
      </trkpt>
      <trkpt lat="46.30205" lon="6.04202">
        <ele>551.11</ele>
        <time>2015-06-28T09:43:31Z</time>
      </trkpt>
      <trkpt lat="46.302" lon="6.04196">
        <ele>551.03</ele>
        <time>2015-06-28T09:43:32Z</time>
      </trkpt>
      <trkpt lat="46.30127" lon="6.04103">
        <ele>549.63</ele>
        <time>2015-06-28T09:43:46Z</time>
      </trkpt>
      <trkpt lat="46.30083" lon="6.04044">
        <ele>548.77</ele>
        <time>2015-06-28T09:43:55Z</time>
      </trkpt>
      <trkpt lat="46.30077" lon="6.04041">
        <ele>548.85</ele>
        <time>2015-06-28T09:43:56Z</time>
      </trkpt>
      <trkpt lat="46.30071" lon="6.04039">
        <ele>549</ele>
        <time>2015-06-28T09:43:57Z</time>
      </trkpt>
      <trkpt lat="46.30061" lon="6.04039">
        <ele>549.07</ele>
        <time>2015-06-28T09:43:59Z</time>
      </trkpt>
      <trkpt lat="46.30055" lon="6.04041">
        <ele>549.23</ele>
        <time>2015-06-28T09:44:00Z</time>
      </trkpt>
      <trkpt lat="46.30039" lon="6.0405">
        <ele>549.2</ele>
        <time>2015-06-28T09:44:03Z</time>
      </trkpt>
      <trkpt lat="46.30033" lon="6.04054">
        <ele>549.16</ele>
        <time>2015-06-28T09:44:04Z</time>
      </trkpt>
      <trkpt lat="46.30028" lon="6.04059">
        <ele>549.27</ele>
        <time>2015-06-28T09:44:05Z</time>
      </trkpt>
      <trkpt lat="46.30024" lon="6.04064">
        <ele>549.4</ele>
        <time>2015-06-28T09:44:06Z</time>
      </trkpt>
      <trkpt lat="46.3002" lon="6.04069">
        <ele>549.32</ele>
        <time>2015-06-28T09:44:07Z</time>
      </trkpt>
      <trkpt lat="46.2999" lon="6.04104">
        <ele>548.98</ele>
        <time>2015-06-28T09:44:14Z</time>
      </trkpt>
      <trkpt lat="46.29985" lon="6.04107">
        <ele>549.09</ele>
        <time>2015-06-28T09:44:15Z</time>
      </trkpt>
      <trkpt lat="46.29979" lon="6.0411">
        <ele>549.13</ele>
        <time>2015-06-28T09:44:16Z</time>
      </trkpt>
      <trkpt lat="46.29969" lon="6.04113">
        <ele>549.3</ele>
        <time>2015-06-28T09:44:18Z</time>
      </trkpt>
      <trkpt lat="46.29965" lon="6.04112">
        <ele>549.36</ele>
        <time>2015-06-28T09:44:19Z</time>
      </trkpt>
      <trkpt lat="46.29955" lon="6.0411">
        <ele>549.4</ele>
        <time>2015-06-28T09:44:21Z</time>
      </trkpt>
      <trkpt lat="46.29946" lon="6.04104">
        <ele>549.4</ele>
        <time>2015-06-28T09:44:23Z</time>
      </trkpt>
      <trkpt lat="46.2992" lon="6.04087">
        <ele>550.41</ele>
        <time>2015-06-28T09:44:29Z</time>
      </trkpt>
      <trkpt lat="46.29916" lon="6.04084">
        <ele>550.46</ele>
        <time>2015-06-28T09:44:30Z</time>
      </trkpt>
      <trkpt lat="46.29901" lon="6.04071">
        <ele>550.92</ele>
        <time>2015-06-28T09:44:34Z</time>
      </trkpt>
      <trkpt lat="46.29897" lon="6.04067">
        <ele>551.04</ele>
        <time>2015-06-28T09:44:35Z</time>
      </trkpt>
      <trkpt lat="46.29883" lon="6.04046">
        <ele>550.92</ele>
        <time>2015-06-28T09:44:39Z</time>
      </trkpt>
      <trkpt lat="46.2988" lon="6.0404">
        <ele>550.89</ele>
        <time>2015-06-28T09:44:40Z</time>
      </trkpt>
      <trkpt lat="46.29877" lon="6.04034">
        <ele>550.86</ele>
        <time>2015-06-28T09:44:41Z</time>
      </trkpt>
      <trkpt lat="46.29874" lon="6.04029">
        <ele>550.86</ele>
        <time>2015-06-28T09:44:42Z</time>
      </trkpt>
      <trkpt lat="46.29871" lon="6.04022">
        <ele>550.75</ele>
        <time>2015-06-28T09:44:43Z</time>
      </trkpt>
      <trkpt lat="46.29864" lon="6.04004">
        <ele>550.65</ele>
        <time>2015-06-28T09:44:46Z</time>
      </trkpt>
      <trkpt lat="46.29858" lon="6.03972">
        <ele>550.35</ele>
        <time>2015-06-28T09:44:51Z</time>
      </trkpt>
      <trkpt lat="46.29845" lon="6.03901">
        <ele>550.12</ele>
        <time>2015-06-28T09:45:01Z</time>
      </trkpt>
      <trkpt lat="46.29838" lon="6.03879">
        <ele>549.91</ele>
        <time>2015-06-28T09:45:04Z</time>
      </trkpt>
      <trkpt lat="46.29788" lon="6.03782">
        <ele>549.43</ele>
        <time>2015-06-28T09:45:18Z</time>
      </trkpt>
      <trkpt lat="46.29751" lon="6.03669">
        <ele>548.71</ele>
        <time>2015-06-28T09:45:32Z</time>
      </trkpt>
      <trkpt lat="46.29743" lon="6.03609">
        <ele>548.66</ele>
        <time>2015-06-28T09:45:39Z</time>
      </trkpt>
      <trkpt lat="46.29741" lon="6.03601">
        <ele>548.91</ele>
        <time>2015-06-28T09:45:40Z</time>
      </trkpt>
      <trkpt lat="46.29738" lon="6.03594">
        <ele>549.15</ele>
        <time>2015-06-28T09:45:41Z</time>
      </trkpt>
      <trkpt lat="46.29734" lon="6.03587">
        <ele>549.26</ele>
        <time>2015-06-28T09:45:42Z</time>
      </trkpt>
      <trkpt lat="46.2973" lon="6.03581">
        <ele>549.31</ele>
        <time>2015-06-28T09:45:43Z</time>
      </trkpt>
      <trkpt lat="46.29705" lon="6.0354">
        <ele>550.36</ele>
        <time>2015-06-28T09:45:50Z</time>
      </trkpt>
      <trkpt lat="46.29688" lon="6.03509">
        <ele>552.7</ele>
        <time>2015-06-28T09:45:56Z</time>
      </trkpt>
      <trkpt lat="46.29684" lon="6.03496">
        <ele>553.79</ele>
        <time>2015-06-28T09:45:58Z</time>
      </trkpt>
      <trkpt lat="46.29681" lon="6.03482">
        <ele>554.09</ele>
        <time>2015-06-28T09:46:00Z</time>
      </trkpt>
      <trkpt lat="46.29672" lon="6.03427">
        <ele>557.57</ele>
        <time>2015-06-28T09:46:08Z</time>
      </trkpt>
      <trkpt lat="46.29662" lon="6.0337">
        <ele>560.62</ele>
        <time>2015-06-28T09:46:17Z</time>
      </trkpt>
      <trkpt lat="46.29662" lon="6.03364">
        <ele>561.07</ele>
        <time>2015-06-28T09:46:18Z</time>
      </trkpt>
      <trkpt lat="46.29659" lon="6.03333">
        <ele>562.16</ele>
        <time>2015-06-28T09:46:23Z</time>
      </trkpt>
      <trkpt lat="46.29658" lon="6.03286">
        <ele>563.24</ele>
        <time>2015-06-28T09:46:31Z</time>
      </trkpt>
      <trkpt lat="46.29658" lon="6.0328">
        <ele>563.27</ele>
        <time>2015-06-28T09:46:32Z</time>
      </trkpt>
      <trkpt lat="46.29659" lon="6.03275">
        <ele>563.32</ele>
        <time>2015-06-28T09:46:33Z</time>
      </trkpt>
      <trkpt lat="46.2966" lon="6.03269">
        <ele>563.34</ele>
        <time>2015-06-28T09:46:34Z</time>
      </trkpt>
      <trkpt lat="46.29662" lon="6.03264">
        <ele>563.32</ele>
        <time>2015-06-28T09:46:35Z</time>
      </trkpt>
      <trkpt lat="46.29664" lon="6.0326">
        <ele>563.31</ele>
        <time>2015-06-28T09:46:36Z</time>
      </trkpt>
      <trkpt lat="46.29666" lon="6.03255">
        <ele>563.26</ele>
        <time>2015-06-28T09:46:37Z</time>
      </trkpt>
      <trkpt lat="46.29672" lon="6.03218">
        <ele>562.81</ele>
        <time>2015-06-28T09:46:44Z</time>
      </trkpt>
      <trkpt lat="46.29671" lon="6.03212">
        <ele>562.82</ele>
        <time>2015-06-28T09:46:45Z</time>
      </trkpt>
      <trkpt lat="46.2967" lon="6.03206">
        <ele>562.54</ele>
        <time>2015-06-28T09:46:46Z</time>
      </trkpt>
      <trkpt lat="46.29668" lon="6.032">
        <ele>562.42</ele>
        <time>2015-06-28T09:46:47Z</time>
      </trkpt>
      <trkpt lat="46.29664" lon="6.03191">
        <ele>562.29</ele>
        <time>2015-06-28T09:46:49Z</time>
      </trkpt>
      <trkpt lat="46.29659" lon="6.03179">
        <ele>562.04</ele>
        <time>2015-06-28T09:46:51Z</time>
      </trkpt>
      <trkpt lat="46.29656" lon="6.03174">
        <ele>561.94</ele>
        <time>2015-06-28T09:46:52Z</time>
      </trkpt>
      <trkpt lat="46.29653" lon="6.03169">
        <ele>561.89</ele>
        <time>2015-06-28T09:46:53Z</time>
      </trkpt>
      <trkpt lat="46.29638" lon="6.03143">
        <ele>561.69</ele>
        <time>2015-06-28T09:46:58Z</time>
      </trkpt>
      <trkpt lat="46.29632" lon="6.03134">
        <ele>561.59</ele>
        <time>2015-06-28T09:47:00Z</time>
      </trkpt>
      <trkpt lat="46.29593" lon="6.03076">
        <ele>561.89</ele>
        <time>2015-06-28T09:47:13Z</time>
      </trkpt>
      <trkpt lat="46.2959" lon="6.03074">
        <ele>562.08</ele>
        <time>2015-06-28T09:47:14Z</time>
      </trkpt>
      <trkpt lat="46.29586" lon="6.03072">
        <ele>562.19</ele>
        <time>2015-06-28T09:47:15Z</time>
      </trkpt>
      <trkpt lat="46.29582" lon="6.0307">
        <ele>562.09</ele>
        <time>2015-06-28T09:47:16Z</time>
      </trkpt>
      <trkpt lat="46.29578" lon="6.03067">
        <ele>562.2</ele>
        <time>2015-06-28T09:47:17Z</time>
      </trkpt>
      <trkpt lat="46.29574" lon="6.03065">
        <ele>562.25</ele>
        <time>2015-06-28T09:47:18Z</time>
      </trkpt>
      <trkpt lat="46.2957" lon="6.03062">
        <ele>562.28</ele>
        <time>2015-06-28T09:47:19Z</time>
      </trkpt>
      <trkpt lat="46.29562" lon="6.03056">
        <ele>561.95</ele>
        <time>2015-06-28T09:47:21Z</time>
      </trkpt>
      <trkpt lat="46.29549" lon="6.03048">
        <ele>561.51</ele>
        <time>2015-06-28T09:47:24Z</time>
      </trkpt>
      <trkpt lat="46.29545" lon="6.03045">
        <ele>561.41</ele>
        <time>2015-06-28T09:47:25Z</time>
      </trkpt>
      <trkpt lat="46.2954" lon="6.03033">
        <ele>561.18</ele>
        <time>2015-06-28T09:47:27Z</time>
      </trkpt>
      <trkpt lat="46.2954" lon="6.03026">
        <ele>561.18</ele>
        <time>2015-06-28T09:47:28Z</time>
      </trkpt>
      <trkpt lat="46.29541" lon="6.03019">
        <ele>561.02</ele>
        <time>2015-06-28T09:47:29Z</time>
      </trkpt>
      <trkpt lat="46.29549" lon="6.03007">
        <ele>560.04</ele>
        <time>2015-06-28T09:47:31Z</time>
      </trkpt>
      <trkpt lat="46.29555" lon="6.03002">
        <ele>559.4</ele>
        <time>2015-06-28T09:47:32Z</time>
      </trkpt>
      <trkpt lat="46.2956" lon="6.02997">
        <ele>558.77</ele>
        <time>2015-06-28T09:47:33Z</time>
      </trkpt>
      <trkpt lat="46.29588" lon="6.02974">
        <ele>556.87</ele>
        <time>2015-06-28T09:47:37Z</time>
      </trkpt>
      <trkpt lat="46.29595" lon="6.02966">
        <ele>556.27</ele>
        <time>2015-06-28T09:47:38Z</time>
      </trkpt>
      <trkpt lat="46.29645" lon="6.02918">
        <ele>552.89</ele>
        <time>2015-06-28T09:47:45Z</time>
      </trkpt>
      <trkpt lat="46.29657" lon="6.02905">
        <ele>552.11</ele>
        <time>2015-06-28T09:47:47Z</time>
      </trkpt>
      <trkpt lat="46.29661" lon="6.02896">
        <ele>551.85</ele>
        <time>2015-06-28T09:47:48Z</time>
      </trkpt>
      <trkpt lat="46.29664" lon="6.02875">
        <ele>551.35</ele>
        <time>2015-06-28T09:47:50Z</time>
      </trkpt>
      <trkpt lat="46.29663" lon="6.02865">
        <ele>551.17</ele>
        <time>2015-06-28T09:47:51Z</time>
      </trkpt>
      <trkpt lat="46.29661" lon="6.02856">
        <ele>551.01</ele>
        <time>2015-06-28T09:47:52Z</time>
      </trkpt>
      <trkpt lat="46.29659" lon="6.02848">
        <ele>550.94</ele>
        <time>2015-06-28T09:47:53Z</time>
      </trkpt>
      <trkpt lat="46.29654" lon="6.02842">
        <ele>550.82</ele>
        <time>2015-06-28T09:47:54Z</time>
      </trkpt>
      <trkpt lat="46.29649" lon="6.02837">
        <ele>550.73</ele>
        <time>2015-06-28T09:47:55Z</time>
      </trkpt>
      <trkpt lat="46.29644" lon="6.02834">
        <ele>550.68</ele>
        <time>2015-06-28T09:47:56Z</time>
      </trkpt>
      <trkpt lat="46.29633" lon="6.02831">
        <ele>550.66</ele>
        <time>2015-06-28T09:47:58Z</time>
      </trkpt>
      <trkpt lat="46.29629" lon="6.0283">
        <ele>550.68</ele>
        <time>2015-06-28T09:47:59Z</time>
      </trkpt>
      <trkpt lat="46.29625" lon="6.0283">
        <ele>550.68</ele>
        <time>2015-06-28T09:48:00Z</time>
      </trkpt>
      <trkpt lat="46.29603" lon="6.02836">
        <ele>551.58</ele>
        <time>2015-06-28T09:48:07Z</time>
      </trkpt>
      <trkpt lat="46.29597" lon="6.02837">
        <ele>552</ele>
        <time>2015-06-28T09:48:09Z</time>
      </trkpt>
      <trkpt lat="46.29579" lon="6.02838">
        <ele>552.92</ele>
        <time>2015-06-28T09:48:15Z</time>
      </trkpt>
      <trkpt lat="46.29576" lon="6.0284">
        <ele>553.05</ele>
        <time>2015-06-28T09:48:16Z</time>
      </trkpt>
      <trkpt lat="46.29574" lon="6.02842">
        <ele>553.19</ele>
        <time>2015-06-28T09:48:17Z</time>
      </trkpt>
      <trkpt lat="46.29571" lon="6.02844">
        <ele>553.26</ele>
        <time>2015-06-28T09:48:18Z</time>
      </trkpt>
      <trkpt lat="46.29568" lon="6.02846">
        <ele>553.37</ele>
        <time>2015-06-28T09:48:19Z</time>
      </trkpt>
      <trkpt lat="46.29565" lon="6.02847">
        <ele>553.49</ele>
        <time>2015-06-28T09:48:20Z</time>
      </trkpt>
      <trkpt lat="46.2956" lon="6.0285">
        <ele>553.86</ele>
        <time>2015-06-28T09:48:22Z</time>
      </trkpt>
      <trkpt lat="46.29558" lon="6.02851">
        <ele>554</ele>
        <time>2015-06-28T09:48:23Z</time>
      </trkpt>
      <trkpt lat="46.29555" lon="6.02852">
        <ele>554.21</ele>
        <time>2015-06-28T09:48:24Z</time>
      </trkpt>
      <trkpt lat="46.2954" lon="6.02859">
        <ele>554.03</ele>
        <time>2015-06-28T09:48:29Z</time>
      </trkpt>
      <trkpt lat="46.29536" lon="6.02861">
        <ele>553.94</ele>
        <time>2015-06-28T09:48:30Z</time>
      </trkpt>
      <trkpt lat="46.29501" lon="6.02868">
        <ele>554.07</ele>
        <time>2015-06-28T09:48:39Z</time>
      </trkpt>
      <trkpt lat="46.29498" lon="6.02867">
        <ele>553.91</ele>
        <time>2015-06-28T09:48:40Z</time>
      </trkpt>
      <trkpt lat="46.2949" lon="6.02867">
        <ele>553.92</ele>
        <time>2015-06-28T09:48:42Z</time>
      </trkpt>
      <trkpt lat="46.29487" lon="6.02866">
        <ele>554.13</ele>
        <time>2015-06-28T09:48:43Z</time>
      </trkpt>
      <trkpt lat="46.29483" lon="6.02866">
        <ele>554.07</ele>
        <time>2015-06-28T09:48:44Z</time>
      </trkpt>
      <trkpt lat="46.2948" lon="6.02866">
        <ele>554.18</ele>
        <time>2015-06-28T09:48:45Z</time>
      </trkpt>
      <trkpt lat="46.29476" lon="6.02865">
        <ele>554.29</ele>
        <time>2015-06-28T09:48:46Z</time>
      </trkpt>
      <trkpt lat="46.29469" lon="6.02862">
        <ele>554.3</ele>
        <time>2015-06-28T09:48:48Z</time>
      </trkpt>
      <trkpt lat="46.2946" lon="6.0286">
        <ele>554.02</ele>
        <time>2015-06-28T09:48:50Z</time>
      </trkpt>
      <trkpt lat="46.29456" lon="6.02859">
        <ele>554.12</ele>
        <time>2015-06-28T09:48:51Z</time>
      </trkpt>
      <trkpt lat="46.29451" lon="6.02857">
        <ele>553.82</ele>
        <time>2015-06-28T09:48:52Z</time>
      </trkpt>
      <trkpt lat="46.29442" lon="6.02853">
        <ele>553.84</ele>
        <time>2015-06-28T09:48:54Z</time>
      </trkpt>
      <trkpt lat="46.29428" lon="6.02846">
        <ele>553.57</ele>
        <time>2015-06-28T09:48:57Z</time>
      </trkpt>
      <trkpt lat="46.29412" lon="6.02832">
        <ele>553.3</ele>
        <time>2015-06-28T09:49:01Z</time>
      </trkpt>
      <trkpt lat="46.29405" lon="6.02822">
        <ele>553.27</ele>
        <time>2015-06-28T09:49:03Z</time>
      </trkpt>
      <trkpt lat="46.29353" lon="6.02746">
        <ele>550.93</ele>
        <time>2015-06-28T09:49:15Z</time>
      </trkpt>
      <trkpt lat="46.29343" lon="6.02739">
        <ele>550.9</ele>
        <time>2015-06-28T09:49:17Z</time>
      </trkpt>
      <trkpt lat="46.29338" lon="6.02738">
        <ele>550.96</ele>
        <time>2015-06-28T09:49:18Z</time>
      </trkpt>
      <trkpt lat="46.29332" lon="6.02736">
        <ele>551.02</ele>
        <time>2015-06-28T09:49:19Z</time>
      </trkpt>
      <trkpt lat="46.29304" lon="6.0273">
        <ele>552.21</ele>
        <time>2015-06-28T09:49:25Z</time>
      </trkpt>
      <trkpt lat="46.29287" lon="6.02719">
        <ele>553.35</ele>
        <time>2015-06-28T09:49:29Z</time>
      </trkpt>
      <trkpt lat="46.2928" lon="6.02711">
        <ele>553.78</ele>
        <time>2015-06-28T09:49:31Z</time>
      </trkpt>
      <trkpt lat="46.29267" lon="6.02685">
        <ele>554.99</ele>
        <time>2015-06-28T09:49:36Z</time>
      </trkpt>
      <trkpt lat="46.29221" lon="6.0261">
        <ele>558.03</ele>
        <time>2015-06-28T09:49:49Z</time>
      </trkpt>
      <trkpt lat="46.29202" lon="6.02595">
        <ele>558.37</ele>
        <time>2015-06-28T09:49:53Z</time>
      </trkpt>
      <trkpt lat="46.29198" lon="6.02592">
        <ele>558.44</ele>
        <time>2015-06-28T09:49:54Z</time>
      </trkpt>
      <trkpt lat="46.29104" lon="6.02521">
        <ele>556.95</ele>
        <time>2015-06-28T09:50:13Z</time>
      </trkpt>
      <trkpt lat="46.29018" lon="6.02447">
        <ele>556.31</ele>
        <time>2015-06-28T09:50:30Z</time>
      </trkpt>
      <trkpt lat="46.28976" lon="6.02412">
        <ele>554.49</ele>
        <time>2015-06-28T09:50:38Z</time>
      </trkpt>
      <trkpt lat="46.28952" lon="6.0239">
        <ele>553.22</ele>
        <time>2015-06-28T09:50:42Z</time>
      </trkpt>
      <trkpt lat="46.28872" lon="6.02311">
        <ele>551.33</ele>
        <time>2015-06-28T09:50:56Z</time>
      </trkpt>
      <trkpt lat="46.28813" lon="6.02281">
        <ele>550.85</ele>
        <time>2015-06-28T09:51:05Z</time>
      </trkpt>
      <trkpt lat="46.28806" lon="6.02276">
        <ele>550.76</ele>
        <time>2015-06-28T09:51:06Z</time>
      </trkpt>
      <trkpt lat="46.288" lon="6.0227">
        <ele>550.71</ele>
        <time>2015-06-28T09:51:07Z</time>
      </trkpt>
      <trkpt lat="46.28794" lon="6.02263">
        <ele>550.4</ele>
        <time>2015-06-28T09:51:08Z</time>
      </trkpt>
      <trkpt lat="46.28789" lon="6.02256">
        <ele>550.02</ele>
        <time>2015-06-28T09:51:09Z</time>
      </trkpt>
      <trkpt lat="46.28748" lon="6.02198">
        <ele>548.79</ele>
        <time>2015-06-28T09:51:18Z</time>
      </trkpt>
      <trkpt lat="46.28744" lon="6.02192">
        <ele>549.13</ele>
        <time>2015-06-28T09:51:19Z</time>
      </trkpt>
      <trkpt lat="46.2874" lon="6.02186">
        <ele>549.52</ele>
        <time>2015-06-28T09:51:20Z</time>
      </trkpt>
      <trkpt lat="46.28665" lon="6.02108">
        <ele>548.71</ele>
        <time>2015-06-28T09:51:35Z</time>
      </trkpt>
      <trkpt lat="46.28582" lon="6.02037">
        <ele>547.87</ele>
        <time>2015-06-28T09:51:50Z</time>
      </trkpt>
      <trkpt lat="46.28494" lon="6.0197">
        <ele>546.66</ele>
        <time>2015-06-28T09:52:05Z</time>
      </trkpt>
      <trkpt lat="46.28457" lon="6.01942">
        <ele>545.33</ele>
        <time>2015-06-28T09:52:10Z</time>
      </trkpt>
      <trkpt lat="46.28407" lon="6.01912">
        <ele>542.37</ele>
        <time>2015-06-28T09:52:16Z</time>
      </trkpt>
      <trkpt lat="46.284" lon="6.01906">
        <ele>542.19</ele>
        <time>2015-06-28T09:52:17Z</time>
      </trkpt>
      <trkpt lat="46.28303" lon="6.01835">
        <ele>539.58</ele>
        <time>2015-06-28T09:52:30Z</time>
      </trkpt>
      <trkpt lat="46.28283" lon="6.01818">
        <ele>539.55</ele>
        <time>2015-06-28T09:52:33Z</time>
      </trkpt>
      <trkpt lat="46.28277" lon="6.01812">
        <ele>539.49</ele>
        <time>2015-06-28T09:52:34Z</time>
      </trkpt>
      <trkpt lat="46.28272" lon="6.01804">
        <ele>539.31</ele>
        <time>2015-06-28T09:52:35Z</time>
      </trkpt>
      <trkpt lat="46.28268" lon="6.01796">
        <ele>539.09</ele>
        <time>2015-06-28T09:52:36Z</time>
      </trkpt>
      <trkpt lat="46.28264" lon="6.01789">
        <ele>539.2</ele>
        <time>2015-06-28T09:52:37Z</time>
      </trkpt>
      <trkpt lat="46.28259" lon="6.01784">
        <ele>539.03</ele>
        <time>2015-06-28T09:52:38Z</time>
      </trkpt>
      <trkpt lat="46.28253" lon="6.01781">
        <ele>538.88</ele>
        <time>2015-06-28T09:52:39Z</time>
      </trkpt>
      <trkpt lat="46.28246" lon="6.0178">
        <ele>538.78</ele>
        <time>2015-06-28T09:52:40Z</time>
      </trkpt>
      <trkpt lat="46.28239" lon="6.01777">
        <ele>538.72</ele>
        <time>2015-06-28T09:52:41Z</time>
      </trkpt>
      <trkpt lat="46.28233" lon="6.01772">
        <ele>538.69</ele>
        <time>2015-06-28T09:52:42Z</time>
      </trkpt>
      <trkpt lat="46.28227" lon="6.01766">
        <ele>538.41</ele>
        <time>2015-06-28T09:52:43Z</time>
      </trkpt>
      <trkpt lat="46.28222" lon="6.01759">
        <ele>538.09</ele>
        <time>2015-06-28T09:52:44Z</time>
      </trkpt>
      <trkpt lat="46.28217" lon="6.01751">
        <ele>537.93</ele>
        <time>2015-06-28T09:52:45Z</time>
      </trkpt>
      <trkpt lat="46.28213" lon="6.01742">
        <ele>537.84</ele>
        <time>2015-06-28T09:52:46Z</time>
      </trkpt>
      <trkpt lat="46.28209" lon="6.01734">
        <ele>537.87</ele>
        <time>2015-06-28T09:52:47Z</time>
      </trkpt>
      <trkpt lat="46.28144" lon="6.01625">
        <ele>538.08</ele>
        <time>2015-06-28T09:53:01Z</time>
      </trkpt>
      <trkpt lat="46.28069" lon="6.01557">
        <ele>537.11</ele>
        <time>2015-06-28T09:53:13Z</time>
      </trkpt>
      <trkpt lat="46.27962" lon="6.01469">
        <ele>537.81</ele>
        <time>2015-06-28T09:53:31Z</time>
      </trkpt>
      <trkpt lat="46.27877" lon="6.01413">
        <ele>536.75</ele>
        <time>2015-06-28T09:53:46Z</time>
      </trkpt>
      <trkpt lat="46.2777" lon="6.01338">
        <ele>534.2</ele>
        <time>2015-06-28T09:54:02Z</time>
      </trkpt>
      <trkpt lat="46.27683" lon="6.01281">
        <ele>532.12</ele>
        <time>2015-06-28T09:54:16Z</time>
      </trkpt>
      <trkpt lat="46.27566" lon="6.01214">
        <ele>530.79</ele>
        <time>2015-06-28T09:54:32Z</time>
      </trkpt>
      <trkpt lat="46.27514" lon="6.01188">
        <ele>529.49</ele>
        <time>2015-06-28T09:54:38Z</time>
      </trkpt>
      <trkpt lat="46.27506" lon="6.01184">
        <ele>529.37</ele>
        <time>2015-06-28T09:54:39Z</time>
      </trkpt>
      <trkpt lat="46.27497" lon="6.01181">
        <ele>529.28</ele>
        <time>2015-06-28T09:54:40Z</time>
      </trkpt>
      <trkpt lat="46.27488" lon="6.01179">
        <ele>529.27</ele>
        <time>2015-06-28T09:54:41Z</time>
      </trkpt>
      <trkpt lat="46.27479" lon="6.01175">
        <ele>529.27</ele>
        <time>2015-06-28T09:54:42Z</time>
      </trkpt>
      <trkpt lat="46.27471" lon="6.01171">
        <ele>529.27</ele>
        <time>2015-06-28T09:54:43Z</time>
      </trkpt>
      <trkpt lat="46.2733" lon="6.01072">
        <ele>526.5</ele>
        <time>2015-06-28T09:54:59Z</time>
      </trkpt>
      <trkpt lat="46.27228" lon="6.00967">
        <ele>527.16</ele>
        <time>2015-06-28T09:55:12Z</time>
      </trkpt>
      <trkpt lat="46.27148" lon="6.00858">
        <ele>526.86</ele>
        <time>2015-06-28T09:55:24Z</time>
      </trkpt>
      <trkpt lat="46.27069" lon="6.00675">
        <ele>526.32</ele>
        <time>2015-06-28T09:55:40Z</time>
      </trkpt>
      <trkpt lat="46.27033" lon="6.00565">
        <ele>526.62</ele>
        <time>2015-06-28T09:55:50Z</time>
      </trkpt>
      <trkpt lat="46.27013" lon="6.00528">
        <ele>526.31</ele>
        <time>2015-06-28T09:55:55Z</time>
      </trkpt>
      <trkpt lat="46.27008" lon="6.00523">
        <ele>526.19</ele>
        <time>2015-06-28T09:55:56Z</time>
      </trkpt>
      <trkpt lat="46.26961" lon="6.00483">
        <ele>523.87</ele>
        <time>2015-06-28T09:56:05Z</time>
      </trkpt>
      <trkpt lat="46.26936" lon="6.00466">
        <ele>523.61</ele>
        <time>2015-06-28T09:56:08Z</time>
      </trkpt>
      <trkpt lat="46.26817" lon="6.00384">
        <ele>520.35</ele>
        <time>2015-06-28T09:56:20Z</time>
      </trkpt>
      <trkpt lat="46.26702" lon="6.00282">
        <ele>518.37</ele>
        <time>2015-06-28T09:56:31Z</time>
      </trkpt>
      <trkpt lat="46.26583" lon="6.00208">
        <ele>516.91</ele>
        <time>2015-06-28T09:56:42Z</time>
      </trkpt>
      <trkpt lat="46.26463" lon="6.00109">
        <ele>515.89</ele>
        <time>2015-06-28T09:56:54Z</time>
      </trkpt>
      <trkpt lat="46.26332" lon="5.99974">
        <ele>512.77</ele>
        <time>2015-06-28T09:57:08Z</time>
      </trkpt>
      <trkpt lat="46.2624" lon="5.99882">
        <ele>509.6</ele>
        <time>2015-06-28T09:57:17Z</time>
      </trkpt>
      <trkpt lat="46.26107" lon="5.99792">
        <ele>506.45</ele>
        <time>2015-06-28T09:57:29Z</time>
      </trkpt>
      <trkpt lat="46.26059" lon="5.99769">
        <ele>506.05</ele>
        <time>2015-06-28T09:57:34Z</time>
      </trkpt>
      <trkpt lat="46.26051" lon="5.99763">
        <ele>506.16</ele>
        <time>2015-06-28T09:57:35Z</time>
      </trkpt>
      <trkpt lat="46.25962" lon="5.99698">
        <ele>506.66</ele>
        <time>2015-06-28T09:57:47Z</time>
      </trkpt>
      <trkpt lat="46.25927" lon="5.9967">
        <ele>507.17</ele>
        <time>2015-06-28T09:57:55Z</time>
      </trkpt>
      <trkpt lat="46.25912" lon="5.99655">
        <ele>506.72</ele>
        <time>2015-06-28T09:58:02Z</time>
      </trkpt>
      <trkpt lat="46.2591" lon="5.99653">
        <ele>506.62</ele>
        <time>2015-06-28T09:58:03Z</time>
      </trkpt>
      <trkpt lat="46.25908" lon="5.9965">
        <ele>506.47</ele>
        <time>2015-06-28T09:58:04Z</time>
      </trkpt>
      <trkpt lat="46.25887" lon="5.99629">
        <ele>506.27</ele>
        <time>2015-06-28T09:58:14Z</time>
      </trkpt>
      <trkpt lat="46.25886" lon="5.99626">
        <ele>506.24</ele>
        <time>2015-06-28T09:58:15Z</time>
      </trkpt>
      <trkpt lat="46.25886" lon="5.99623">
        <ele>506.26</ele>
        <time>2015-06-28T09:58:16Z</time>
      </trkpt>
      <trkpt lat="46.25887" lon="5.99621">
        <ele>506.31</ele>
        <time>2015-06-28T09:58:17Z</time>
      </trkpt>
      <trkpt lat="46.25888" lon="5.99618">
        <ele>506.43</ele>
        <time>2015-06-28T09:58:18Z</time>
      </trkpt>
      <trkpt lat="46.25889" lon="5.99616">
        <ele>506.51</ele>
        <time>2015-06-28T09:58:19Z</time>
      </trkpt>
      <trkpt lat="46.25891" lon="5.99614">
        <ele>506.56</ele>
        <time>2015-06-28T09:58:20Z</time>
      </trkpt>
      <trkpt lat="46.25893" lon="5.99612">
        <ele>506.65</ele>
        <time>2015-06-28T09:58:21Z</time>
      </trkpt>
      <trkpt lat="46.25896" lon="5.99607">
        <ele>507.02</ele>
        <time>2015-06-28T09:58:23Z</time>
      </trkpt>
      <trkpt lat="46.25925" lon="5.99577">
        <ele>508.16</ele>
        <time>2015-06-28T09:58:37Z</time>
      </trkpt>
      <trkpt lat="46.25927" lon="5.99576">
        <ele>508.25</ele>
        <time>2015-06-28T09:58:38Z</time>
      </trkpt>
      <trkpt lat="46.25936" lon="5.99567">
        <ele>508.96</ele>
        <time>2015-06-28T09:58:43Z</time>
      </trkpt>
      <trkpt lat="46.25937" lon="5.99566">
        <ele>509.03</ele>
        <time>2015-06-28T09:58:44Z</time>
      </trkpt>
      <trkpt lat="46.25939" lon="5.99564">
        <ele>509.07</ele>
        <time>2015-06-28T09:58:45Z</time>
      </trkpt>
      <trkpt lat="46.25961" lon="5.99537">
        <ele>510.53</ele>
        <time>2015-06-28T09:58:58Z</time>
      </trkpt>
      <trkpt lat="46.25962" lon="5.99535">
        <ele>510.69</ele>
        <time>2015-06-28T09:58:59Z</time>
      </trkpt>
      <trkpt lat="46.25964" lon="5.99533">
        <ele>510.8</ele>
        <time>2015-06-28T09:59:00Z</time>
      </trkpt>
      <trkpt lat="46.25965" lon="5.99531">
        <ele>510.93</ele>
        <time>2015-06-28T09:59:01Z</time>
      </trkpt>
      <trkpt lat="46.25967" lon="5.99528">
        <ele>510.98</ele>
        <time>2015-06-28T09:59:02Z</time>
      </trkpt>
      <trkpt lat="46.25968" lon="5.99526">
        <ele>511.1</ele>
        <time>2015-06-28T09:59:03Z</time>
      </trkpt>
      <trkpt lat="46.25971" lon="5.99521">
        <ele>511.33</ele>
        <time>2015-06-28T09:59:05Z</time>
      </trkpt>
      <trkpt lat="46.25972" lon="5.99519">
        <ele>511.48</ele>
        <time>2015-06-28T09:59:06Z</time>
      </trkpt>
      <trkpt lat="46.25978" lon="5.9951">
        <ele>511.76</ele>
        <time>2015-06-28T09:59:10Z</time>
      </trkpt>
      <trkpt lat="46.2598" lon="5.99508">
        <ele>511.85</ele>
        <time>2015-06-28T09:59:11Z</time>
      </trkpt>
      <trkpt lat="46.25981" lon="5.99505">
        <ele>511.89</ele>
        <time>2015-06-28T09:59:12Z</time>
      </trkpt>
      <trkpt lat="46.25982" lon="5.99503">
        <ele>512.01</ele>
        <time>2015-06-28T09:59:13Z</time>
      </trkpt>
      <trkpt lat="46.25985" lon="5.99497">
        <ele>512.23</ele>
        <time>2015-06-28T09:59:15Z</time>
      </trkpt>
      <trkpt lat="46.25986" lon="5.99495">
        <ele>512.44</ele>
        <time>2015-06-28T09:59:16Z</time>
      </trkpt>
      <trkpt lat="46.25987" lon="5.99492">
        <ele>512.58</ele>
        <time>2015-06-28T09:59:17Z</time>
      </trkpt>
      <trkpt lat="46.25989" lon="5.9949">
        <ele>512.68</ele>
        <time>2015-06-28T09:59:18Z</time>
      </trkpt>
      <trkpt lat="46.25991" lon="5.99488">
        <ele>512.8</ele>
        <time>2015-06-28T09:59:19Z</time>
      </trkpt>
      <trkpt lat="46.25993" lon="5.99486">
        <ele>512.92</ele>
        <time>2015-06-28T09:59:20Z</time>
      </trkpt>
      <trkpt lat="46.25994" lon="5.99483">
        <ele>513.08</ele>
        <time>2015-06-28T09:59:21Z</time>
      </trkpt>
      <trkpt lat="46.25995" lon="5.99481">
        <ele>513.16</ele>
        <time>2015-06-28T09:59:22Z</time>
      </trkpt>
      <trkpt lat="46.25997" lon="5.99479">
        <ele>513.32</ele>
        <time>2015-06-28T09:59:23Z</time>
      </trkpt>
      <trkpt lat="46.25998" lon="5.99477">
        <ele>513.54</ele>
        <time>2015-06-28T09:59:24Z</time>
      </trkpt>
      <trkpt lat="46.26" lon="5.99474">
        <ele>513.74</ele>
        <time>2015-06-28T09:59:25Z</time>
      </trkpt>
      <trkpt lat="46.2601" lon="5.99462">
        <ele>514.57</ele>
        <time>2015-06-28T09:59:31Z</time>
      </trkpt>
      <trkpt lat="46.26011" lon="5.9946">
        <ele>514.78</ele>
        <time>2015-06-28T09:59:32Z</time>
      </trkpt>
      <trkpt lat="46.26032" lon="5.99443">
        <ele>516.96</ele>
        <time>2015-06-28T09:59:43Z</time>
      </trkpt>
      <trkpt lat="46.26034" lon="5.99442">
        <ele>517.42</ele>
        <time>2015-06-28T09:59:44Z</time>
      </trkpt>
      <trkpt lat="46.26037" lon="5.9944">
        <ele>517.79</ele>
        <time>2015-06-28T09:59:45Z</time>
      </trkpt>
      <trkpt lat="46.26039" lon="5.99438">
        <ele>517.98</ele>
        <time>2015-06-28T09:59:46Z</time>
      </trkpt>
      <trkpt lat="46.26042" lon="5.99436">
        <ele>518.22</ele>
        <time>2015-06-28T09:59:48Z</time>
      </trkpt>
      <trkpt lat="46.26044" lon="5.99435">
        <ele>518.38</ele>
        <time>2015-06-28T09:59:49Z</time>
      </trkpt>
      <trkpt lat="46.26045" lon="5.99434">
        <ele>518.62</ele>
        <time>2015-06-28T09:59:50Z</time>
      </trkpt>
      <trkpt lat="46.26046" lon="5.99432">
        <ele>518.87</ele>
        <time>2015-06-28T09:59:51Z</time>
      </trkpt>
      <trkpt lat="46.26048" lon="5.99431">
        <ele>519.06</ele>
        <time>2015-06-28T09:59:52Z</time>
      </trkpt>
      <trkpt lat="46.2605" lon="5.9943">
        <ele>519.26</ele>
        <time>2015-06-28T09:59:53Z</time>
      </trkpt>
      <trkpt lat="46.26052" lon="5.99428">
        <ele>519.35</ele>
        <time>2015-06-28T09:59:54Z</time>
      </trkpt>
      <trkpt lat="46.26054" lon="5.99427">
        <ele>519.56</ele>
        <time>2015-06-28T09:59:55Z</time>
      </trkpt>
      <trkpt lat="46.26057" lon="5.99424">
        <ele>519.74</ele>
        <time>2015-06-28T09:59:57Z</time>
      </trkpt>
      <trkpt lat="46.26059" lon="5.99422">
        <ele>519.95</ele>
        <time>2015-06-28T09:59:58Z</time>
      </trkpt>
      <trkpt lat="46.2606" lon="5.9942">
        <ele>520.17</ele>
        <time>2015-06-28T09:59:59Z</time>
      </trkpt>
      <trkpt lat="46.26062" lon="5.99418">
        <ele>520.32</ele>
        <time>2015-06-28T10:00:00Z</time>
      </trkpt>
      <trkpt lat="46.26064" lon="5.99416">
        <ele>520.4</ele>
        <time>2015-06-28T10:00:01Z</time>
      </trkpt>
      <trkpt lat="46.26065" lon="5.99415">
        <ele>520.49</ele>
        <time>2015-06-28T10:00:02Z</time>
      </trkpt>
      <trkpt lat="46.2607" lon="5.9941">
        <ele>520.96</ele>
        <time>2015-06-28T10:00:05Z</time>
      </trkpt>
      <trkpt lat="46.26079" lon="5.99398">
        <ele>521.93</ele>
        <time>2015-06-28T10:00:11Z</time>
      </trkpt>
      <trkpt lat="46.26081" lon="5.99396">
        <ele>522.08</ele>
        <time>2015-06-28T10:00:12Z</time>
      </trkpt>
      <trkpt lat="46.26083" lon="5.99394">
        <ele>522.28</ele>
        <time>2015-06-28T10:00:13Z</time>
      </trkpt>
      <trkpt lat="46.26084" lon="5.99392">
        <ele>522.45</ele>
        <time>2015-06-28T10:00:14Z</time>
      </trkpt>
      <trkpt lat="46.26086" lon="5.9939">
        <ele>522.57</ele>
        <time>2015-06-28T10:00:15Z</time>
      </trkpt>
      <trkpt lat="46.26091" lon="5.99382">
        <ele>522.98</ele>
        <time>2015-06-28T10:00:18Z</time>
      </trkpt>
      <trkpt lat="46.26092" lon="5.9938">
        <ele>523.05</ele>
        <time>2015-06-28T10:00:19Z</time>
      </trkpt>
      <trkpt lat="46.26093" lon="5.99377">
        <ele>523.08</ele>
        <time>2015-06-28T10:00:20Z</time>
      </trkpt>
      <trkpt lat="46.26095" lon="5.99373">
        <ele>523.17</ele>
        <time>2015-06-28T10:00:21Z</time>
      </trkpt>
      <trkpt lat="46.26095" lon="5.9937">
        <ele>523.31</ele>
        <time>2015-06-28T10:00:22Z</time>
      </trkpt>
      <trkpt lat="46.26094" lon="5.99366">
        <ele>523.44</ele>
        <time>2015-06-28T10:00:23Z</time>
      </trkpt>
      <trkpt lat="46.26093" lon="5.99362">
        <ele>523.73</ele>
        <time>2015-06-28T10:00:24Z</time>
      </trkpt>
      <trkpt lat="46.26092" lon="5.99358">
        <ele>523.9</ele>
        <time>2015-06-28T10:00:25Z</time>
      </trkpt>
      <trkpt lat="46.26091" lon="5.99354">
        <ele>524.09</ele>
        <time>2015-06-28T10:00:26Z</time>
      </trkpt>
      <trkpt lat="46.2609" lon="5.9935">
        <ele>524.24</ele>
        <time>2015-06-28T10:00:27Z</time>
      </trkpt>
      <trkpt lat="46.26089" lon="5.99346">
        <ele>524.31</ele>
        <time>2015-06-28T10:00:28Z</time>
      </trkpt>
      <trkpt lat="46.26087" lon="5.99342">
        <ele>524.35</ele>
        <time>2015-06-28T10:00:29Z</time>
      </trkpt>
      <trkpt lat="46.26086" lon="5.99338">
        <ele>524.4</ele>
        <time>2015-06-28T10:00:30Z</time>
      </trkpt>
      <trkpt lat="46.26085" lon="5.99334">
        <ele>524.38</ele>
        <time>2015-06-28T10:00:31Z</time>
      </trkpt>
      <trkpt lat="46.26083" lon="5.99331">
        <ele>524.41</ele>
        <time>2015-06-28T10:00:32Z</time>
      </trkpt>
      <trkpt lat="46.26081" lon="5.99327">
        <ele>524.38</ele>
        <time>2015-06-28T10:00:33Z</time>
      </trkpt>
      <trkpt lat="46.26079" lon="5.99324">
        <ele>524.36</ele>
        <time>2015-06-28T10:00:34Z</time>
      </trkpt>
      <trkpt lat="46.26073" lon="5.99314">
        <ele>524.39</ele>
        <time>2015-06-28T10:00:37Z</time>
      </trkpt>
      <trkpt lat="46.26071" lon="5.99311">
        <ele>524.36</ele>
        <time>2015-06-28T10:00:38Z</time>
      </trkpt>
      <trkpt lat="46.26068" lon="5.99307">
        <ele>524.39</ele>
        <time>2015-06-28T10:00:39Z</time>
      </trkpt>
      <trkpt lat="46.26066" lon="5.99304">
        <ele>524.4</ele>
        <time>2015-06-28T10:00:40Z</time>
      </trkpt>
      <trkpt lat="46.26064" lon="5.99301">
        <ele>524.41</ele>
        <time>2015-06-28T10:00:41Z</time>
      </trkpt>
      <trkpt lat="46.26062" lon="5.99298">
        <ele>524.41</ele>
        <time>2015-06-28T10:00:42Z</time>
      </trkpt>
      <trkpt lat="46.2606" lon="5.99295">
        <ele>524.41</ele>
        <time>2015-06-28T10:00:43Z</time>
      </trkpt>
      <trkpt lat="46.26057" lon="5.99292">
        <ele>524.44</ele>
        <time>2015-06-28T10:00:44Z</time>
      </trkpt>
      <trkpt lat="46.26055" lon="5.99288">
        <ele>524.61</ele>
        <time>2015-06-28T10:00:45Z</time>
      </trkpt>
      <trkpt lat="46.26053" lon="5.99286">
        <ele>524.96</ele>
        <time>2015-06-28T10:00:46Z</time>
      </trkpt>
      <trkpt lat="46.2605" lon="5.99283">
        <ele>525.13</ele>
        <time>2015-06-28T10:00:47Z</time>
      </trkpt>
      <trkpt lat="46.26048" lon="5.9928">
        <ele>525.21</ele>
        <time>2015-06-28T10:00:48Z</time>
      </trkpt>
      <trkpt lat="46.26043" lon="5.99275">
        <ele>525.42</ele>
        <time>2015-06-28T10:00:50Z</time>
      </trkpt>
      <trkpt lat="46.2604" lon="5.99273">
        <ele>525.46</ele>
        <time>2015-06-28T10:00:51Z</time>
      </trkpt>
      <trkpt lat="46.26038" lon="5.9927">
        <ele>525.48</ele>
        <time>2015-06-28T10:00:52Z</time>
      </trkpt>
      <trkpt lat="46.26035" lon="5.99268">
        <ele>525.44</ele>
        <time>2015-06-28T10:00:53Z</time>
      </trkpt>
      <trkpt lat="46.26032" lon="5.99266">
        <ele>525.47</ele>
        <time>2015-06-28T10:00:54Z</time>
      </trkpt>
      <trkpt lat="46.26027" lon="5.99261">
        <ele>525.4</ele>
        <time>2015-06-28T10:00:56Z</time>
      </trkpt>
      <trkpt lat="46.26024" lon="5.99259">
        <ele>525.28</ele>
        <time>2015-06-28T10:00:57Z</time>
      </trkpt>
      <trkpt lat="46.26021" lon="5.99256">
        <ele>525.18</ele>
        <time>2015-06-28T10:00:58Z</time>
      </trkpt>
      <trkpt lat="46.26018" lon="5.99254">
        <ele>525.03</ele>
        <time>2015-06-28T10:00:59Z</time>
      </trkpt>
      <trkpt lat="46.26015" lon="5.99252">
        <ele>524.83</ele>
        <time>2015-06-28T10:01:00Z</time>
      </trkpt>
      <trkpt lat="46.26012" lon="5.9925">
        <ele>524.63</ele>
        <time>2015-06-28T10:01:01Z</time>
      </trkpt>
      <trkpt lat="46.26008" lon="5.99249">
        <ele>524.46</ele>
        <time>2015-06-28T10:01:02Z</time>
      </trkpt>
      <trkpt lat="46.26004" lon="5.99247">
        <ele>524.38</ele>
        <time>2015-06-28T10:01:03Z</time>
      </trkpt>
      <trkpt lat="46.26" lon="5.99245">
        <ele>524.05</ele>
        <time>2015-06-28T10:01:04Z</time>
      </trkpt>
      <trkpt lat="46.25984" lon="5.99242">
        <ele>523.69</ele>
        <time>2015-06-28T10:01:07Z</time>
      </trkpt>
      <trkpt lat="46.25979" lon="5.99239">
        <ele>523.61</ele>
        <time>2015-06-28T10:01:08Z</time>
      </trkpt>
      <trkpt lat="46.25968" lon="5.99232">
        <ele>523.57</ele>
        <time>2015-06-28T10:01:10Z</time>
      </trkpt>
      <trkpt lat="46.25962" lon="5.99231">
        <ele>523.55</ele>
        <time>2015-06-28T10:01:11Z</time>
      </trkpt>
      <trkpt lat="46.25956" lon="5.9923">
        <ele>523.61</ele>
        <time>2015-06-28T10:01:12Z</time>
      </trkpt>
      <trkpt lat="46.25949" lon="5.9923">
        <ele>523.63</ele>
        <time>2015-06-28T10:01:13Z</time>
      </trkpt>
      <trkpt lat="46.25943" lon="5.99228">
        <ele>523.55</ele>
        <time>2015-06-28T10:01:14Z</time>
      </trkpt>
      <trkpt lat="46.25937" lon="5.99223">
        <ele>523.41</ele>
        <time>2015-06-28T10:01:15Z</time>
      </trkpt>
      <trkpt lat="46.25932" lon="5.99218">
        <ele>523.04</ele>
        <time>2015-06-28T10:01:16Z</time>
      </trkpt>
      <trkpt lat="46.25928" lon="5.99212">
        <ele>522.69</ele>
        <time>2015-06-28T10:01:17Z</time>
      </trkpt>
      <trkpt lat="46.25896" lon="5.99171">
        <ele>521.82</ele>
        <time>2015-06-28T10:01:25Z</time>
      </trkpt>
      <trkpt lat="46.25884" lon="5.99157">
        <ele>522.22</ele>
        <time>2015-06-28T10:01:29Z</time>
      </trkpt>
      <trkpt lat="46.25851" lon="5.99119">
        <ele>522.44</ele>
        <time>2015-06-28T10:01:41Z</time>
      </trkpt>
      <trkpt lat="46.25846" lon="5.99112">
        <ele>522.44</ele>
        <time>2015-06-28T10:01:44Z</time>
      </trkpt>
      <trkpt lat="46.25845" lon="5.99091">
        <ele>522.43</ele>
        <time>2015-06-28T10:01:50Z</time>
      </trkpt>
      <trkpt lat="46.25878" lon="5.99039">
        <ele>525.41</ele>
        <time>2015-06-28T10:02:06Z</time>
      </trkpt>
      <trkpt lat="46.25898" lon="5.99009">
        <ele>527.92</ele>
        <time>2015-06-28T10:02:17Z</time>
      </trkpt>
      <trkpt lat="46.259" lon="5.99004">
        <ele>528.34</ele>
        <time>2015-06-28T10:02:19Z</time>
      </trkpt>
      <trkpt lat="46.25901" lon="5.98974">
        <ele>530.21</ele>
        <time>2015-06-28T10:02:29Z</time>
      </trkpt>
    </trkseg>
  </trk>
</gpx>